<?xml version="1.0" encoding="UTF-8" standalone="no" ?>
<gpx xmlns="http://www.topografix.com/GPX/1/1" xmlns:xsi="http://www.w3.org/2001/XMLSchema-instance" xsi:schemaLocation="http://www.topografix.com/GPX/1/1 http://www.topografix.com/GPX/1/1/gpx.xsd" version="1.1" creator="VisuGPX - https://www.visugpx.com">
  <metadata>
    <name>2024-07-18  VTT TwoNav</name>
    <desc><![CDATA[2024-07-18_172428.trk]]></desc>
  </metadata>
  <trk>
    <name><![CDATA[2024-07-18  VTT TwoNav_1]]></name>
    <trkseg>
      <trkpt lat="48.05004" lon="6.74541">
        <ele>729.6</ele>
        <time>2024-07-18T15:24:28Z</time>
      </trkpt>
      <trkpt lat="48.05004" lon="6.74541">
        <ele>729.6</ele>
        <time>2024-07-18T15:24:28Z</time>
      </trkpt>
      <trkpt lat="48.05004" lon="6.74541">
        <ele>729.6</ele>
        <time>2024-07-18T15:24:29Z</time>
      </trkpt>
      <trkpt lat="48.05003" lon="6.74542">
        <ele>729.8</ele>
        <time>2024-07-18T15:24:38Z</time>
      </trkpt>
      <trkpt lat="48.04994" lon="6.74541">
        <ele>730.8</ele>
        <time>2024-07-18T15:24:51Z</time>
      </trkpt>
      <trkpt lat="48.04985" lon="6.74537">
        <ele>732</ele>
        <time>2024-07-18T15:25:00Z</time>
      </trkpt>
      <trkpt lat="48.04976" lon="6.74532">
        <ele>733.2</ele>
        <time>2024-07-18T15:25:07Z</time>
      </trkpt>
      <trkpt lat="48.04966" lon="6.74533">
        <ele>734.1</ele>
        <time>2024-07-18T15:25:15Z</time>
      </trkpt>
      <trkpt lat="48.04958" lon="6.7454">
        <ele>734.8</ele>
        <time>2024-07-18T15:25:22Z</time>
      </trkpt>
      <trkpt lat="48.04951" lon="6.74552">
        <ele>735.8</ele>
        <time>2024-07-18T15:25:29Z</time>
      </trkpt>
      <trkpt lat="48.04944" lon="6.74562">
        <ele>737.3</ele>
        <time>2024-07-18T15:25:37Z</time>
      </trkpt>
      <trkpt lat="48.04937" lon="6.74571">
        <ele>739</ele>
        <time>2024-07-18T15:25:46Z</time>
      </trkpt>
      <trkpt lat="48.04928" lon="6.74574">
        <ele>740.7</ele>
        <time>2024-07-18T15:26:05Z</time>
      </trkpt>
      <trkpt lat="48.04918" lon="6.74577">
        <ele>742.5</ele>
        <time>2024-07-18T15:26:19Z</time>
      </trkpt>
      <trkpt lat="48.04909" lon="6.74583">
        <ele>744</ele>
        <time>2024-07-18T15:26:32Z</time>
      </trkpt>
      <trkpt lat="48.04901" lon="6.74591">
        <ele>745.2</ele>
        <time>2024-07-18T15:26:44Z</time>
      </trkpt>
      <trkpt lat="48.04894" lon="6.746">
        <ele>746.3</ele>
        <time>2024-07-18T15:26:54Z</time>
      </trkpt>
      <trkpt lat="48.04886" lon="6.74608">
        <ele>747.1</ele>
        <time>2024-07-18T15:27:03Z</time>
      </trkpt>
      <trkpt lat="48.04877" lon="6.74615">
        <ele>747.9</ele>
        <time>2024-07-18T15:27:12Z</time>
      </trkpt>
      <trkpt lat="48.04868" lon="6.74621">
        <ele>748.7</ele>
        <time>2024-07-18T15:27:21Z</time>
      </trkpt>
      <trkpt lat="48.04859" lon="6.74627">
        <ele>749.6</ele>
        <time>2024-07-18T15:27:29Z</time>
      </trkpt>
      <trkpt lat="48.0485" lon="6.74634">
        <ele>750.5</ele>
        <time>2024-07-18T15:27:37Z</time>
      </trkpt>
      <trkpt lat="48.04842" lon="6.7464">
        <ele>751.5</ele>
        <time>2024-07-18T15:27:42Z</time>
      </trkpt>
      <trkpt lat="48.04832" lon="6.74642">
        <ele>752.5</ele>
        <time>2024-07-18T15:27:50Z</time>
      </trkpt>
      <trkpt lat="48.04823" lon="6.74646">
        <ele>753.5</ele>
        <time>2024-07-18T15:27:58Z</time>
      </trkpt>
      <trkpt lat="48.04813" lon="6.74646">
        <ele>754.7</ele>
        <time>2024-07-18T15:28:05Z</time>
      </trkpt>
      <trkpt lat="48.04805" lon="6.74637">
        <ele>755.9</ele>
        <time>2024-07-18T15:28:20Z</time>
      </trkpt>
      <trkpt lat="48.04799" lon="6.74626">
        <ele>757.1</ele>
        <time>2024-07-18T15:28:31Z</time>
      </trkpt>
      <trkpt lat="48.04789" lon="6.74621">
        <ele>758.5</ele>
        <time>2024-07-18T15:28:47Z</time>
      </trkpt>
      <trkpt lat="48.04779" lon="6.74621">
        <ele>759.6</ele>
        <time>2024-07-18T15:28:54Z</time>
      </trkpt>
      <trkpt lat="48.0477" lon="6.74619">
        <ele>760.6</ele>
        <time>2024-07-18T15:29:03Z</time>
      </trkpt>
      <trkpt lat="48.0476" lon="6.74618">
        <ele>761.3</ele>
        <time>2024-07-18T15:29:11Z</time>
      </trkpt>
      <trkpt lat="48.04751" lon="6.74611">
        <ele>762</ele>
        <time>2024-07-18T15:29:22Z</time>
      </trkpt>
      <trkpt lat="48.04742" lon="6.74607">
        <ele>762.5</ele>
        <time>2024-07-18T15:29:31Z</time>
      </trkpt>
      <trkpt lat="48.04732" lon="6.74605">
        <ele>763.1</ele>
        <time>2024-07-18T15:29:37Z</time>
      </trkpt>
      <trkpt lat="48.04724" lon="6.74598">
        <ele>763.8</ele>
        <time>2024-07-18T15:29:45Z</time>
      </trkpt>
      <trkpt lat="48.04716" lon="6.74589">
        <ele>764.6</ele>
        <time>2024-07-18T15:29:55Z</time>
      </trkpt>
      <trkpt lat="48.04709" lon="6.7458">
        <ele>765.3</ele>
        <time>2024-07-18T15:29:59Z</time>
      </trkpt>
      <trkpt lat="48.047" lon="6.74574">
        <ele>765.6</ele>
        <time>2024-07-18T15:30:04Z</time>
      </trkpt>
      <trkpt lat="48.04691" lon="6.74573">
        <ele>765.8</ele>
        <time>2024-07-18T15:30:11Z</time>
      </trkpt>
      <trkpt lat="48.04682" lon="6.74569">
        <ele>765.8</ele>
        <time>2024-07-18T15:30:19Z</time>
      </trkpt>
      <trkpt lat="48.04672" lon="6.74567">
        <ele>765.8</ele>
        <time>2024-07-18T15:30:27Z</time>
      </trkpt>
      <trkpt lat="48.04664" lon="6.74561">
        <ele>765.9</ele>
        <time>2024-07-18T15:30:33Z</time>
      </trkpt>
      <trkpt lat="48.04656" lon="6.74556">
        <ele>766.2</ele>
        <time>2024-07-18T15:30:40Z</time>
      </trkpt>
      <trkpt lat="48.04648" lon="6.74546">
        <ele>766.9</ele>
        <time>2024-07-18T15:30:49Z</time>
      </trkpt>
      <trkpt lat="48.04639" lon="6.74545">
        <ele>767.8</ele>
        <time>2024-07-18T15:30:54Z</time>
      </trkpt>
      <trkpt lat="48.0463" lon="6.74544">
        <ele>768.7</ele>
        <time>2024-07-18T15:31:01Z</time>
      </trkpt>
      <trkpt lat="48.04619" lon="6.74543">
        <ele>769.6</ele>
        <time>2024-07-18T15:31:08Z</time>
      </trkpt>
      <trkpt lat="48.0461" lon="6.7454">
        <ele>770.3</ele>
        <time>2024-07-18T15:31:16Z</time>
      </trkpt>
      <trkpt lat="48.04601" lon="6.7454">
        <ele>771</ele>
        <time>2024-07-18T15:31:25Z</time>
      </trkpt>
      <trkpt lat="48.04592" lon="6.74535">
        <ele>771.5</ele>
        <time>2024-07-18T15:31:30Z</time>
      </trkpt>
      <trkpt lat="48.04583" lon="6.74533">
        <ele>772.1</ele>
        <time>2024-07-18T15:31:38Z</time>
      </trkpt>
      <trkpt lat="48.04573" lon="6.74531">
        <ele>772.8</ele>
        <time>2024-07-18T15:31:46Z</time>
      </trkpt>
      <trkpt lat="48.04564" lon="6.74529">
        <ele>773.5</ele>
        <time>2024-07-18T15:31:53Z</time>
      </trkpt>
      <trkpt lat="48.04554" lon="6.74526">
        <ele>774.5</ele>
        <time>2024-07-18T15:32:01Z</time>
      </trkpt>
      <trkpt lat="48.04545" lon="6.74524">
        <ele>775.6</ele>
        <time>2024-07-18T15:32:08Z</time>
      </trkpt>
      <trkpt lat="48.04536" lon="6.74517">
        <ele>776.8</ele>
        <time>2024-07-18T15:32:20Z</time>
      </trkpt>
      <trkpt lat="48.04533" lon="6.74519">
        <ele>777.2</ele>
        <time>2024-07-18T15:32:26Z</time>
      </trkpt>
      <trkpt lat="48.04533" lon="6.74519">
        <ele>777.2</ele>
        <time>2024-07-18T15:32:27Z</time>
      </trkpt>
      <trkpt lat="48.04533" lon="6.74519">
        <ele>777.2</ele>
        <time>2024-07-18T15:32:28Z</time>
      </trkpt>
      <trkpt lat="48.04533" lon="6.74519">
        <ele>777.2</ele>
        <time>2024-07-18T15:32:29Z</time>
      </trkpt>
      <trkpt lat="48.04524" lon="6.7452">
        <ele>778.3</ele>
        <time>2024-07-18T15:32:38Z</time>
      </trkpt>
      <trkpt lat="48.04514" lon="6.74521">
        <ele>779.4</ele>
        <time>2024-07-18T15:32:46Z</time>
      </trkpt>
      <trkpt lat="48.04505" lon="6.74523">
        <ele>780.6</ele>
        <time>2024-07-18T15:32:54Z</time>
      </trkpt>
      <trkpt lat="48.04496" lon="6.74527">
        <ele>781.7</ele>
        <time>2024-07-18T15:33:02Z</time>
      </trkpt>
      <trkpt lat="48.04486" lon="6.74528">
        <ele>783</ele>
        <time>2024-07-18T15:33:11Z</time>
      </trkpt>
      <trkpt lat="48.04477" lon="6.7453">
        <ele>784.3</ele>
        <time>2024-07-18T15:33:20Z</time>
      </trkpt>
      <trkpt lat="48.04467" lon="6.74535">
        <ele>785.6</ele>
        <time>2024-07-18T15:33:29Z</time>
      </trkpt>
      <trkpt lat="48.04457" lon="6.74538">
        <ele>786.7</ele>
        <time>2024-07-18T15:33:46Z</time>
      </trkpt>
      <trkpt lat="48.04448" lon="6.74541">
        <ele>787.7</ele>
        <time>2024-07-18T15:33:54Z</time>
      </trkpt>
      <trkpt lat="48.04438" lon="6.74542">
        <ele>788.6</ele>
        <time>2024-07-18T15:34:01Z</time>
      </trkpt>
      <trkpt lat="48.04428" lon="6.74543">
        <ele>789.5</ele>
        <time>2024-07-18T15:34:08Z</time>
      </trkpt>
      <trkpt lat="48.04418" lon="6.74545">
        <ele>790.4</ele>
        <time>2024-07-18T15:34:16Z</time>
      </trkpt>
      <trkpt lat="48.04409" lon="6.74548">
        <ele>791.2</ele>
        <time>2024-07-18T15:34:23Z</time>
      </trkpt>
      <trkpt lat="48.04401" lon="6.74553">
        <ele>792</ele>
        <time>2024-07-18T15:34:30Z</time>
      </trkpt>
      <trkpt lat="48.04391" lon="6.74556">
        <ele>792.9</ele>
        <time>2024-07-18T15:34:37Z</time>
      </trkpt>
      <trkpt lat="48.04382" lon="6.74559">
        <ele>793.7</ele>
        <time>2024-07-18T15:34:44Z</time>
      </trkpt>
      <trkpt lat="48.04372" lon="6.74563">
        <ele>794.4</ele>
        <time>2024-07-18T15:34:51Z</time>
      </trkpt>
      <trkpt lat="48.04363" lon="6.7457">
        <ele>795.1</ele>
        <time>2024-07-18T15:34:58Z</time>
      </trkpt>
      <trkpt lat="48.04353" lon="6.74575">
        <ele>795.6</ele>
        <time>2024-07-18T15:35:05Z</time>
      </trkpt>
      <trkpt lat="48.04343" lon="6.7458">
        <ele>796.2</ele>
        <time>2024-07-18T15:35:12Z</time>
      </trkpt>
      <trkpt lat="48.04334" lon="6.74584">
        <ele>796.7</ele>
        <time>2024-07-18T15:35:19Z</time>
      </trkpt>
      <trkpt lat="48.04325" lon="6.74587">
        <ele>797.2</ele>
        <time>2024-07-18T15:35:26Z</time>
      </trkpt>
      <trkpt lat="48.04315" lon="6.74589">
        <ele>797.7</ele>
        <time>2024-07-18T15:35:33Z</time>
      </trkpt>
      <trkpt lat="48.04306" lon="6.74589">
        <ele>798.2</ele>
        <time>2024-07-18T15:35:40Z</time>
      </trkpt>
      <trkpt lat="48.04296" lon="6.7459">
        <ele>798.7</ele>
        <time>2024-07-18T15:35:47Z</time>
      </trkpt>
      <trkpt lat="48.04287" lon="6.74593">
        <ele>799.2</ele>
        <time>2024-07-18T15:35:54Z</time>
      </trkpt>
      <trkpt lat="48.04278" lon="6.74597">
        <ele>799.7</ele>
        <time>2024-07-18T15:36:01Z</time>
      </trkpt>
      <trkpt lat="48.04269" lon="6.74603">
        <ele>800.1</ele>
        <time>2024-07-18T15:36:08Z</time>
      </trkpt>
      <trkpt lat="48.04261" lon="6.74611">
        <ele>800.5</ele>
        <time>2024-07-18T15:36:15Z</time>
      </trkpt>
      <trkpt lat="48.04254" lon="6.74622">
        <ele>800.9</ele>
        <time>2024-07-18T15:36:23Z</time>
      </trkpt>
      <trkpt lat="48.04247" lon="6.74631">
        <ele>801.3</ele>
        <time>2024-07-18T15:36:30Z</time>
      </trkpt>
      <trkpt lat="48.04241" lon="6.74643">
        <ele>801.5</ele>
        <time>2024-07-18T15:36:38Z</time>
      </trkpt>
      <trkpt lat="48.04232" lon="6.74649">
        <ele>801.4</ele>
        <time>2024-07-18T15:36:52Z</time>
      </trkpt>
      <trkpt lat="48.04225" lon="6.74658">
        <ele>801.3</ele>
        <time>2024-07-18T15:37:00Z</time>
      </trkpt>
      <trkpt lat="48.04218" lon="6.74668">
        <ele>801.2</ele>
        <time>2024-07-18T15:37:09Z</time>
      </trkpt>
      <trkpt lat="48.04218" lon="6.74669">
        <ele>801.2</ele>
        <time>2024-07-18T15:37:13Z</time>
      </trkpt>
      <trkpt lat="48.04218" lon="6.74669">
        <ele>801.2</ele>
        <time>2024-07-18T15:37:14Z</time>
      </trkpt>
      <trkpt lat="48.04218" lon="6.74669">
        <ele>801.2</ele>
        <time>2024-07-18T15:37:15Z</time>
      </trkpt>
      <trkpt lat="48.04218" lon="6.74669">
        <ele>801.2</ele>
        <time>2024-07-18T15:37:18Z</time>
      </trkpt>
      <trkpt lat="48.04218" lon="6.74669">
        <ele>801.2</ele>
        <time>2024-07-18T15:37:19Z</time>
      </trkpt>
      <trkpt lat="48.04219" lon="6.7467">
        <ele>801.2</ele>
        <time>2024-07-18T15:37:23Z</time>
      </trkpt>
      <trkpt lat="48.04219" lon="6.7467">
        <ele>801.2</ele>
        <time>2024-07-18T15:37:24Z</time>
      </trkpt>
      <trkpt lat="48.04219" lon="6.7467">
        <ele>801.2</ele>
        <time>2024-07-18T15:37:25Z</time>
      </trkpt>
      <trkpt lat="48.04218" lon="6.74673">
        <ele>801.2</ele>
        <time>2024-07-18T15:37:28Z</time>
      </trkpt>
      <trkpt lat="48.04217" lon="6.74674">
        <ele>801.1</ele>
        <time>2024-07-18T15:37:29Z</time>
      </trkpt>
      <trkpt lat="48.04209" lon="6.74684">
        <ele>800.8</ele>
        <time>2024-07-18T15:37:34Z</time>
      </trkpt>
      <trkpt lat="48.04203" lon="6.74694">
        <ele>800.5</ele>
        <time>2024-07-18T15:37:39Z</time>
      </trkpt>
      <trkpt lat="48.04195" lon="6.74707">
        <ele>799.9</ele>
        <time>2024-07-18T15:37:43Z</time>
      </trkpt>
      <trkpt lat="48.04187" lon="6.74721">
        <ele>799.1</ele>
        <time>2024-07-18T15:37:46Z</time>
      </trkpt>
      <trkpt lat="48.04181" lon="6.74733">
        <ele>798.3</ele>
        <time>2024-07-18T15:37:49Z</time>
      </trkpt>
      <trkpt lat="48.04177" lon="6.74745">
        <ele>797.3</ele>
        <time>2024-07-18T15:37:51Z</time>
      </trkpt>
      <trkpt lat="48.04174" lon="6.7476">
        <ele>796.1</ele>
        <time>2024-07-18T15:37:54Z</time>
      </trkpt>
      <trkpt lat="48.04171" lon="6.74777">
        <ele>794.8</ele>
        <time>2024-07-18T15:37:58Z</time>
      </trkpt>
      <trkpt lat="48.04169" lon="6.74794">
        <ele>793.5</ele>
        <time>2024-07-18T15:38:02Z</time>
      </trkpt>
      <trkpt lat="48.04166" lon="6.74811">
        <ele>792.3</ele>
        <time>2024-07-18T15:38:05Z</time>
      </trkpt>
      <trkpt lat="48.04162" lon="6.7483">
        <ele>790.9</ele>
        <time>2024-07-18T15:38:08Z</time>
      </trkpt>
      <trkpt lat="48.0416" lon="6.74847">
        <ele>789.8</ele>
        <time>2024-07-18T15:38:10Z</time>
      </trkpt>
      <trkpt lat="48.04157" lon="6.74865">
        <ele>789.1</ele>
        <time>2024-07-18T15:38:12Z</time>
      </trkpt>
      <trkpt lat="48.04155" lon="6.74882">
        <ele>788.7</ele>
        <time>2024-07-18T15:38:14Z</time>
      </trkpt>
      <trkpt lat="48.04152" lon="6.74897">
        <ele>788.6</ele>
        <time>2024-07-18T15:38:17Z</time>
      </trkpt>
      <trkpt lat="48.04147" lon="6.74911">
        <ele>788.4</ele>
        <time>2024-07-18T15:38:21Z</time>
      </trkpt>
      <trkpt lat="48.04144" lon="6.74925">
        <ele>788</ele>
        <time>2024-07-18T15:38:25Z</time>
      </trkpt>
      <trkpt lat="48.0414" lon="6.74939">
        <ele>787.7</ele>
        <time>2024-07-18T15:38:29Z</time>
      </trkpt>
      <trkpt lat="48.04134" lon="6.74951">
        <ele>787.3</ele>
        <time>2024-07-18T15:38:33Z</time>
      </trkpt>
      <trkpt lat="48.04126" lon="6.74963">
        <ele>786.9</ele>
        <time>2024-07-18T15:38:37Z</time>
      </trkpt>
      <trkpt lat="48.04121" lon="6.74974">
        <ele>786.6</ele>
        <time>2024-07-18T15:38:40Z</time>
      </trkpt>
      <trkpt lat="48.04113" lon="6.74987">
        <ele>786.2</ele>
        <time>2024-07-18T15:38:44Z</time>
      </trkpt>
      <trkpt lat="48.04106" lon="6.74997">
        <ele>785.9</ele>
        <time>2024-07-18T15:38:47Z</time>
      </trkpt>
      <trkpt lat="48.04098" lon="6.75007">
        <ele>785.5</ele>
        <time>2024-07-18T15:38:50Z</time>
      </trkpt>
      <trkpt lat="48.04086" lon="6.75016">
        <ele>785.1</ele>
        <time>2024-07-18T15:38:53Z</time>
      </trkpt>
      <trkpt lat="48.04076" lon="6.75023">
        <ele>784.8</ele>
        <time>2024-07-18T15:38:55Z</time>
      </trkpt>
      <trkpt lat="48.04066" lon="6.75033">
        <ele>784.4</ele>
        <time>2024-07-18T15:38:57Z</time>
      </trkpt>
      <trkpt lat="48.04059" lon="6.75044">
        <ele>784.1</ele>
        <time>2024-07-18T15:38:59Z</time>
      </trkpt>
      <trkpt lat="48.04052" lon="6.75056">
        <ele>783.7</ele>
        <time>2024-07-18T15:39:02Z</time>
      </trkpt>
      <trkpt lat="48.04045" lon="6.75065">
        <ele>783.5</ele>
        <time>2024-07-18T15:39:06Z</time>
      </trkpt>
      <trkpt lat="48.04036" lon="6.75075">
        <ele>783.1</ele>
        <time>2024-07-18T15:39:10Z</time>
      </trkpt>
      <trkpt lat="48.04028" lon="6.75084">
        <ele>782.8</ele>
        <time>2024-07-18T15:39:15Z</time>
      </trkpt>
      <trkpt lat="48.04022" lon="6.75086">
        <ele>782.6</ele>
        <time>2024-07-18T15:39:24Z</time>
      </trkpt>
      <trkpt lat="48.04022" lon="6.75086">
        <ele>782.6</ele>
        <time>2024-07-18T15:39:25Z</time>
      </trkpt>
      <trkpt lat="48.04026" lon="6.75082">
        <ele>782.5</ele>
        <time>2024-07-18T15:39:31Z</time>
      </trkpt>
      <trkpt lat="48.04028" lon="6.7508">
        <ele>782.4</ele>
        <time>2024-07-18T15:39:32Z</time>
      </trkpt>
      <trkpt lat="48.0403" lon="6.75079">
        <ele>782.3</ele>
        <time>2024-07-18T15:39:33Z</time>
      </trkpt>
      <trkpt lat="48.0404" lon="6.7507">
        <ele>782.8</ele>
        <time>2024-07-18T15:39:38Z</time>
      </trkpt>
      <trkpt lat="48.04048" lon="6.75061">
        <ele>783.1</ele>
        <time>2024-07-18T15:39:41Z</time>
      </trkpt>
      <trkpt lat="48.04055" lon="6.75049">
        <ele>783.5</ele>
        <time>2024-07-18T15:39:44Z</time>
      </trkpt>
      <trkpt lat="48.04062" lon="6.75037">
        <ele>783.9</ele>
        <time>2024-07-18T15:39:47Z</time>
      </trkpt>
      <trkpt lat="48.04071" lon="6.75029">
        <ele>784.3</ele>
        <time>2024-07-18T15:39:50Z</time>
      </trkpt>
      <trkpt lat="48.04079" lon="6.75021">
        <ele>784.7</ele>
        <time>2024-07-18T15:39:53Z</time>
      </trkpt>
      <trkpt lat="48.04088" lon="6.75014">
        <ele>785.1</ele>
        <time>2024-07-18T15:39:57Z</time>
      </trkpt>
      <trkpt lat="48.04098" lon="6.75005">
        <ele>785.5</ele>
        <time>2024-07-18T15:40:01Z</time>
      </trkpt>
      <trkpt lat="48.04107" lon="6.74996">
        <ele>785.9</ele>
        <time>2024-07-18T15:40:05Z</time>
      </trkpt>
      <trkpt lat="48.04115" lon="6.74986">
        <ele>786.3</ele>
        <time>2024-07-18T15:40:09Z</time>
      </trkpt>
      <trkpt lat="48.0412" lon="6.74975">
        <ele>786.6</ele>
        <time>2024-07-18T15:40:12Z</time>
      </trkpt>
      <trkpt lat="48.04127" lon="6.74964">
        <ele>786.9</ele>
        <time>2024-07-18T15:40:15Z</time>
      </trkpt>
      <trkpt lat="48.04133" lon="6.74954">
        <ele>787.2</ele>
        <time>2024-07-18T15:40:18Z</time>
      </trkpt>
      <trkpt lat="48.04139" lon="6.7494">
        <ele>787.6</ele>
        <time>2024-07-18T15:40:23Z</time>
      </trkpt>
      <trkpt lat="48.04144" lon="6.74926">
        <ele>788</ele>
        <time>2024-07-18T15:40:28Z</time>
      </trkpt>
      <trkpt lat="48.04148" lon="6.74911">
        <ele>788.4</ele>
        <time>2024-07-18T15:40:33Z</time>
      </trkpt>
      <trkpt lat="48.0415" lon="6.74895">
        <ele>788.4</ele>
        <time>2024-07-18T15:40:38Z</time>
      </trkpt>
      <trkpt lat="48.04152" lon="6.7488">
        <ele>787.5</ele>
        <time>2024-07-18T15:40:42Z</time>
      </trkpt>
      <trkpt lat="48.04148" lon="6.74861">
        <ele>786.3</ele>
        <time>2024-07-18T15:40:45Z</time>
      </trkpt>
      <trkpt lat="48.04145" lon="6.74845">
        <ele>785.2</ele>
        <time>2024-07-18T15:40:47Z</time>
      </trkpt>
      <trkpt lat="48.0414" lon="6.74826">
        <ele>784</ele>
        <time>2024-07-18T15:40:49Z</time>
      </trkpt>
      <trkpt lat="48.04135" lon="6.74805">
        <ele>782.6</ele>
        <time>2024-07-18T15:40:51Z</time>
      </trkpt>
      <trkpt lat="48.04129" lon="6.74782">
        <ele>781.2</ele>
        <time>2024-07-18T15:40:53Z</time>
      </trkpt>
      <trkpt lat="48.04123" lon="6.74758">
        <ele>779.7</ele>
        <time>2024-07-18T15:40:55Z</time>
      </trkpt>
      <trkpt lat="48.04116" lon="6.74732">
        <ele>778.1</ele>
        <time>2024-07-18T15:40:57Z</time>
      </trkpt>
      <trkpt lat="48.04113" lon="6.74719">
        <ele>777.2</ele>
        <time>2024-07-18T15:40:58Z</time>
      </trkpt>
      <trkpt lat="48.04109" lon="6.74704">
        <ele>776.3</ele>
        <time>2024-07-18T15:40:59Z</time>
      </trkpt>
      <trkpt lat="48.04106" lon="6.74689">
        <ele>775.3</ele>
        <time>2024-07-18T15:41:00Z</time>
      </trkpt>
      <trkpt lat="48.04102" lon="6.74675">
        <ele>774.4</ele>
        <time>2024-07-18T15:41:01Z</time>
      </trkpt>
      <trkpt lat="48.04098" lon="6.7466">
        <ele>773.5</ele>
        <time>2024-07-18T15:41:02Z</time>
      </trkpt>
      <trkpt lat="48.04095" lon="6.74644">
        <ele>772.5</ele>
        <time>2024-07-18T15:41:03Z</time>
      </trkpt>
      <trkpt lat="48.04092" lon="6.74628">
        <ele>771.6</ele>
        <time>2024-07-18T15:41:04Z</time>
      </trkpt>
      <trkpt lat="48.0409" lon="6.74611">
        <ele>770.7</ele>
        <time>2024-07-18T15:41:05Z</time>
      </trkpt>
      <trkpt lat="48.04089" lon="6.74595">
        <ele>769.8</ele>
        <time>2024-07-18T15:41:06Z</time>
      </trkpt>
      <trkpt lat="48.04087" lon="6.74579">
        <ele>768.9</ele>
        <time>2024-07-18T15:41:07Z</time>
      </trkpt>
      <trkpt lat="48.04085" lon="6.74562">
        <ele>767.9</ele>
        <time>2024-07-18T15:41:08Z</time>
      </trkpt>
      <trkpt lat="48.04085" lon="6.74546">
        <ele>766.8</ele>
        <time>2024-07-18T15:41:09Z</time>
      </trkpt>
      <trkpt lat="48.04085" lon="6.74529">
        <ele>765.7</ele>
        <time>2024-07-18T15:41:10Z</time>
      </trkpt>
      <trkpt lat="48.04085" lon="6.74511">
        <ele>764.6</ele>
        <time>2024-07-18T15:41:11Z</time>
      </trkpt>
      <trkpt lat="48.04085" lon="6.74493">
        <ele>763.5</ele>
        <time>2024-07-18T15:41:12Z</time>
      </trkpt>
      <trkpt lat="48.04084" lon="6.74474">
        <ele>762.5</ele>
        <time>2024-07-18T15:41:13Z</time>
      </trkpt>
      <trkpt lat="48.04082" lon="6.74456">
        <ele>761.4</ele>
        <time>2024-07-18T15:41:14Z</time>
      </trkpt>
      <trkpt lat="48.0408" lon="6.74437">
        <ele>760.3</ele>
        <time>2024-07-18T15:41:15Z</time>
      </trkpt>
      <trkpt lat="48.04077" lon="6.74419">
        <ele>759.1</ele>
        <time>2024-07-18T15:41:16Z</time>
      </trkpt>
      <trkpt lat="48.04073" lon="6.744">
        <ele>757.8</ele>
        <time>2024-07-18T15:41:17Z</time>
      </trkpt>
      <trkpt lat="48.04069" lon="6.74382">
        <ele>756.5</ele>
        <time>2024-07-18T15:41:18Z</time>
      </trkpt>
      <trkpt lat="48.04064" lon="6.74365">
        <ele>755.4</ele>
        <time>2024-07-18T15:41:19Z</time>
      </trkpt>
      <trkpt lat="48.04057" lon="6.74347">
        <ele>754.2</ele>
        <time>2024-07-18T15:41:20Z</time>
      </trkpt>
      <trkpt lat="48.0405" lon="6.7433">
        <ele>753.1</ele>
        <time>2024-07-18T15:41:21Z</time>
      </trkpt>
      <trkpt lat="48.04043" lon="6.74314">
        <ele>752</ele>
        <time>2024-07-18T15:41:22Z</time>
      </trkpt>
      <trkpt lat="48.04036" lon="6.74298">
        <ele>750.8</ele>
        <time>2024-07-18T15:41:23Z</time>
      </trkpt>
      <trkpt lat="48.04028" lon="6.74282">
        <ele>749.7</ele>
        <time>2024-07-18T15:41:24Z</time>
      </trkpt>
      <trkpt lat="48.04021" lon="6.74265">
        <ele>748.6</ele>
        <time>2024-07-18T15:41:25Z</time>
      </trkpt>
      <trkpt lat="48.04015" lon="6.74247">
        <ele>747.5</ele>
        <time>2024-07-18T15:41:26Z</time>
      </trkpt>
      <trkpt lat="48.04009" lon="6.7423">
        <ele>746.4</ele>
        <time>2024-07-18T15:41:27Z</time>
      </trkpt>
      <trkpt lat="48.04004" lon="6.74214">
        <ele>745.4</ele>
        <time>2024-07-18T15:41:28Z</time>
      </trkpt>
      <trkpt lat="48.04" lon="6.74198">
        <ele>744.3</ele>
        <time>2024-07-18T15:41:29Z</time>
      </trkpt>
      <trkpt lat="48.03997" lon="6.74182">
        <ele>743.3</ele>
        <time>2024-07-18T15:41:30Z</time>
      </trkpt>
      <trkpt lat="48.03995" lon="6.74165">
        <ele>742.3</ele>
        <time>2024-07-18T15:41:31Z</time>
      </trkpt>
      <trkpt lat="48.03993" lon="6.74146">
        <ele>741.3</ele>
        <time>2024-07-18T15:41:32Z</time>
      </trkpt>
      <trkpt lat="48.03992" lon="6.74128">
        <ele>740.3</ele>
        <time>2024-07-18T15:41:33Z</time>
      </trkpt>
      <trkpt lat="48.03991" lon="6.74109">
        <ele>739.2</ele>
        <time>2024-07-18T15:41:34Z</time>
      </trkpt>
      <trkpt lat="48.0399" lon="6.7409">
        <ele>738.2</ele>
        <time>2024-07-18T15:41:35Z</time>
      </trkpt>
      <trkpt lat="48.0399" lon="6.74071">
        <ele>737.1</ele>
        <time>2024-07-18T15:41:36Z</time>
      </trkpt>
      <trkpt lat="48.03989" lon="6.74052">
        <ele>735.9</ele>
        <time>2024-07-18T15:41:37Z</time>
      </trkpt>
      <trkpt lat="48.03988" lon="6.74034">
        <ele>734.9</ele>
        <time>2024-07-18T15:41:38Z</time>
      </trkpt>
      <trkpt lat="48.03986" lon="6.74016">
        <ele>733.8</ele>
        <time>2024-07-18T15:41:39Z</time>
      </trkpt>
      <trkpt lat="48.03986" lon="6.73996">
        <ele>732.7</ele>
        <time>2024-07-18T15:41:40Z</time>
      </trkpt>
      <trkpt lat="48.03987" lon="6.73975">
        <ele>731.6</ele>
        <time>2024-07-18T15:41:41Z</time>
      </trkpt>
      <trkpt lat="48.0399" lon="6.73954">
        <ele>730.7</ele>
        <time>2024-07-18T15:41:42Z</time>
      </trkpt>
      <trkpt lat="48.03995" lon="6.73935">
        <ele>729.8</ele>
        <time>2024-07-18T15:41:43Z</time>
      </trkpt>
      <trkpt lat="48.03999" lon="6.73916">
        <ele>729</ele>
        <time>2024-07-18T15:41:44Z</time>
      </trkpt>
      <trkpt lat="48.04004" lon="6.73897">
        <ele>728.2</ele>
        <time>2024-07-18T15:41:45Z</time>
      </trkpt>
      <trkpt lat="48.04009" lon="6.73879">
        <ele>727.4</ele>
        <time>2024-07-18T15:41:46Z</time>
      </trkpt>
      <trkpt lat="48.04014" lon="6.73861">
        <ele>726.6</ele>
        <time>2024-07-18T15:41:47Z</time>
      </trkpt>
      <trkpt lat="48.04018" lon="6.73844">
        <ele>725.9</ele>
        <time>2024-07-18T15:41:48Z</time>
      </trkpt>
      <trkpt lat="48.04022" lon="6.73826">
        <ele>725.2</ele>
        <time>2024-07-18T15:41:49Z</time>
      </trkpt>
      <trkpt lat="48.04024" lon="6.73808">
        <ele>724.5</ele>
        <time>2024-07-18T15:41:50Z</time>
      </trkpt>
      <trkpt lat="48.04025" lon="6.7379">
        <ele>723.8</ele>
        <time>2024-07-18T15:41:51Z</time>
      </trkpt>
      <trkpt lat="48.04025" lon="6.73773">
        <ele>723.1</ele>
        <time>2024-07-18T15:41:52Z</time>
      </trkpt>
      <trkpt lat="48.04022" lon="6.73757">
        <ele>722.5</ele>
        <time>2024-07-18T15:41:53Z</time>
      </trkpt>
      <trkpt lat="48.04017" lon="6.73743">
        <ele>721.8</ele>
        <time>2024-07-18T15:41:54Z</time>
      </trkpt>
      <trkpt lat="48.0401" lon="6.73731">
        <ele>721.1</ele>
        <time>2024-07-18T15:41:55Z</time>
      </trkpt>
      <trkpt lat="48.04" lon="6.73722">
        <ele>720.2</ele>
        <time>2024-07-18T15:41:56Z</time>
      </trkpt>
      <trkpt lat="48.0399" lon="6.73714">
        <ele>719.4</ele>
        <time>2024-07-18T15:41:57Z</time>
      </trkpt>
      <trkpt lat="48.0398" lon="6.7371">
        <ele>718.6</ele>
        <time>2024-07-18T15:41:58Z</time>
      </trkpt>
      <trkpt lat="48.03969" lon="6.73708">
        <ele>717.5</ele>
        <time>2024-07-18T15:41:59Z</time>
      </trkpt>
      <trkpt lat="48.03958" lon="6.73708">
        <ele>716.6</ele>
        <time>2024-07-18T15:42:00Z</time>
      </trkpt>
      <trkpt lat="48.03948" lon="6.73707">
        <ele>715.7</ele>
        <time>2024-07-18T15:42:01Z</time>
      </trkpt>
      <trkpt lat="48.03937" lon="6.73705">
        <ele>714.9</ele>
        <time>2024-07-18T15:42:02Z</time>
      </trkpt>
      <trkpt lat="48.03926" lon="6.737">
        <ele>714</ele>
        <time>2024-07-18T15:42:03Z</time>
      </trkpt>
      <trkpt lat="48.03915" lon="6.73695">
        <ele>713.3</ele>
        <time>2024-07-18T15:42:04Z</time>
      </trkpt>
      <trkpt lat="48.03905" lon="6.73689">
        <ele>712.6</ele>
        <time>2024-07-18T15:42:05Z</time>
      </trkpt>
      <trkpt lat="48.03896" lon="6.73682">
        <ele>712</ele>
        <time>2024-07-18T15:42:06Z</time>
      </trkpt>
      <trkpt lat="48.03888" lon="6.73673">
        <ele>711.4</ele>
        <time>2024-07-18T15:42:07Z</time>
      </trkpt>
      <trkpt lat="48.03881" lon="6.73663">
        <ele>710.9</ele>
        <time>2024-07-18T15:42:08Z</time>
      </trkpt>
      <trkpt lat="48.03873" lon="6.7364">
        <ele>710</ele>
        <time>2024-07-18T15:42:10Z</time>
      </trkpt>
      <trkpt lat="48.0387" lon="6.73626">
        <ele>709.7</ele>
        <time>2024-07-18T15:42:11Z</time>
      </trkpt>
      <trkpt lat="48.03868" lon="6.73601">
        <ele>709</ele>
        <time>2024-07-18T15:42:13Z</time>
      </trkpt>
      <trkpt lat="48.03868" lon="6.73587">
        <ele>708.7</ele>
        <time>2024-07-18T15:42:14Z</time>
      </trkpt>
      <trkpt lat="48.03868" lon="6.73572">
        <ele>708.3</ele>
        <time>2024-07-18T15:42:15Z</time>
      </trkpt>
      <trkpt lat="48.03869" lon="6.73558">
        <ele>707.9</ele>
        <time>2024-07-18T15:42:16Z</time>
      </trkpt>
      <trkpt lat="48.03869" lon="6.73544">
        <ele>707.5</ele>
        <time>2024-07-18T15:42:17Z</time>
      </trkpt>
      <trkpt lat="48.03871" lon="6.73518">
        <ele>706.7</ele>
        <time>2024-07-18T15:42:19Z</time>
      </trkpt>
      <trkpt lat="48.03874" lon="6.73495">
        <ele>705.9</ele>
        <time>2024-07-18T15:42:21Z</time>
      </trkpt>
      <trkpt lat="48.03879" lon="6.73471">
        <ele>704.9</ele>
        <time>2024-07-18T15:42:23Z</time>
      </trkpt>
      <trkpt lat="48.03883" lon="6.73446">
        <ele>703.5</ele>
        <time>2024-07-18T15:42:25Z</time>
      </trkpt>
      <trkpt lat="48.03883" lon="6.73429">
        <ele>702.6</ele>
        <time>2024-07-18T15:42:26Z</time>
      </trkpt>
      <trkpt lat="48.03884" lon="6.73413">
        <ele>701.7</ele>
        <time>2024-07-18T15:42:27Z</time>
      </trkpt>
      <trkpt lat="48.03885" lon="6.73397">
        <ele>700.8</ele>
        <time>2024-07-18T15:42:28Z</time>
      </trkpt>
      <trkpt lat="48.03886" lon="6.73383">
        <ele>700</ele>
        <time>2024-07-18T15:42:29Z</time>
      </trkpt>
      <trkpt lat="48.03887" lon="6.73368">
        <ele>699.2</ele>
        <time>2024-07-18T15:42:30Z</time>
      </trkpt>
      <trkpt lat="48.03888" lon="6.73354">
        <ele>698.4</ele>
        <time>2024-07-18T15:42:31Z</time>
      </trkpt>
      <trkpt lat="48.03889" lon="6.7334">
        <ele>697.7</ele>
        <time>2024-07-18T15:42:32Z</time>
      </trkpt>
      <trkpt lat="48.03889" lon="6.73324">
        <ele>696.9</ele>
        <time>2024-07-18T15:42:33Z</time>
      </trkpt>
      <trkpt lat="48.03889" lon="6.73308">
        <ele>696</ele>
        <time>2024-07-18T15:42:34Z</time>
      </trkpt>
      <trkpt lat="48.03889" lon="6.73292">
        <ele>695.2</ele>
        <time>2024-07-18T15:42:35Z</time>
      </trkpt>
      <trkpt lat="48.03889" lon="6.73276">
        <ele>694.3</ele>
        <time>2024-07-18T15:42:36Z</time>
      </trkpt>
      <trkpt lat="48.03888" lon="6.73259">
        <ele>693.4</ele>
        <time>2024-07-18T15:42:37Z</time>
      </trkpt>
      <trkpt lat="48.03888" lon="6.73243">
        <ele>692.5</ele>
        <time>2024-07-18T15:42:38Z</time>
      </trkpt>
      <trkpt lat="48.03887" lon="6.73226">
        <ele>691.6</ele>
        <time>2024-07-18T15:42:39Z</time>
      </trkpt>
      <trkpt lat="48.03885" lon="6.73206">
        <ele>690.5</ele>
        <time>2024-07-18T15:42:40Z</time>
      </trkpt>
      <trkpt lat="48.03882" lon="6.73188">
        <ele>689.5</ele>
        <time>2024-07-18T15:42:41Z</time>
      </trkpt>
      <trkpt lat="48.03877" lon="6.73167">
        <ele>688.5</ele>
        <time>2024-07-18T15:42:42Z</time>
      </trkpt>
      <trkpt lat="48.03871" lon="6.73154">
        <ele>687.6</ele>
        <time>2024-07-18T15:42:43Z</time>
      </trkpt>
      <trkpt lat="48.03863" lon="6.73142">
        <ele>686.7</ele>
        <time>2024-07-18T15:42:44Z</time>
      </trkpt>
      <trkpt lat="48.03852" lon="6.73131">
        <ele>685.5</ele>
        <time>2024-07-18T15:42:45Z</time>
      </trkpt>
      <trkpt lat="48.03841" lon="6.73122">
        <ele>684.2</ele>
        <time>2024-07-18T15:42:46Z</time>
      </trkpt>
      <trkpt lat="48.03831" lon="6.73115">
        <ele>683</ele>
        <time>2024-07-18T15:42:47Z</time>
      </trkpt>
      <trkpt lat="48.0382" lon="6.73111">
        <ele>681.6</ele>
        <time>2024-07-18T15:42:48Z</time>
      </trkpt>
      <trkpt lat="48.03809" lon="6.73106">
        <ele>680.2</ele>
        <time>2024-07-18T15:42:49Z</time>
      </trkpt>
      <trkpt lat="48.03799" lon="6.73105">
        <ele>679</ele>
        <time>2024-07-18T15:42:50Z</time>
      </trkpt>
      <trkpt lat="48.0379" lon="6.73106">
        <ele>677.9</ele>
        <time>2024-07-18T15:42:51Z</time>
      </trkpt>
      <trkpt lat="48.03775" lon="6.73105">
        <ele>676.1</ele>
        <time>2024-07-18T15:42:53Z</time>
      </trkpt>
      <trkpt lat="48.03762" lon="6.73093">
        <ele>674.2</ele>
        <time>2024-07-18T15:42:55Z</time>
      </trkpt>
      <trkpt lat="48.03751" lon="6.73074">
        <ele>672</ele>
        <time>2024-07-18T15:42:57Z</time>
      </trkpt>
      <trkpt lat="48.03742" lon="6.73055">
        <ele>670.2</ele>
        <time>2024-07-18T15:42:59Z</time>
      </trkpt>
      <trkpt lat="48.03736" lon="6.73041">
        <ele>668.7</ele>
        <time>2024-07-18T15:43:01Z</time>
      </trkpt>
      <trkpt lat="48.0373" lon="6.73027">
        <ele>667.5</ele>
        <time>2024-07-18T15:43:03Z</time>
      </trkpt>
      <trkpt lat="48.03724" lon="6.73009">
        <ele>666</ele>
        <time>2024-07-18T15:43:06Z</time>
      </trkpt>
      <trkpt lat="48.0372" lon="6.72993">
        <ele>664.8</ele>
        <time>2024-07-18T15:43:08Z</time>
      </trkpt>
      <trkpt lat="48.03717" lon="6.72977">
        <ele>663.6</ele>
        <time>2024-07-18T15:43:10Z</time>
      </trkpt>
      <trkpt lat="48.03714" lon="6.72959">
        <ele>662.3</ele>
        <time>2024-07-18T15:43:13Z</time>
      </trkpt>
      <trkpt lat="48.03708" lon="6.72944">
        <ele>661</ele>
        <time>2024-07-18T15:43:17Z</time>
      </trkpt>
      <trkpt lat="48.03699" lon="6.72945">
        <ele>660.8</ele>
        <time>2024-07-18T15:43:20Z</time>
      </trkpt>
      <trkpt lat="48.03693" lon="6.7296">
        <ele>659.1</ele>
        <time>2024-07-18T15:43:22Z</time>
      </trkpt>
      <trkpt lat="48.0369" lon="6.72981">
        <ele>657.8</ele>
        <time>2024-07-18T15:43:24Z</time>
      </trkpt>
      <trkpt lat="48.03688" lon="6.73004">
        <ele>656.6</ele>
        <time>2024-07-18T15:43:26Z</time>
      </trkpt>
      <trkpt lat="48.03687" lon="6.73028">
        <ele>655.4</ele>
        <time>2024-07-18T15:43:28Z</time>
      </trkpt>
      <trkpt lat="48.03688" lon="6.73054">
        <ele>654.1</ele>
        <time>2024-07-18T15:43:30Z</time>
      </trkpt>
      <trkpt lat="48.03688" lon="6.7308">
        <ele>652.5</ele>
        <time>2024-07-18T15:43:32Z</time>
      </trkpt>
      <trkpt lat="48.03689" lon="6.73106">
        <ele>650.8</ele>
        <time>2024-07-18T15:43:34Z</time>
      </trkpt>
      <trkpt lat="48.0369" lon="6.7312">
        <ele>649.9</ele>
        <time>2024-07-18T15:43:35Z</time>
      </trkpt>
      <trkpt lat="48.03692" lon="6.73134">
        <ele>649.2</ele>
        <time>2024-07-18T15:43:36Z</time>
      </trkpt>
      <trkpt lat="48.03696" lon="6.73147">
        <ele>648.6</ele>
        <time>2024-07-18T15:43:37Z</time>
      </trkpt>
      <trkpt lat="48.03702" lon="6.73159">
        <ele>648</ele>
        <time>2024-07-18T15:43:38Z</time>
      </trkpt>
      <trkpt lat="48.03709" lon="6.73171">
        <ele>647.6</ele>
        <time>2024-07-18T15:43:39Z</time>
      </trkpt>
      <trkpt lat="48.03716" lon="6.73184">
        <ele>647.1</ele>
        <time>2024-07-18T15:43:40Z</time>
      </trkpt>
      <trkpt lat="48.03722" lon="6.73196">
        <ele>646.6</ele>
        <time>2024-07-18T15:43:41Z</time>
      </trkpt>
      <trkpt lat="48.03727" lon="6.73208">
        <ele>646.1</ele>
        <time>2024-07-18T15:43:42Z</time>
      </trkpt>
      <trkpt lat="48.0373" lon="6.73221">
        <ele>645.5</ele>
        <time>2024-07-18T15:43:43Z</time>
      </trkpt>
      <trkpt lat="48.03732" lon="6.73235">
        <ele>644.9</ele>
        <time>2024-07-18T15:43:44Z</time>
      </trkpt>
      <trkpt lat="48.0373" lon="6.73262">
        <ele>643.8</ele>
        <time>2024-07-18T15:43:46Z</time>
      </trkpt>
      <trkpt lat="48.03728" lon="6.73275">
        <ele>643.2</ele>
        <time>2024-07-18T15:43:47Z</time>
      </trkpt>
      <trkpt lat="48.03725" lon="6.73289">
        <ele>642.6</ele>
        <time>2024-07-18T15:43:48Z</time>
      </trkpt>
      <trkpt lat="48.03721" lon="6.73303">
        <ele>642.1</ele>
        <time>2024-07-18T15:43:49Z</time>
      </trkpt>
      <trkpt lat="48.03718" lon="6.73316">
        <ele>641.7</ele>
        <time>2024-07-18T15:43:50Z</time>
      </trkpt>
      <trkpt lat="48.03713" lon="6.73329">
        <ele>641.2</ele>
        <time>2024-07-18T15:43:51Z</time>
      </trkpt>
      <trkpt lat="48.03709" lon="6.73343">
        <ele>640.6</ele>
        <time>2024-07-18T15:43:52Z</time>
      </trkpt>
      <trkpt lat="48.03704" lon="6.73357">
        <ele>640</ele>
        <time>2024-07-18T15:43:53Z</time>
      </trkpt>
      <trkpt lat="48.03699" lon="6.7337">
        <ele>639.2</ele>
        <time>2024-07-18T15:43:54Z</time>
      </trkpt>
      <trkpt lat="48.03693" lon="6.73383">
        <ele>638.3</ele>
        <time>2024-07-18T15:43:55Z</time>
      </trkpt>
      <trkpt lat="48.03686" lon="6.73395">
        <ele>637.4</ele>
        <time>2024-07-18T15:43:56Z</time>
      </trkpt>
      <trkpt lat="48.0368" lon="6.73406">
        <ele>636.5</ele>
        <time>2024-07-18T15:43:57Z</time>
      </trkpt>
      <trkpt lat="48.03674" lon="6.73418">
        <ele>635.5</ele>
        <time>2024-07-18T15:43:58Z</time>
      </trkpt>
      <trkpt lat="48.03666" lon="6.73431">
        <ele>634.4</ele>
        <time>2024-07-18T15:43:59Z</time>
      </trkpt>
      <trkpt lat="48.03659" lon="6.73444">
        <ele>633.3</ele>
        <time>2024-07-18T15:44:00Z</time>
      </trkpt>
      <trkpt lat="48.03651" lon="6.73458">
        <ele>632.2</ele>
        <time>2024-07-18T15:44:01Z</time>
      </trkpt>
      <trkpt lat="48.03643" lon="6.73472">
        <ele>631.1</ele>
        <time>2024-07-18T15:44:02Z</time>
      </trkpt>
      <trkpt lat="48.03635" lon="6.73486">
        <ele>630.2</ele>
        <time>2024-07-18T15:44:03Z</time>
      </trkpt>
      <trkpt lat="48.03626" lon="6.735">
        <ele>629.2</ele>
        <time>2024-07-18T15:44:04Z</time>
      </trkpt>
      <trkpt lat="48.03617" lon="6.73513">
        <ele>628</ele>
        <time>2024-07-18T15:44:05Z</time>
      </trkpt>
      <trkpt lat="48.03608" lon="6.73525">
        <ele>626.9</ele>
        <time>2024-07-18T15:44:06Z</time>
      </trkpt>
      <trkpt lat="48.03599" lon="6.73538">
        <ele>625.6</ele>
        <time>2024-07-18T15:44:07Z</time>
      </trkpt>
      <trkpt lat="48.03591" lon="6.73549">
        <ele>624.4</ele>
        <time>2024-07-18T15:44:08Z</time>
      </trkpt>
      <trkpt lat="48.03584" lon="6.7356">
        <ele>623.4</ele>
        <time>2024-07-18T15:44:09Z</time>
      </trkpt>
      <trkpt lat="48.03572" lon="6.73577">
        <ele>621.5</ele>
        <time>2024-07-18T15:44:11Z</time>
      </trkpt>
      <trkpt lat="48.03563" lon="6.7359">
        <ele>620</ele>
        <time>2024-07-18T15:44:13Z</time>
      </trkpt>
      <trkpt lat="48.03554" lon="6.73602">
        <ele>618.4</ele>
        <time>2024-07-18T15:44:16Z</time>
      </trkpt>
      <trkpt lat="48.03547" lon="6.73613">
        <ele>617.1</ele>
        <time>2024-07-18T15:44:19Z</time>
      </trkpt>
      <trkpt lat="48.0354" lon="6.73623">
        <ele>615.8</ele>
        <time>2024-07-18T15:44:22Z</time>
      </trkpt>
      <trkpt lat="48.03531" lon="6.73632">
        <ele>614.2</ele>
        <time>2024-07-18T15:44:26Z</time>
      </trkpt>
      <trkpt lat="48.0352" lon="6.7363">
        <ele>612.7</ele>
        <time>2024-07-18T15:44:29Z</time>
      </trkpt>
      <trkpt lat="48.03515" lon="6.73619">
        <ele>611.1</ele>
        <time>2024-07-18T15:44:31Z</time>
      </trkpt>
      <trkpt lat="48.0351" lon="6.73599">
        <ele>608.8</ele>
        <time>2024-07-18T15:44:33Z</time>
      </trkpt>
      <trkpt lat="48.03503" lon="6.73574">
        <ele>606.2</ele>
        <time>2024-07-18T15:44:35Z</time>
      </trkpt>
      <trkpt lat="48.03499" lon="6.73561">
        <ele>604.8</ele>
        <time>2024-07-18T15:44:36Z</time>
      </trkpt>
      <trkpt lat="48.03494" lon="6.73547">
        <ele>603.4</ele>
        <time>2024-07-18T15:44:37Z</time>
      </trkpt>
      <trkpt lat="48.0349" lon="6.73532">
        <ele>601.9</ele>
        <time>2024-07-18T15:44:38Z</time>
      </trkpt>
      <trkpt lat="48.03485" lon="6.73516">
        <ele>600.5</ele>
        <time>2024-07-18T15:44:39Z</time>
      </trkpt>
      <trkpt lat="48.0348" lon="6.735">
        <ele>599.1</ele>
        <time>2024-07-18T15:44:40Z</time>
      </trkpt>
      <trkpt lat="48.03475" lon="6.73484">
        <ele>597.9</ele>
        <time>2024-07-18T15:44:41Z</time>
      </trkpt>
      <trkpt lat="48.03468" lon="6.73467">
        <ele>596.9</ele>
        <time>2024-07-18T15:44:42Z</time>
      </trkpt>
      <trkpt lat="48.03461" lon="6.73451">
        <ele>596.1</ele>
        <time>2024-07-18T15:44:43Z</time>
      </trkpt>
      <trkpt lat="48.03452" lon="6.73437">
        <ele>595.4</ele>
        <time>2024-07-18T15:44:44Z</time>
      </trkpt>
      <trkpt lat="48.03442" lon="6.73426">
        <ele>594.8</ele>
        <time>2024-07-18T15:44:45Z</time>
      </trkpt>
      <trkpt lat="48.03432" lon="6.73416">
        <ele>594.2</ele>
        <time>2024-07-18T15:44:46Z</time>
      </trkpt>
      <trkpt lat="48.03422" lon="6.73407">
        <ele>593.8</ele>
        <time>2024-07-18T15:44:47Z</time>
      </trkpt>
      <trkpt lat="48.03411" lon="6.73399">
        <ele>593.4</ele>
        <time>2024-07-18T15:44:48Z</time>
      </trkpt>
      <trkpt lat="48.03401" lon="6.73392">
        <ele>593.1</ele>
        <time>2024-07-18T15:44:49Z</time>
      </trkpt>
      <trkpt lat="48.03391" lon="6.73385">
        <ele>592.7</ele>
        <time>2024-07-18T15:44:50Z</time>
      </trkpt>
      <trkpt lat="48.03382" lon="6.73377">
        <ele>592.3</ele>
        <time>2024-07-18T15:44:51Z</time>
      </trkpt>
      <trkpt lat="48.03375" lon="6.73368">
        <ele>591.9</ele>
        <time>2024-07-18T15:44:52Z</time>
      </trkpt>
      <trkpt lat="48.03366" lon="6.73345">
        <ele>591.1</ele>
        <time>2024-07-18T15:44:54Z</time>
      </trkpt>
      <trkpt lat="48.03363" lon="6.73332">
        <ele>590.6</ele>
        <time>2024-07-18T15:44:55Z</time>
      </trkpt>
      <trkpt lat="48.03362" lon="6.73318">
        <ele>590</ele>
        <time>2024-07-18T15:44:56Z</time>
      </trkpt>
      <trkpt lat="48.03361" lon="6.73304">
        <ele>589.3</ele>
        <time>2024-07-18T15:44:57Z</time>
      </trkpt>
      <trkpt lat="48.03359" lon="6.7329">
        <ele>588.6</ele>
        <time>2024-07-18T15:44:58Z</time>
      </trkpt>
      <trkpt lat="48.03358" lon="6.73276">
        <ele>587.8</ele>
        <time>2024-07-18T15:44:59Z</time>
      </trkpt>
      <trkpt lat="48.03357" lon="6.73263">
        <ele>586.9</ele>
        <time>2024-07-18T15:45:00Z</time>
      </trkpt>
      <trkpt lat="48.03354" lon="6.73239">
        <ele>585.2</ele>
        <time>2024-07-18T15:45:02Z</time>
      </trkpt>
      <trkpt lat="48.03352" lon="6.7322">
        <ele>583.7</ele>
        <time>2024-07-18T15:45:04Z</time>
      </trkpt>
      <trkpt lat="48.03347" lon="6.73201">
        <ele>581.8</ele>
        <time>2024-07-18T15:45:06Z</time>
      </trkpt>
      <trkpt lat="48.03336" lon="6.73182">
        <ele>579.5</ele>
        <time>2024-07-18T15:45:08Z</time>
      </trkpt>
      <trkpt lat="48.0333" lon="6.73172">
        <ele>578.2</ele>
        <time>2024-07-18T15:45:09Z</time>
      </trkpt>
      <trkpt lat="48.03323" lon="6.73162">
        <ele>576.9</ele>
        <time>2024-07-18T15:45:10Z</time>
      </trkpt>
      <trkpt lat="48.03314" lon="6.73153">
        <ele>575.6</ele>
        <time>2024-07-18T15:45:11Z</time>
      </trkpt>
      <trkpt lat="48.03306" lon="6.73145">
        <ele>574.3</ele>
        <time>2024-07-18T15:45:12Z</time>
      </trkpt>
      <trkpt lat="48.03298" lon="6.73137">
        <ele>573.2</ele>
        <time>2024-07-18T15:45:13Z</time>
      </trkpt>
      <trkpt lat="48.0329" lon="6.7313">
        <ele>572.1</ele>
        <time>2024-07-18T15:45:14Z</time>
      </trkpt>
      <trkpt lat="48.03276" lon="6.73118">
        <ele>570.2</ele>
        <time>2024-07-18T15:45:16Z</time>
      </trkpt>
      <trkpt lat="48.03262" lon="6.73105">
        <ele>568.5</ele>
        <time>2024-07-18T15:45:18Z</time>
      </trkpt>
      <trkpt lat="48.03252" lon="6.73096">
        <ele>567.6</ele>
        <time>2024-07-18T15:45:20Z</time>
      </trkpt>
      <trkpt lat="48.03241" lon="6.73087">
        <ele>566.9</ele>
        <time>2024-07-18T15:45:23Z</time>
      </trkpt>
      <trkpt lat="48.03233" lon="6.73079">
        <ele>566.5</ele>
        <time>2024-07-18T15:45:26Z</time>
      </trkpt>
      <trkpt lat="48.03222" lon="6.7308">
        <ele>566.2</ele>
        <time>2024-07-18T15:45:30Z</time>
      </trkpt>
      <trkpt lat="48.0322" lon="6.73093">
        <ele>565.6</ele>
        <time>2024-07-18T15:45:34Z</time>
      </trkpt>
      <trkpt lat="48.03219" lon="6.73098">
        <ele>565.3</ele>
        <time>2024-07-18T15:45:46Z</time>
      </trkpt>
      <trkpt lat="48.03219" lon="6.73098">
        <ele>565.3</ele>
        <time>2024-07-18T15:45:47Z</time>
      </trkpt>
      <trkpt lat="48.03219" lon="6.73099">
        <ele>565.3</ele>
        <time>2024-07-18T15:45:48Z</time>
      </trkpt>
      <trkpt lat="48.03219" lon="6.73099">
        <ele>565.3</ele>
        <time>2024-07-18T15:45:49Z</time>
      </trkpt>
      <trkpt lat="48.03219" lon="6.73099">
        <ele>565.3</ele>
        <time>2024-07-18T15:45:50Z</time>
      </trkpt>
      <trkpt lat="48.03219" lon="6.73099">
        <ele>565.3</ele>
        <time>2024-07-18T15:45:56Z</time>
      </trkpt>
      <trkpt lat="48.03219" lon="6.73099">
        <ele>565.3</ele>
        <time>2024-07-18T15:45:57Z</time>
      </trkpt>
      <trkpt lat="48.03219" lon="6.73099">
        <ele>565.3</ele>
        <time>2024-07-18T15:45:58Z</time>
      </trkpt>
      <trkpt lat="48.03219" lon="6.73098">
        <ele>565.2</ele>
        <time>2024-07-18T15:46:01Z</time>
      </trkpt>
      <trkpt lat="48.03219" lon="6.73098">
        <ele>565.2</ele>
        <time>2024-07-18T15:46:02Z</time>
      </trkpt>
      <trkpt lat="48.03219" lon="6.73098">
        <ele>565.2</ele>
        <time>2024-07-18T15:46:03Z</time>
      </trkpt>
      <trkpt lat="48.03219" lon="6.73098">
        <ele>565.2</ele>
        <time>2024-07-18T15:46:04Z</time>
      </trkpt>
      <trkpt lat="48.03219" lon="6.73098">
        <ele>565.2</ele>
        <time>2024-07-18T15:46:05Z</time>
      </trkpt>
      <trkpt lat="48.03219" lon="6.73098">
        <ele>565.2</ele>
        <time>2024-07-18T15:47:16Z</time>
      </trkpt>
      <trkpt lat="48.03219" lon="6.73098">
        <ele>565.2</ele>
        <time>2024-07-18T15:47:17Z</time>
      </trkpt>
      <trkpt lat="48.03219" lon="6.73098">
        <ele>565.2</ele>
        <time>2024-07-18T15:47:18Z</time>
      </trkpt>
      <trkpt lat="48.03219" lon="6.73098">
        <ele>565.2</ele>
        <time>2024-07-18T15:47:19Z</time>
      </trkpt>
      <trkpt lat="48.03219" lon="6.73098">
        <ele>565.2</ele>
        <time>2024-07-18T15:47:20Z</time>
      </trkpt>
      <trkpt lat="48.0322" lon="6.73098">
        <ele>565.2</ele>
        <time>2024-07-18T15:47:35Z</time>
      </trkpt>
      <trkpt lat="48.0322" lon="6.73098">
        <ele>565.2</ele>
        <time>2024-07-18T15:47:36Z</time>
      </trkpt>
      <trkpt lat="48.0322" lon="6.73098">
        <ele>565.1</ele>
        <time>2024-07-18T15:47:37Z</time>
      </trkpt>
      <trkpt lat="48.03221" lon="6.73096">
        <ele>565.1</ele>
        <time>2024-07-18T15:47:51Z</time>
      </trkpt>
      <trkpt lat="48.03221" lon="6.73096">
        <ele>565</ele>
        <time>2024-07-18T15:47:52Z</time>
      </trkpt>
      <trkpt lat="48.03221" lon="6.73096">
        <ele>565</ele>
        <time>2024-07-18T15:47:53Z</time>
      </trkpt>
      <trkpt lat="48.03221" lon="6.73096">
        <ele>565</ele>
        <time>2024-07-18T15:47:54Z</time>
      </trkpt>
      <trkpt lat="48.03222" lon="6.73096">
        <ele>565</ele>
        <time>2024-07-18T15:47:55Z</time>
      </trkpt>
      <trkpt lat="48.03221" lon="6.73097">
        <ele>564.9</ele>
        <time>2024-07-18T15:47:59Z</time>
      </trkpt>
      <trkpt lat="48.03221" lon="6.73097">
        <ele>564.9</ele>
        <time>2024-07-18T15:48:00Z</time>
      </trkpt>
      <trkpt lat="48.03221" lon="6.73097">
        <ele>564.9</ele>
        <time>2024-07-18T15:48:01Z</time>
      </trkpt>
      <trkpt lat="48.03221" lon="6.73097">
        <ele>564.9</ele>
        <time>2024-07-18T15:48:02Z</time>
      </trkpt>
      <trkpt lat="48.03221" lon="6.73097">
        <ele>564.9</ele>
        <time>2024-07-18T15:48:03Z</time>
      </trkpt>
      <trkpt lat="48.03223" lon="6.73114">
        <ele>564.2</ele>
        <time>2024-07-18T15:48:09Z</time>
      </trkpt>
      <trkpt lat="48.03224" lon="6.7313">
        <ele>563.7</ele>
        <time>2024-07-18T15:48:12Z</time>
      </trkpt>
      <trkpt lat="48.03222" lon="6.73144">
        <ele>563.2</ele>
        <time>2024-07-18T15:48:15Z</time>
      </trkpt>
      <trkpt lat="48.0322" lon="6.73158">
        <ele>562.7</ele>
        <time>2024-07-18T15:48:18Z</time>
      </trkpt>
      <trkpt lat="48.03218" lon="6.73172">
        <ele>562.1</ele>
        <time>2024-07-18T15:48:21Z</time>
      </trkpt>
      <trkpt lat="48.03217" lon="6.73187">
        <ele>561.6</ele>
        <time>2024-07-18T15:48:24Z</time>
      </trkpt>
      <trkpt lat="48.03216" lon="6.73202">
        <ele>561</ele>
        <time>2024-07-18T15:48:27Z</time>
      </trkpt>
      <trkpt lat="48.03217" lon="6.73218">
        <ele>560.5</ele>
        <time>2024-07-18T15:48:30Z</time>
      </trkpt>
      <trkpt lat="48.03219" lon="6.73235">
        <ele>559.9</ele>
        <time>2024-07-18T15:48:33Z</time>
      </trkpt>
      <trkpt lat="48.03221" lon="6.73251">
        <ele>559.3</ele>
        <time>2024-07-18T15:48:36Z</time>
      </trkpt>
      <trkpt lat="48.03223" lon="6.73267">
        <ele>558.9</ele>
        <time>2024-07-18T15:48:39Z</time>
      </trkpt>
      <trkpt lat="48.03222" lon="6.73282">
        <ele>558.7</ele>
        <time>2024-07-18T15:48:42Z</time>
      </trkpt>
      <trkpt lat="48.03215" lon="6.73292">
        <ele>558.5</ele>
        <time>2024-07-18T15:48:45Z</time>
      </trkpt>
      <trkpt lat="48.03205" lon="6.73302">
        <ele>558.5</ele>
        <time>2024-07-18T15:48:49Z</time>
      </trkpt>
      <trkpt lat="48.03197" lon="6.7331">
        <ele>558.6</ele>
        <time>2024-07-18T15:48:52Z</time>
      </trkpt>
      <trkpt lat="48.03189" lon="6.73322">
        <ele>558.8</ele>
        <time>2024-07-18T15:48:56Z</time>
      </trkpt>
      <trkpt lat="48.03184" lon="6.73336">
        <ele>559.2</ele>
        <time>2024-07-18T15:49:00Z</time>
      </trkpt>
      <trkpt lat="48.03178" lon="6.7335">
        <ele>559.4</ele>
        <time>2024-07-18T15:49:04Z</time>
      </trkpt>
      <trkpt lat="48.03173" lon="6.73364">
        <ele>559.5</ele>
        <time>2024-07-18T15:49:08Z</time>
      </trkpt>
      <trkpt lat="48.03166" lon="6.73377">
        <ele>559.5</ele>
        <time>2024-07-18T15:49:12Z</time>
      </trkpt>
      <trkpt lat="48.03159" lon="6.73386">
        <ele>559.5</ele>
        <time>2024-07-18T15:49:15Z</time>
      </trkpt>
      <trkpt lat="48.03151" lon="6.73398">
        <ele>559.5</ele>
        <time>2024-07-18T15:49:19Z</time>
      </trkpt>
      <trkpt lat="48.03145" lon="6.73409">
        <ele>559.5</ele>
        <time>2024-07-18T15:49:22Z</time>
      </trkpt>
      <trkpt lat="48.03139" lon="6.7342">
        <ele>559.6</ele>
        <time>2024-07-18T15:49:25Z</time>
      </trkpt>
      <trkpt lat="48.03134" lon="6.73431">
        <ele>559.6</ele>
        <time>2024-07-18T15:49:28Z</time>
      </trkpt>
      <trkpt lat="48.03127" lon="6.73444">
        <ele>559.6</ele>
        <time>2024-07-18T15:49:32Z</time>
      </trkpt>
      <trkpt lat="48.03121" lon="6.73459">
        <ele>560.5</ele>
        <time>2024-07-18T15:49:36Z</time>
      </trkpt>
      <trkpt lat="48.03115" lon="6.73474">
        <ele>561.6</ele>
        <time>2024-07-18T15:49:40Z</time>
      </trkpt>
      <trkpt lat="48.03108" lon="6.73488">
        <ele>562.6</ele>
        <time>2024-07-18T15:49:44Z</time>
      </trkpt>
      <trkpt lat="48.03102" lon="6.73502">
        <ele>563.7</ele>
        <time>2024-07-18T15:49:48Z</time>
      </trkpt>
      <trkpt lat="48.03095" lon="6.73515">
        <ele>564.7</ele>
        <time>2024-07-18T15:49:52Z</time>
      </trkpt>
      <trkpt lat="48.0309" lon="6.73527">
        <ele>565.6</ele>
        <time>2024-07-18T15:49:55Z</time>
      </trkpt>
      <trkpt lat="48.03086" lon="6.73538">
        <ele>566.5</ele>
        <time>2024-07-18T15:49:58Z</time>
      </trkpt>
      <trkpt lat="48.03079" lon="6.73553">
        <ele>567.7</ele>
        <time>2024-07-18T15:50:02Z</time>
      </trkpt>
      <trkpt lat="48.03073" lon="6.73566">
        <ele>569</ele>
        <time>2024-07-18T15:50:06Z</time>
      </trkpt>
      <trkpt lat="48.03067" lon="6.73579">
        <ele>570.3</ele>
        <time>2024-07-18T15:50:10Z</time>
      </trkpt>
      <trkpt lat="48.03061" lon="6.73593">
        <ele>571.6</ele>
        <time>2024-07-18T15:50:15Z</time>
      </trkpt>
      <trkpt lat="48.03054" lon="6.73605">
        <ele>572.8</ele>
        <time>2024-07-18T15:50:20Z</time>
      </trkpt>
      <trkpt lat="48.03048" lon="6.73618">
        <ele>574</ele>
        <time>2024-07-18T15:50:25Z</time>
      </trkpt>
      <trkpt lat="48.03042" lon="6.7363">
        <ele>575</ele>
        <time>2024-07-18T15:50:30Z</time>
      </trkpt>
      <trkpt lat="48.03037" lon="6.7364">
        <ele>575.8</ele>
        <time>2024-07-18T15:50:35Z</time>
      </trkpt>
      <trkpt lat="48.03031" lon="6.73654">
        <ele>576.8</ele>
        <time>2024-07-18T15:50:41Z</time>
      </trkpt>
      <trkpt lat="48.03026" lon="6.73666">
        <ele>577.6</ele>
        <time>2024-07-18T15:50:46Z</time>
      </trkpt>
      <trkpt lat="48.03019" lon="6.73678">
        <ele>578.5</ele>
        <time>2024-07-18T15:50:51Z</time>
      </trkpt>
      <trkpt lat="48.03014" lon="6.7369">
        <ele>579.3</ele>
        <time>2024-07-18T15:50:56Z</time>
      </trkpt>
      <trkpt lat="48.0301" lon="6.73707">
        <ele>580.3</ele>
        <time>2024-07-18T15:51:00Z</time>
      </trkpt>
      <trkpt lat="48.03005" lon="6.73721">
        <ele>581.3</ele>
        <time>2024-07-18T15:51:04Z</time>
      </trkpt>
      <trkpt lat="48.03" lon="6.73734">
        <ele>582.1</ele>
        <time>2024-07-18T15:51:08Z</time>
      </trkpt>
      <trkpt lat="48.02996" lon="6.73748">
        <ele>582.6</ele>
        <time>2024-07-18T15:51:13Z</time>
      </trkpt>
      <trkpt lat="48.02993" lon="6.73763">
        <ele>583.1</ele>
        <time>2024-07-18T15:51:17Z</time>
      </trkpt>
      <trkpt lat="48.0299" lon="6.73779">
        <ele>583.7</ele>
        <time>2024-07-18T15:51:20Z</time>
      </trkpt>
      <trkpt lat="48.02987" lon="6.73793">
        <ele>584.1</ele>
        <time>2024-07-18T15:51:23Z</time>
      </trkpt>
      <trkpt lat="48.02986" lon="6.73807">
        <ele>584.6</ele>
        <time>2024-07-18T15:51:27Z</time>
      </trkpt>
      <trkpt lat="48.02983" lon="6.73823">
        <ele>585.2</ele>
        <time>2024-07-18T15:51:31Z</time>
      </trkpt>
      <trkpt lat="48.02976" lon="6.73837">
        <ele>585.9</ele>
        <time>2024-07-18T15:51:35Z</time>
      </trkpt>
      <trkpt lat="48.02966" lon="6.73847">
        <ele>586.9</ele>
        <time>2024-07-18T15:51:39Z</time>
      </trkpt>
      <trkpt lat="48.02958" lon="6.73854">
        <ele>587.7</ele>
        <time>2024-07-18T15:51:44Z</time>
      </trkpt>
      <trkpt lat="48.02957" lon="6.73869">
        <ele>588.3</ele>
        <time>2024-07-18T15:51:55Z</time>
      </trkpt>
      <trkpt lat="48.02956" lon="6.73884">
        <ele>588.9</ele>
        <time>2024-07-18T15:52:02Z</time>
      </trkpt>
      <trkpt lat="48.02954" lon="6.73898">
        <ele>589.5</ele>
        <time>2024-07-18T15:52:10Z</time>
      </trkpt>
      <trkpt lat="48.02953" lon="6.73913">
        <ele>590</ele>
        <time>2024-07-18T15:52:18Z</time>
      </trkpt>
      <trkpt lat="48.02953" lon="6.73927">
        <ele>590.5</ele>
        <time>2024-07-18T15:52:25Z</time>
      </trkpt>
      <trkpt lat="48.02952" lon="6.73941">
        <ele>591.1</ele>
        <time>2024-07-18T15:52:32Z</time>
      </trkpt>
      <trkpt lat="48.02952" lon="6.73956">
        <ele>591.7</ele>
        <time>2024-07-18T15:52:40Z</time>
      </trkpt>
      <trkpt lat="48.02952" lon="6.73971">
        <ele>592.4</ele>
        <time>2024-07-18T15:52:47Z</time>
      </trkpt>
      <trkpt lat="48.02951" lon="6.73986">
        <ele>593.1</ele>
        <time>2024-07-18T15:52:55Z</time>
      </trkpt>
      <trkpt lat="48.02953" lon="6.74001">
        <ele>593.8</ele>
        <time>2024-07-18T15:53:03Z</time>
      </trkpt>
      <trkpt lat="48.02954" lon="6.74015">
        <ele>594.5</ele>
        <time>2024-07-18T15:53:10Z</time>
      </trkpt>
      <trkpt lat="48.02953" lon="6.7403">
        <ele>595.2</ele>
        <time>2024-07-18T15:53:17Z</time>
      </trkpt>
      <trkpt lat="48.02953" lon="6.74044">
        <ele>596</ele>
        <time>2024-07-18T15:53:24Z</time>
      </trkpt>
      <trkpt lat="48.02954" lon="6.74059">
        <ele>596.8</ele>
        <time>2024-07-18T15:53:31Z</time>
      </trkpt>
      <trkpt lat="48.02954" lon="6.74073">
        <ele>597.6</ele>
        <time>2024-07-18T15:53:38Z</time>
      </trkpt>
      <trkpt lat="48.02954" lon="6.74088">
        <ele>598.4</ele>
        <time>2024-07-18T15:53:45Z</time>
      </trkpt>
      <trkpt lat="48.02953" lon="6.74103">
        <ele>599.3</ele>
        <time>2024-07-18T15:53:52Z</time>
      </trkpt>
      <trkpt lat="48.02952" lon="6.74117">
        <ele>600.1</ele>
        <time>2024-07-18T15:54:00Z</time>
      </trkpt>
      <trkpt lat="48.02948" lon="6.7413">
        <ele>600.8</ele>
        <time>2024-07-18T15:54:07Z</time>
      </trkpt>
      <trkpt lat="48.02946" lon="6.74145">
        <ele>601.6</ele>
        <time>2024-07-18T15:54:14Z</time>
      </trkpt>
      <trkpt lat="48.0294" lon="6.74158">
        <ele>602.3</ele>
        <time>2024-07-18T15:54:21Z</time>
      </trkpt>
      <trkpt lat="48.02936" lon="6.74172">
        <ele>602.9</ele>
        <time>2024-07-18T15:54:28Z</time>
      </trkpt>
      <trkpt lat="48.02932" lon="6.74184">
        <ele>603.5</ele>
        <time>2024-07-18T15:54:35Z</time>
      </trkpt>
      <trkpt lat="48.02929" lon="6.74198">
        <ele>604.1</ele>
        <time>2024-07-18T15:54:42Z</time>
      </trkpt>
      <trkpt lat="48.02928" lon="6.74209">
        <ele>604.7</ele>
        <time>2024-07-18T15:54:53Z</time>
      </trkpt>
      <trkpt lat="48.02928" lon="6.74209">
        <ele>604.7</ele>
        <time>2024-07-18T15:54:54Z</time>
      </trkpt>
      <trkpt lat="48.02927" lon="6.74211">
        <ele>604.8</ele>
        <time>2024-07-18T15:54:58Z</time>
      </trkpt>
      <trkpt lat="48.02927" lon="6.74212">
        <ele>604.9</ele>
        <time>2024-07-18T15:54:59Z</time>
      </trkpt>
      <trkpt lat="48.02929" lon="6.74217">
        <ele>605.2</ele>
        <time>2024-07-18T15:55:10Z</time>
      </trkpt>
      <trkpt lat="48.02929" lon="6.74217">
        <ele>605.2</ele>
        <time>2024-07-18T15:55:11Z</time>
      </trkpt>
      <trkpt lat="48.02929" lon="6.74217">
        <ele>605.2</ele>
        <time>2024-07-18T15:55:12Z</time>
      </trkpt>
      <trkpt lat="48.02928" lon="6.74217">
        <ele>605.3</ele>
        <time>2024-07-18T15:55:20Z</time>
      </trkpt>
      <trkpt lat="48.02927" lon="6.74217">
        <ele>605.3</ele>
        <time>2024-07-18T15:55:21Z</time>
      </trkpt>
      <trkpt lat="48.02927" lon="6.74217">
        <ele>605.3</ele>
        <time>2024-07-18T15:55:22Z</time>
      </trkpt>
      <trkpt lat="48.02925" lon="6.74211">
        <ele>605.7</ele>
        <time>2024-07-18T15:55:50Z</time>
      </trkpt>
      <trkpt lat="48.02925" lon="6.74211">
        <ele>605.7</ele>
        <time>2024-07-18T15:55:51Z</time>
      </trkpt>
      <trkpt lat="48.02925" lon="6.74211">
        <ele>605.7</ele>
        <time>2024-07-18T15:55:52Z</time>
      </trkpt>
      <trkpt lat="48.02928" lon="6.74215">
        <ele>606</ele>
        <time>2024-07-18T15:57:31Z</time>
      </trkpt>
      <trkpt lat="48.02928" lon="6.74215">
        <ele>606</ele>
        <time>2024-07-18T15:57:32Z</time>
      </trkpt>
      <trkpt lat="48.02928" lon="6.74212">
        <ele>606.2</ele>
        <time>2024-07-18T15:57:43Z</time>
      </trkpt>
      <trkpt lat="48.02927" lon="6.74212">
        <ele>606.2</ele>
        <time>2024-07-18T15:57:44Z</time>
      </trkpt>
      <trkpt lat="48.02927" lon="6.74212">
        <ele>606.2</ele>
        <time>2024-07-18T15:57:45Z</time>
      </trkpt>
      <trkpt lat="48.02927" lon="6.74212">
        <ele>606.3</ele>
        <time>2024-07-18T15:57:46Z</time>
      </trkpt>
      <trkpt lat="48.02922" lon="6.74224">
        <ele>607</ele>
        <time>2024-07-18T15:57:56Z</time>
      </trkpt>
      <trkpt lat="48.02918" lon="6.74236">
        <ele>607.7</ele>
        <time>2024-07-18T15:58:03Z</time>
      </trkpt>
      <trkpt lat="48.02914" lon="6.74249">
        <ele>608.4</ele>
        <time>2024-07-18T15:58:10Z</time>
      </trkpt>
      <trkpt lat="48.02909" lon="6.74261">
        <ele>609.2</ele>
        <time>2024-07-18T15:58:17Z</time>
      </trkpt>
      <trkpt lat="48.02907" lon="6.74275">
        <ele>610.3</ele>
        <time>2024-07-18T15:58:24Z</time>
      </trkpt>
      <trkpt lat="48.02906" lon="6.7429">
        <ele>611.4</ele>
        <time>2024-07-18T15:58:31Z</time>
      </trkpt>
      <trkpt lat="48.02905" lon="6.74303">
        <ele>612.3</ele>
        <time>2024-07-18T15:58:38Z</time>
      </trkpt>
      <trkpt lat="48.02904" lon="6.74317">
        <ele>613.2</ele>
        <time>2024-07-18T15:58:45Z</time>
      </trkpt>
      <trkpt lat="48.02905" lon="6.7433">
        <ele>614.2</ele>
        <time>2024-07-18T15:58:53Z</time>
      </trkpt>
      <trkpt lat="48.02905" lon="6.7433">
        <ele>614.2</ele>
        <time>2024-07-18T15:58:56Z</time>
      </trkpt>
      <trkpt lat="48.02905" lon="6.7433">
        <ele>614.2</ele>
        <time>2024-07-18T15:58:57Z</time>
      </trkpt>
      <trkpt lat="48.02906" lon="6.7433">
        <ele>614.2</ele>
        <time>2024-07-18T15:58:58Z</time>
      </trkpt>
      <trkpt lat="48.02905" lon="6.74331">
        <ele>614.3</ele>
        <time>2024-07-18T15:59:04Z</time>
      </trkpt>
      <trkpt lat="48.02905" lon="6.74332">
        <ele>614.4</ele>
        <time>2024-07-18T15:59:05Z</time>
      </trkpt>
      <trkpt lat="48.02901" lon="6.74346">
        <ele>615.5</ele>
        <time>2024-07-18T15:59:13Z</time>
      </trkpt>
      <trkpt lat="48.02899" lon="6.7436">
        <ele>616.6</ele>
        <time>2024-07-18T15:59:21Z</time>
      </trkpt>
      <trkpt lat="48.02896" lon="6.74374">
        <ele>617.6</ele>
        <time>2024-07-18T15:59:29Z</time>
      </trkpt>
      <trkpt lat="48.02892" lon="6.74387">
        <ele>618.7</ele>
        <time>2024-07-18T15:59:36Z</time>
      </trkpt>
      <trkpt lat="48.02886" lon="6.74398">
        <ele>619.7</ele>
        <time>2024-07-18T15:59:43Z</time>
      </trkpt>
      <trkpt lat="48.02886" lon="6.74413">
        <ele>620.7</ele>
        <time>2024-07-18T15:59:50Z</time>
      </trkpt>
      <trkpt lat="48.02884" lon="6.74427">
        <ele>621.7</ele>
        <time>2024-07-18T15:59:59Z</time>
      </trkpt>
      <trkpt lat="48.02879" lon="6.74439">
        <ele>622.6</ele>
        <time>2024-07-18T16:00:07Z</time>
      </trkpt>
      <trkpt lat="48.02879" lon="6.74453">
        <ele>623.3</ele>
        <time>2024-07-18T16:00:13Z</time>
      </trkpt>
      <trkpt lat="48.0288" lon="6.74468">
        <ele>624</ele>
        <time>2024-07-18T16:00:20Z</time>
      </trkpt>
      <trkpt lat="48.0288" lon="6.74482">
        <ele>624.7</ele>
        <time>2024-07-18T16:00:26Z</time>
      </trkpt>
      <trkpt lat="48.0288" lon="6.74496">
        <ele>625.3</ele>
        <time>2024-07-18T16:00:33Z</time>
      </trkpt>
      <trkpt lat="48.02877" lon="6.74511">
        <ele>626</ele>
        <time>2024-07-18T16:00:40Z</time>
      </trkpt>
      <trkpt lat="48.02876" lon="6.74525">
        <ele>626.6</ele>
        <time>2024-07-18T16:00:46Z</time>
      </trkpt>
      <trkpt lat="48.02876" lon="6.74538">
        <ele>627.2</ele>
        <time>2024-07-18T16:00:53Z</time>
      </trkpt>
      <trkpt lat="48.02876" lon="6.74552">
        <ele>627.8</ele>
        <time>2024-07-18T16:00:59Z</time>
      </trkpt>
      <trkpt lat="48.02878" lon="6.74566">
        <ele>628.5</ele>
        <time>2024-07-18T16:01:05Z</time>
      </trkpt>
      <trkpt lat="48.0288" lon="6.74579">
        <ele>629.2</ele>
        <time>2024-07-18T16:01:12Z</time>
      </trkpt>
      <trkpt lat="48.0288" lon="6.74595">
        <ele>630.2</ele>
        <time>2024-07-18T16:01:19Z</time>
      </trkpt>
      <trkpt lat="48.02882" lon="6.74609">
        <ele>631.1</ele>
        <time>2024-07-18T16:01:28Z</time>
      </trkpt>
      <trkpt lat="48.02884" lon="6.74623">
        <ele>632.1</ele>
        <time>2024-07-18T16:01:35Z</time>
      </trkpt>
      <trkpt lat="48.02885" lon="6.74637">
        <ele>633.2</ele>
        <time>2024-07-18T16:01:42Z</time>
      </trkpt>
      <trkpt lat="48.02884" lon="6.74652">
        <ele>634.2</ele>
        <time>2024-07-18T16:01:48Z</time>
      </trkpt>
      <trkpt lat="48.02883" lon="6.74666">
        <ele>635.1</ele>
        <time>2024-07-18T16:01:56Z</time>
      </trkpt>
      <trkpt lat="48.02882" lon="6.7468">
        <ele>635.9</ele>
        <time>2024-07-18T16:02:04Z</time>
      </trkpt>
      <trkpt lat="48.02878" lon="6.74694">
        <ele>636.6</ele>
        <time>2024-07-18T16:02:10Z</time>
      </trkpt>
      <trkpt lat="48.02876" lon="6.74707">
        <ele>637.2</ele>
        <time>2024-07-18T16:02:17Z</time>
      </trkpt>
      <trkpt lat="48.02873" lon="6.74721">
        <ele>637.6</ele>
        <time>2024-07-18T16:02:25Z</time>
      </trkpt>
      <trkpt lat="48.02871" lon="6.74735">
        <ele>638</ele>
        <time>2024-07-18T16:02:33Z</time>
      </trkpt>
      <trkpt lat="48.02871" lon="6.74735">
        <ele>638</ele>
        <time>2024-07-18T16:02:41Z</time>
      </trkpt>
      <trkpt lat="48.02872" lon="6.74735">
        <ele>638</ele>
        <time>2024-07-18T16:02:42Z</time>
      </trkpt>
      <trkpt lat="48.02871" lon="6.74736">
        <ele>638</ele>
        <time>2024-07-18T16:02:43Z</time>
      </trkpt>
      <trkpt lat="48.02871" lon="6.74737">
        <ele>638</ele>
        <time>2024-07-18T16:02:44Z</time>
      </trkpt>
      <trkpt lat="48.02871" lon="6.74738">
        <ele>638.1</ele>
        <time>2024-07-18T16:02:45Z</time>
      </trkpt>
      <trkpt lat="48.0287" lon="6.74738">
        <ele>638.1</ele>
        <time>2024-07-18T16:03:01Z</time>
      </trkpt>
      <trkpt lat="48.0287" lon="6.74738">
        <ele>638.1</ele>
        <time>2024-07-18T16:03:02Z</time>
      </trkpt>
      <trkpt lat="48.0287" lon="6.74738">
        <ele>638.1</ele>
        <time>2024-07-18T16:03:03Z</time>
      </trkpt>
      <trkpt lat="48.02869" lon="6.74737">
        <ele>638.1</ele>
        <time>2024-07-18T16:03:43Z</time>
      </trkpt>
      <trkpt lat="48.02869" lon="6.74737">
        <ele>638.1</ele>
        <time>2024-07-18T16:03:44Z</time>
      </trkpt>
      <trkpt lat="48.02862" lon="6.74749">
        <ele>638.4</ele>
        <time>2024-07-18T16:04:10Z</time>
      </trkpt>
      <trkpt lat="48.02858" lon="6.74763">
        <ele>638.8</ele>
        <time>2024-07-18T16:04:18Z</time>
      </trkpt>
      <trkpt lat="48.02856" lon="6.74777">
        <ele>639.1</ele>
        <time>2024-07-18T16:04:25Z</time>
      </trkpt>
      <trkpt lat="48.02855" lon="6.74791">
        <ele>639.5</ele>
        <time>2024-07-18T16:04:33Z</time>
      </trkpt>
      <trkpt lat="48.02855" lon="6.74805">
        <ele>641.1</ele>
        <time>2024-07-18T16:04:42Z</time>
      </trkpt>
      <trkpt lat="48.02852" lon="6.74819">
        <ele>642</ele>
        <time>2024-07-18T16:04:50Z</time>
      </trkpt>
      <trkpt lat="48.02852" lon="6.74834">
        <ele>642.9</ele>
        <time>2024-07-18T16:04:57Z</time>
      </trkpt>
      <trkpt lat="48.02853" lon="6.7485">
        <ele>643.9</ele>
        <time>2024-07-18T16:05:04Z</time>
      </trkpt>
      <trkpt lat="48.02855" lon="6.74863">
        <ele>645.1</ele>
        <time>2024-07-18T16:05:10Z</time>
      </trkpt>
      <trkpt lat="48.02856" lon="6.74877">
        <ele>646.3</ele>
        <time>2024-07-18T16:05:19Z</time>
      </trkpt>
      <trkpt lat="48.02858" lon="6.74891">
        <ele>647.4</ele>
        <time>2024-07-18T16:05:33Z</time>
      </trkpt>
      <trkpt lat="48.02855" lon="6.74905">
        <ele>648.5</ele>
        <time>2024-07-18T16:05:42Z</time>
      </trkpt>
      <trkpt lat="48.02852" lon="6.74919">
        <ele>649.6</ele>
        <time>2024-07-18T16:05:53Z</time>
      </trkpt>
      <trkpt lat="48.02851" lon="6.74932">
        <ele>650.7</ele>
        <time>2024-07-18T16:06:03Z</time>
      </trkpt>
      <trkpt lat="48.0285" lon="6.74946">
        <ele>651.8</ele>
        <time>2024-07-18T16:06:13Z</time>
      </trkpt>
      <trkpt lat="48.02848" lon="6.74959">
        <ele>653</ele>
        <time>2024-07-18T16:06:22Z</time>
      </trkpt>
      <trkpt lat="48.02842" lon="6.74969">
        <ele>654.2</ele>
        <time>2024-07-18T16:06:36Z</time>
      </trkpt>
      <trkpt lat="48.02838" lon="6.74982">
        <ele>655.5</ele>
        <time>2024-07-18T16:06:46Z</time>
      </trkpt>
      <trkpt lat="48.02836" lon="6.74998">
        <ele>656.7</ele>
        <time>2024-07-18T16:06:53Z</time>
      </trkpt>
      <trkpt lat="48.0283" lon="6.75009">
        <ele>657.8</ele>
        <time>2024-07-18T16:07:04Z</time>
      </trkpt>
      <trkpt lat="48.02827" lon="6.75022">
        <ele>658.8</ele>
        <time>2024-07-18T16:07:14Z</time>
      </trkpt>
      <trkpt lat="48.02825" lon="6.75035">
        <ele>659.9</ele>
        <time>2024-07-18T16:07:21Z</time>
      </trkpt>
      <trkpt lat="48.02824" lon="6.75049">
        <ele>661.1</ele>
        <time>2024-07-18T16:07:28Z</time>
      </trkpt>
      <trkpt lat="48.0282" lon="6.75063">
        <ele>662.2</ele>
        <time>2024-07-18T16:07:36Z</time>
      </trkpt>
      <trkpt lat="48.02816" lon="6.75076">
        <ele>663.3</ele>
        <time>2024-07-18T16:07:46Z</time>
      </trkpt>
      <trkpt lat="48.02815" lon="6.7509">
        <ele>664.3</ele>
        <time>2024-07-18T16:07:54Z</time>
      </trkpt>
      <trkpt lat="48.02815" lon="6.75093">
        <ele>664.6</ele>
        <time>2024-07-18T16:08:03Z</time>
      </trkpt>
      <trkpt lat="48.02815" lon="6.75093">
        <ele>664.6</ele>
        <time>2024-07-18T16:08:04Z</time>
      </trkpt>
      <trkpt lat="48.02815" lon="6.75093">
        <ele>664.6</ele>
        <time>2024-07-18T16:08:08Z</time>
      </trkpt>
      <trkpt lat="48.02816" lon="6.75094">
        <ele>664.6</ele>
        <time>2024-07-18T16:08:09Z</time>
      </trkpt>
      <trkpt lat="48.02815" lon="6.75108">
        <ele>665.6</ele>
        <time>2024-07-18T16:08:20Z</time>
      </trkpt>
      <trkpt lat="48.02813" lon="6.75121">
        <ele>666.7</ele>
        <time>2024-07-18T16:08:28Z</time>
      </trkpt>
      <trkpt lat="48.02813" lon="6.75136">
        <ele>667.9</ele>
        <time>2024-07-18T16:08:37Z</time>
      </trkpt>
      <trkpt lat="48.0281" lon="6.75149">
        <ele>669</ele>
        <time>2024-07-18T16:08:46Z</time>
      </trkpt>
      <trkpt lat="48.02806" lon="6.75162">
        <ele>670.1</ele>
        <time>2024-07-18T16:08:53Z</time>
      </trkpt>
      <trkpt lat="48.02804" lon="6.75176">
        <ele>671.2</ele>
        <time>2024-07-18T16:09:04Z</time>
      </trkpt>
      <trkpt lat="48.02803" lon="6.7519">
        <ele>672.3</ele>
        <time>2024-07-18T16:09:15Z</time>
      </trkpt>
      <trkpt lat="48.02802" lon="6.75204">
        <ele>673.3</ele>
        <time>2024-07-18T16:09:23Z</time>
      </trkpt>
      <trkpt lat="48.02805" lon="6.75217">
        <ele>674.3</ele>
        <time>2024-07-18T16:09:32Z</time>
      </trkpt>
      <trkpt lat="48.02805" lon="6.75231">
        <ele>675.4</ele>
        <time>2024-07-18T16:09:41Z</time>
      </trkpt>
      <trkpt lat="48.02804" lon="6.75246">
        <ele>676.5</ele>
        <time>2024-07-18T16:09:49Z</time>
      </trkpt>
      <trkpt lat="48.02804" lon="6.7526">
        <ele>677.6</ele>
        <time>2024-07-18T16:09:58Z</time>
      </trkpt>
      <trkpt lat="48.02803" lon="6.75275">
        <ele>678.8</ele>
        <time>2024-07-18T16:10:07Z</time>
      </trkpt>
      <trkpt lat="48.02804" lon="6.7529">
        <ele>680.1</ele>
        <time>2024-07-18T16:10:15Z</time>
      </trkpt>
      <trkpt lat="48.02805" lon="6.75303">
        <ele>681.4</ele>
        <time>2024-07-18T16:10:24Z</time>
      </trkpt>
      <trkpt lat="48.02809" lon="6.75317">
        <ele>682.6</ele>
        <time>2024-07-18T16:10:36Z</time>
      </trkpt>
      <trkpt lat="48.02807" lon="6.75329">
        <ele>683.7</ele>
        <time>2024-07-18T16:10:45Z</time>
      </trkpt>
      <trkpt lat="48.02807" lon="6.75329">
        <ele>683.7</ele>
        <time>2024-07-18T16:10:46Z</time>
      </trkpt>
      <trkpt lat="48.02807" lon="6.75329">
        <ele>683.7</ele>
        <time>2024-07-18T16:10:47Z</time>
      </trkpt>
      <trkpt lat="48.02807" lon="6.75329">
        <ele>683.7</ele>
        <time>2024-07-18T16:10:51Z</time>
      </trkpt>
      <trkpt lat="48.02807" lon="6.75329">
        <ele>683.7</ele>
        <time>2024-07-18T16:10:52Z</time>
      </trkpt>
      <trkpt lat="48.02809" lon="6.75342">
        <ele>685</ele>
        <time>2024-07-18T16:11:04Z</time>
      </trkpt>
      <trkpt lat="48.02809" lon="6.75356">
        <ele>686.4</ele>
        <time>2024-07-18T16:11:18Z</time>
      </trkpt>
      <trkpt lat="48.02809" lon="6.7537">
        <ele>687.8</ele>
        <time>2024-07-18T16:11:31Z</time>
      </trkpt>
      <trkpt lat="48.02809" lon="6.75384">
        <ele>689.1</ele>
        <time>2024-07-18T16:11:44Z</time>
      </trkpt>
      <trkpt lat="48.02805" lon="6.75397">
        <ele>690.5</ele>
        <time>2024-07-18T16:11:55Z</time>
      </trkpt>
      <trkpt lat="48.02802" lon="6.75403">
        <ele>691.2</ele>
        <time>2024-07-18T16:12:03Z</time>
      </trkpt>
      <trkpt lat="48.02802" lon="6.75403">
        <ele>691.2</ele>
        <time>2024-07-18T16:12:04Z</time>
      </trkpt>
      <trkpt lat="48.02802" lon="6.75403">
        <ele>691.2</ele>
        <time>2024-07-18T16:12:05Z</time>
      </trkpt>
      <trkpt lat="48.02802" lon="6.75403">
        <ele>691.3</ele>
        <time>2024-07-18T16:12:06Z</time>
      </trkpt>
      <trkpt lat="48.02802" lon="6.75403">
        <ele>691.3</ele>
        <time>2024-07-18T16:12:07Z</time>
      </trkpt>
      <trkpt lat="48.02798" lon="6.75415">
        <ele>692.6</ele>
        <time>2024-07-18T16:12:19Z</time>
      </trkpt>
      <trkpt lat="48.02793" lon="6.75426">
        <ele>693.9</ele>
        <time>2024-07-18T16:12:30Z</time>
      </trkpt>
      <trkpt lat="48.0279" lon="6.75439">
        <ele>695.2</ele>
        <time>2024-07-18T16:12:41Z</time>
      </trkpt>
      <trkpt lat="48.02789" lon="6.75454">
        <ele>696.5</ele>
        <time>2024-07-18T16:12:50Z</time>
      </trkpt>
      <trkpt lat="48.02789" lon="6.75458">
        <ele>696.8</ele>
        <time>2024-07-18T16:12:59Z</time>
      </trkpt>
      <trkpt lat="48.02789" lon="6.75458">
        <ele>696.8</ele>
        <time>2024-07-18T16:13:00Z</time>
      </trkpt>
      <trkpt lat="48.02789" lon="6.75459">
        <ele>696.8</ele>
        <time>2024-07-18T16:13:04Z</time>
      </trkpt>
      <trkpt lat="48.02789" lon="6.75459">
        <ele>696.8</ele>
        <time>2024-07-18T16:13:05Z</time>
      </trkpt>
      <trkpt lat="48.02789" lon="6.75459">
        <ele>696.9</ele>
        <time>2024-07-18T16:13:08Z</time>
      </trkpt>
      <trkpt lat="48.02789" lon="6.7546">
        <ele>697</ele>
        <time>2024-07-18T16:13:09Z</time>
      </trkpt>
      <trkpt lat="48.02789" lon="6.7546">
        <ele>697</ele>
        <time>2024-07-18T16:13:10Z</time>
      </trkpt>
      <trkpt lat="48.02789" lon="6.7546">
        <ele>697</ele>
        <time>2024-07-18T16:13:11Z</time>
      </trkpt>
      <trkpt lat="48.02789" lon="6.7546">
        <ele>697</ele>
        <time>2024-07-18T16:13:12Z</time>
      </trkpt>
      <trkpt lat="48.02789" lon="6.7546">
        <ele>697</ele>
        <time>2024-07-18T16:13:13Z</time>
      </trkpt>
      <trkpt lat="48.02789" lon="6.7546">
        <ele>697</ele>
        <time>2024-07-18T16:13:14Z</time>
      </trkpt>
      <trkpt lat="48.02789" lon="6.7546">
        <ele>697</ele>
        <time>2024-07-18T16:13:33Z</time>
      </trkpt>
      <trkpt lat="48.02789" lon="6.7546">
        <ele>697</ele>
        <time>2024-07-18T16:13:34Z</time>
      </trkpt>
      <trkpt lat="48.02789" lon="6.7546">
        <ele>697</ele>
        <time>2024-07-18T16:13:38Z</time>
      </trkpt>
      <trkpt lat="48.02789" lon="6.7546">
        <ele>697</ele>
        <time>2024-07-18T16:13:39Z</time>
      </trkpt>
      <trkpt lat="48.02789" lon="6.75461">
        <ele>697</ele>
        <time>2024-07-18T16:14:31Z</time>
      </trkpt>
      <trkpt lat="48.02789" lon="6.75462">
        <ele>697.1</ele>
        <time>2024-07-18T16:14:32Z</time>
      </trkpt>
      <trkpt lat="48.02789" lon="6.75477">
        <ele>698.1</ele>
        <time>2024-07-18T16:14:40Z</time>
      </trkpt>
      <trkpt lat="48.02789" lon="6.7549">
        <ele>699.1</ele>
        <time>2024-07-18T16:14:46Z</time>
      </trkpt>
      <trkpt lat="48.02789" lon="6.75505">
        <ele>700.1</ele>
        <time>2024-07-18T16:14:54Z</time>
      </trkpt>
      <trkpt lat="48.02789" lon="6.75519">
        <ele>701</ele>
        <time>2024-07-18T16:15:02Z</time>
      </trkpt>
      <trkpt lat="48.0279" lon="6.75534">
        <ele>702.5</ele>
        <time>2024-07-18T16:15:11Z</time>
      </trkpt>
      <trkpt lat="48.02797" lon="6.75544">
        <ele>703.9</ele>
        <time>2024-07-18T16:15:21Z</time>
      </trkpt>
      <trkpt lat="48.02803" lon="6.75554">
        <ele>705.2</ele>
        <time>2024-07-18T16:15:39Z</time>
      </trkpt>
      <trkpt lat="48.02809" lon="6.75565">
        <ele>706.7</ele>
        <time>2024-07-18T16:15:50Z</time>
      </trkpt>
      <trkpt lat="48.0281" lon="6.75579">
        <ele>708.2</ele>
        <time>2024-07-18T16:16:00Z</time>
      </trkpt>
      <trkpt lat="48.02811" lon="6.75593">
        <ele>709.7</ele>
        <time>2024-07-18T16:16:11Z</time>
      </trkpt>
      <trkpt lat="48.02812" lon="6.75606">
        <ele>711.1</ele>
        <time>2024-07-18T16:16:21Z</time>
      </trkpt>
      <trkpt lat="48.02812" lon="6.75621">
        <ele>712.6</ele>
        <time>2024-07-18T16:16:36Z</time>
      </trkpt>
      <trkpt lat="48.02812" lon="6.75636">
        <ele>714.1</ele>
        <time>2024-07-18T16:16:45Z</time>
      </trkpt>
      <trkpt lat="48.02812" lon="6.7565">
        <ele>715.4</ele>
        <time>2024-07-18T16:16:56Z</time>
      </trkpt>
      <trkpt lat="48.02815" lon="6.75664">
        <ele>716.9</ele>
        <time>2024-07-18T16:17:05Z</time>
      </trkpt>
      <trkpt lat="48.02819" lon="6.75664">
        <ele>717.4</ele>
        <time>2024-07-18T16:17:13Z</time>
      </trkpt>
      <trkpt lat="48.02819" lon="6.75664">
        <ele>717.5</ele>
        <time>2024-07-18T16:17:14Z</time>
      </trkpt>
      <trkpt lat="48.02819" lon="6.75664">
        <ele>717.5</ele>
        <time>2024-07-18T16:17:15Z</time>
      </trkpt>
      <trkpt lat="48.02819" lon="6.75664">
        <ele>717.5</ele>
        <time>2024-07-18T16:17:16Z</time>
      </trkpt>
      <trkpt lat="48.02818" lon="6.75664">
        <ele>717.5</ele>
        <time>2024-07-18T16:17:17Z</time>
      </trkpt>
      <trkpt lat="48.02823" lon="6.75676">
        <ele>719.1</ele>
        <time>2024-07-18T16:17:28Z</time>
      </trkpt>
      <trkpt lat="48.0283" lon="6.75686">
        <ele>720.6</ele>
        <time>2024-07-18T16:17:39Z</time>
      </trkpt>
      <trkpt lat="48.02833" lon="6.75692">
        <ele>721.4</ele>
        <time>2024-07-18T16:17:54Z</time>
      </trkpt>
      <trkpt lat="48.02833" lon="6.75692">
        <ele>721.4</ele>
        <time>2024-07-18T16:17:55Z</time>
      </trkpt>
      <trkpt lat="48.02833" lon="6.75692">
        <ele>721.4</ele>
        <time>2024-07-18T16:18:05Z</time>
      </trkpt>
      <trkpt lat="48.02833" lon="6.75692">
        <ele>721.4</ele>
        <time>2024-07-18T16:18:06Z</time>
      </trkpt>
      <trkpt lat="48.02833" lon="6.75692">
        <ele>721.4</ele>
        <time>2024-07-18T16:18:07Z</time>
      </trkpt>
      <trkpt lat="48.02833" lon="6.75692">
        <ele>721.4</ele>
        <time>2024-07-18T16:18:08Z</time>
      </trkpt>
      <trkpt lat="48.02833" lon="6.75692">
        <ele>721.4</ele>
        <time>2024-07-18T16:18:09Z</time>
      </trkpt>
      <trkpt lat="48.02833" lon="6.7569">
        <ele>721.6</ele>
        <time>2024-07-18T16:18:13Z</time>
      </trkpt>
      <trkpt lat="48.02834" lon="6.75689">
        <ele>721.7</ele>
        <time>2024-07-18T16:18:14Z</time>
      </trkpt>
      <trkpt lat="48.02838" lon="6.75703">
        <ele>723.2</ele>
        <time>2024-07-18T16:18:28Z</time>
      </trkpt>
      <trkpt lat="48.0284" lon="6.75716">
        <ele>724.7</ele>
        <time>2024-07-18T16:18:37Z</time>
      </trkpt>
      <trkpt lat="48.02845" lon="6.75728">
        <ele>726.2</ele>
        <time>2024-07-18T16:18:48Z</time>
      </trkpt>
      <trkpt lat="48.02847" lon="6.75733">
        <ele>726.8</ele>
        <time>2024-07-18T16:18:58Z</time>
      </trkpt>
      <trkpt lat="48.02847" lon="6.75733">
        <ele>726.9</ele>
        <time>2024-07-18T16:18:59Z</time>
      </trkpt>
      <trkpt lat="48.02849" lon="6.75734">
        <ele>727.2</ele>
        <time>2024-07-18T16:19:15Z</time>
      </trkpt>
      <trkpt lat="48.0285" lon="6.75735">
        <ele>727.3</ele>
        <time>2024-07-18T16:19:16Z</time>
      </trkpt>
      <trkpt lat="48.0285" lon="6.75736">
        <ele>727.4</ele>
        <time>2024-07-18T16:19:17Z</time>
      </trkpt>
      <trkpt lat="48.02853" lon="6.75749">
        <ele>728.8</ele>
        <time>2024-07-18T16:19:28Z</time>
      </trkpt>
      <trkpt lat="48.02854" lon="6.75764">
        <ele>730.3</ele>
        <time>2024-07-18T16:19:39Z</time>
      </trkpt>
      <trkpt lat="48.02855" lon="6.75778">
        <ele>731.7</ele>
        <time>2024-07-18T16:19:49Z</time>
      </trkpt>
      <trkpt lat="48.02856" lon="6.75791">
        <ele>733</ele>
        <time>2024-07-18T16:20:00Z</time>
      </trkpt>
      <trkpt lat="48.02859" lon="6.75805">
        <ele>734.3</ele>
        <time>2024-07-18T16:20:09Z</time>
      </trkpt>
      <trkpt lat="48.02856" lon="6.75819">
        <ele>735.1</ele>
        <time>2024-07-18T16:20:20Z</time>
      </trkpt>
      <trkpt lat="48.02858" lon="6.75832">
        <ele>735</ele>
        <time>2024-07-18T16:20:43Z</time>
      </trkpt>
      <trkpt lat="48.02857" lon="6.75828">
        <ele>735</ele>
        <time>2024-07-18T16:21:10Z</time>
      </trkpt>
      <trkpt lat="48.02857" lon="6.75828">
        <ele>735</ele>
        <time>2024-07-18T16:21:11Z</time>
      </trkpt>
      <trkpt lat="48.02857" lon="6.75828">
        <ele>735</ele>
        <time>2024-07-18T16:21:12Z</time>
      </trkpt>
      <trkpt lat="48.02857" lon="6.75828">
        <ele>735</ele>
        <time>2024-07-18T16:21:13Z</time>
      </trkpt>
      <trkpt lat="48.02857" lon="6.75828">
        <ele>735</ele>
        <time>2024-07-18T16:21:14Z</time>
      </trkpt>
      <trkpt lat="48.02857" lon="6.75828">
        <ele>735</ele>
        <time>2024-07-18T16:21:21Z</time>
      </trkpt>
      <trkpt lat="48.02857" lon="6.75828">
        <ele>735</ele>
        <time>2024-07-18T16:21:22Z</time>
      </trkpt>
      <trkpt lat="48.02857" lon="6.75828">
        <ele>735</ele>
        <time>2024-07-18T16:21:23Z</time>
      </trkpt>
      <trkpt lat="48.02859" lon="6.75828">
        <ele>735</ele>
        <time>2024-07-18T16:23:25Z</time>
      </trkpt>
      <trkpt lat="48.02859" lon="6.75828">
        <ele>735</ele>
        <time>2024-07-18T16:23:26Z</time>
      </trkpt>
      <trkpt lat="48.0286" lon="6.75828">
        <ele>735</ele>
        <time>2024-07-18T16:23:27Z</time>
      </trkpt>
      <trkpt lat="48.0286" lon="6.75828">
        <ele>735</ele>
        <time>2024-07-18T16:23:28Z</time>
      </trkpt>
      <trkpt lat="48.0286" lon="6.75828">
        <ele>735</ele>
        <time>2024-07-18T16:23:29Z</time>
      </trkpt>
      <trkpt lat="48.0286" lon="6.75828">
        <ele>735</ele>
        <time>2024-07-18T16:23:33Z</time>
      </trkpt>
      <trkpt lat="48.02861" lon="6.75828">
        <ele>735</ele>
        <time>2024-07-18T16:23:34Z</time>
      </trkpt>
      <trkpt lat="48.0286" lon="6.75828">
        <ele>735</ele>
        <time>2024-07-18T16:23:35Z</time>
      </trkpt>
      <trkpt lat="48.0286" lon="6.75828">
        <ele>735</ele>
        <time>2024-07-18T16:23:36Z</time>
      </trkpt>
      <trkpt lat="48.0286" lon="6.75828">
        <ele>735</ele>
        <time>2024-07-18T16:23:37Z</time>
      </trkpt>
      <trkpt lat="48.0286" lon="6.75828">
        <ele>735</ele>
        <time>2024-07-18T16:23:38Z</time>
      </trkpt>
      <trkpt lat="48.02861" lon="6.75828">
        <ele>735</ele>
        <time>2024-07-18T16:23:55Z</time>
      </trkpt>
      <trkpt lat="48.02861" lon="6.75828">
        <ele>735</ele>
        <time>2024-07-18T16:23:56Z</time>
      </trkpt>
      <trkpt lat="48.02861" lon="6.75828">
        <ele>735</ele>
        <time>2024-07-18T16:23:57Z</time>
      </trkpt>
      <trkpt lat="48.0286" lon="6.7583">
        <ele>735</ele>
        <time>2024-07-18T16:24:00Z</time>
      </trkpt>
      <trkpt lat="48.0286" lon="6.7583">
        <ele>735</ele>
        <time>2024-07-18T16:24:01Z</time>
      </trkpt>
      <trkpt lat="48.02859" lon="6.7583">
        <ele>735</ele>
        <time>2024-07-18T16:24:02Z</time>
      </trkpt>
      <trkpt lat="48.02859" lon="6.7583">
        <ele>735</ele>
        <time>2024-07-18T16:24:03Z</time>
      </trkpt>
      <trkpt lat="48.02859" lon="6.7583">
        <ele>735</ele>
        <time>2024-07-18T16:24:04Z</time>
      </trkpt>
      <trkpt lat="48.02859" lon="6.7583">
        <ele>735</ele>
        <time>2024-07-18T16:24:05Z</time>
      </trkpt>
      <trkpt lat="48.02859" lon="6.7583">
        <ele>735</ele>
        <time>2024-07-18T16:24:06Z</time>
      </trkpt>
      <trkpt lat="48.02859" lon="6.7583">
        <ele>735</ele>
        <time>2024-07-18T16:24:07Z</time>
      </trkpt>
      <trkpt lat="48.02859" lon="6.7583">
        <ele>735</ele>
        <time>2024-07-18T16:24:08Z</time>
      </trkpt>
      <trkpt lat="48.02859" lon="6.75829">
        <ele>735</ele>
        <time>2024-07-18T16:25:21Z</time>
      </trkpt>
      <trkpt lat="48.02859" lon="6.75829">
        <ele>735</ele>
        <time>2024-07-18T16:25:22Z</time>
      </trkpt>
      <trkpt lat="48.0286" lon="6.75829">
        <ele>735</ele>
        <time>2024-07-18T16:25:30Z</time>
      </trkpt>
      <trkpt lat="48.0286" lon="6.75829">
        <ele>735</ele>
        <time>2024-07-18T16:25:31Z</time>
      </trkpt>
      <trkpt lat="48.0286" lon="6.75829">
        <ele>735</ele>
        <time>2024-07-18T16:25:32Z</time>
      </trkpt>
      <trkpt lat="48.0286" lon="6.7583">
        <ele>735</ele>
        <time>2024-07-18T16:25:36Z</time>
      </trkpt>
      <trkpt lat="48.02859" lon="6.7583">
        <ele>735</ele>
        <time>2024-07-18T16:25:37Z</time>
      </trkpt>
      <trkpt lat="48.02859" lon="6.7583">
        <ele>735</ele>
        <time>2024-07-18T16:25:38Z</time>
      </trkpt>
      <trkpt lat="48.02859" lon="6.7583">
        <ele>735</ele>
        <time>2024-07-18T16:25:39Z</time>
      </trkpt>
      <trkpt lat="48.02859" lon="6.7583">
        <ele>735</ele>
        <time>2024-07-18T16:25:40Z</time>
      </trkpt>
      <trkpt lat="48.0286" lon="6.75829">
        <ele>735</ele>
        <time>2024-07-18T16:26:01Z</time>
      </trkpt>
      <trkpt lat="48.0286" lon="6.75829">
        <ele>735</ele>
        <time>2024-07-18T16:26:02Z</time>
      </trkpt>
      <trkpt lat="48.0286" lon="6.75829">
        <ele>735</ele>
        <time>2024-07-18T16:26:03Z</time>
      </trkpt>
      <trkpt lat="48.0286" lon="6.75829">
        <ele>735</ele>
        <time>2024-07-18T16:26:04Z</time>
      </trkpt>
      <trkpt lat="48.0286" lon="6.75829">
        <ele>735</ele>
        <time>2024-07-18T16:26:05Z</time>
      </trkpt>
      <trkpt lat="48.02861" lon="6.75828">
        <ele>735</ele>
        <time>2024-07-18T16:26:46Z</time>
      </trkpt>
      <trkpt lat="48.02861" lon="6.75828">
        <ele>735</ele>
        <time>2024-07-18T16:26:47Z</time>
      </trkpt>
      <trkpt lat="48.02863" lon="6.75829">
        <ele>735</ele>
        <time>2024-07-18T16:26:53Z</time>
      </trkpt>
      <trkpt lat="48.02863" lon="6.75829">
        <ele>735</ele>
        <time>2024-07-18T16:26:54Z</time>
      </trkpt>
      <trkpt lat="48.02862" lon="6.75829">
        <ele>735</ele>
        <time>2024-07-18T16:26:55Z</time>
      </trkpt>
      <trkpt lat="48.02862" lon="6.75829">
        <ele>735</ele>
        <time>2024-07-18T16:26:56Z</time>
      </trkpt>
      <trkpt lat="48.02862" lon="6.75829">
        <ele>735</ele>
        <time>2024-07-18T16:26:57Z</time>
      </trkpt>
      <trkpt lat="48.02862" lon="6.75829">
        <ele>735</ele>
        <time>2024-07-18T16:26:58Z</time>
      </trkpt>
      <trkpt lat="48.02862" lon="6.75829">
        <ele>735</ele>
        <time>2024-07-18T16:26:59Z</time>
      </trkpt>
      <trkpt lat="48.02862" lon="6.75829">
        <ele>735</ele>
        <time>2024-07-18T16:27:00Z</time>
      </trkpt>
      <trkpt lat="48.02862" lon="6.75829">
        <ele>735</ele>
        <time>2024-07-18T16:29:18Z</time>
      </trkpt>
      <trkpt lat="48.02862" lon="6.75829">
        <ele>735</ele>
        <time>2024-07-18T16:29:19Z</time>
      </trkpt>
      <trkpt lat="48.02863" lon="6.7583">
        <ele>735</ele>
        <time>2024-07-18T16:29:31Z</time>
      </trkpt>
      <trkpt lat="48.02863" lon="6.7583">
        <ele>735</ele>
        <time>2024-07-18T16:29:32Z</time>
      </trkpt>
      <trkpt lat="48.02863" lon="6.7583">
        <ele>735</ele>
        <time>2024-07-18T16:29:33Z</time>
      </trkpt>
      <trkpt lat="48.02863" lon="6.75829">
        <ele>735</ele>
        <time>2024-07-18T16:29:43Z</time>
      </trkpt>
      <trkpt lat="48.02863" lon="6.75829">
        <ele>735</ele>
        <time>2024-07-18T16:29:44Z</time>
      </trkpt>
      <trkpt lat="48.02863" lon="6.75829">
        <ele>735</ele>
        <time>2024-07-18T16:29:48Z</time>
      </trkpt>
      <trkpt lat="48.02863" lon="6.75829">
        <ele>735</ele>
        <time>2024-07-18T16:29:49Z</time>
      </trkpt>
      <trkpt lat="48.02863" lon="6.7583">
        <ele>735</ele>
        <time>2024-07-18T16:29:52Z</time>
      </trkpt>
      <trkpt lat="48.02863" lon="6.7583">
        <ele>735</ele>
        <time>2024-07-18T16:29:53Z</time>
      </trkpt>
      <trkpt lat="48.02863" lon="6.75831">
        <ele>735</ele>
        <time>2024-07-18T16:29:59Z</time>
      </trkpt>
      <trkpt lat="48.02863" lon="6.75831">
        <ele>735</ele>
        <time>2024-07-18T16:30:00Z</time>
      </trkpt>
      <trkpt lat="48.02863" lon="6.75832">
        <ele>735.1</ele>
        <time>2024-07-18T16:36:23Z</time>
      </trkpt>
      <trkpt lat="48.02863" lon="6.75832">
        <ele>735.1</ele>
        <time>2024-07-18T16:36:24Z</time>
      </trkpt>
      <trkpt lat="48.02863" lon="6.75832">
        <ele>735.1</ele>
        <time>2024-07-18T16:36:25Z</time>
      </trkpt>
      <trkpt lat="48.02863" lon="6.75832">
        <ele>735.1</ele>
        <time>2024-07-18T16:36:26Z</time>
      </trkpt>
      <trkpt lat="48.02863" lon="6.75832">
        <ele>735.1</ele>
        <time>2024-07-18T16:36:27Z</time>
      </trkpt>
      <trkpt lat="48.02865" lon="6.75838">
        <ele>735.1</ele>
        <time>2024-07-18T16:41:55Z</time>
      </trkpt>
      <trkpt lat="48.02865" lon="6.75837">
        <ele>735.1</ele>
        <time>2024-07-18T16:41:56Z</time>
      </trkpt>
      <trkpt lat="48.02865" lon="6.75836">
        <ele>735.1</ele>
        <time>2024-07-18T16:41:57Z</time>
      </trkpt>
      <trkpt lat="48.02865" lon="6.75835">
        <ele>735.1</ele>
        <time>2024-07-18T16:41:58Z</time>
      </trkpt>
      <trkpt lat="48.02865" lon="6.75834">
        <ele>735.1</ele>
        <time>2024-07-18T16:41:59Z</time>
      </trkpt>
      <trkpt lat="48.0286" lon="6.75833">
        <ele>735.1</ele>
        <time>2024-07-18T16:42:31Z</time>
      </trkpt>
      <trkpt lat="48.0286" lon="6.75832">
        <ele>735.1</ele>
        <time>2024-07-18T16:42:32Z</time>
      </trkpt>
      <trkpt lat="48.0286" lon="6.75832">
        <ele>735.1</ele>
        <time>2024-07-18T16:42:33Z</time>
      </trkpt>
      <trkpt lat="48.0286" lon="6.75829">
        <ele>735.1</ele>
        <time>2024-07-18T16:42:52Z</time>
      </trkpt>
      <trkpt lat="48.0286" lon="6.75829">
        <ele>735.1</ele>
        <time>2024-07-18T16:42:53Z</time>
      </trkpt>
      <trkpt lat="48.02859" lon="6.75829">
        <ele>735.1</ele>
        <time>2024-07-18T16:43:03Z</time>
      </trkpt>
      <trkpt lat="48.0286" lon="6.7583">
        <ele>735.1</ele>
        <time>2024-07-18T16:43:04Z</time>
      </trkpt>
      <trkpt lat="48.02864" lon="6.75842">
        <ele>735.1</ele>
        <time>2024-07-18T16:43:16Z</time>
      </trkpt>
      <trkpt lat="48.02866" lon="6.75857">
        <ele>735.2</ele>
        <time>2024-07-18T16:43:20Z</time>
      </trkpt>
      <trkpt lat="48.02872" lon="6.7587">
        <ele>735.4</ele>
        <time>2024-07-18T16:43:24Z</time>
      </trkpt>
      <trkpt lat="48.02882" lon="6.7588">
        <ele>735.7</ele>
        <time>2024-07-18T16:43:28Z</time>
      </trkpt>
      <trkpt lat="48.0289" lon="6.75886">
        <ele>736.1</ele>
        <time>2024-07-18T16:43:31Z</time>
      </trkpt>
      <trkpt lat="48.02901" lon="6.75893">
        <ele>736.6</ele>
        <time>2024-07-18T16:43:35Z</time>
      </trkpt>
      <trkpt lat="48.0291" lon="6.75898">
        <ele>737.1</ele>
        <time>2024-07-18T16:43:38Z</time>
      </trkpt>
      <trkpt lat="48.0292" lon="6.75906">
        <ele>737.8</ele>
        <time>2024-07-18T16:43:42Z</time>
      </trkpt>
      <trkpt lat="48.02931" lon="6.75915">
        <ele>738.7</ele>
        <time>2024-07-18T16:43:46Z</time>
      </trkpt>
      <trkpt lat="48.0294" lon="6.75923">
        <ele>739.4</ele>
        <time>2024-07-18T16:43:50Z</time>
      </trkpt>
      <trkpt lat="48.02947" lon="6.75932">
        <ele>739.9</ele>
        <time>2024-07-18T16:43:54Z</time>
      </trkpt>
      <trkpt lat="48.02957" lon="6.75938">
        <ele>740.4</ele>
        <time>2024-07-18T16:43:57Z</time>
      </trkpt>
      <trkpt lat="48.02967" lon="6.75946">
        <ele>740.9</ele>
        <time>2024-07-18T16:44:00Z</time>
      </trkpt>
      <trkpt lat="48.02976" lon="6.75953">
        <ele>741.4</ele>
        <time>2024-07-18T16:44:03Z</time>
      </trkpt>
      <trkpt lat="48.02985" lon="6.75961">
        <ele>742.2</ele>
        <time>2024-07-18T16:44:07Z</time>
      </trkpt>
      <trkpt lat="48.02996" lon="6.75969">
        <ele>743.2</ele>
        <time>2024-07-18T16:44:11Z</time>
      </trkpt>
      <trkpt lat="48.03005" lon="6.75967">
        <ele>744</ele>
        <time>2024-07-18T16:44:20Z</time>
      </trkpt>
      <trkpt lat="48.03011" lon="6.75957">
        <ele>744.9</ele>
        <time>2024-07-18T16:44:28Z</time>
      </trkpt>
      <trkpt lat="48.03019" lon="6.75949">
        <ele>745.8</ele>
        <time>2024-07-18T16:44:37Z</time>
      </trkpt>
      <trkpt lat="48.03028" lon="6.75953">
        <ele>746.6</ele>
        <time>2024-07-18T16:44:47Z</time>
      </trkpt>
      <trkpt lat="48.03035" lon="6.75963">
        <ele>747.4</ele>
        <time>2024-07-18T16:44:55Z</time>
      </trkpt>
      <trkpt lat="48.03044" lon="6.75969">
        <ele>748</ele>
        <time>2024-07-18T16:45:05Z</time>
      </trkpt>
      <trkpt lat="48.03052" lon="6.75975">
        <ele>748.4</ele>
        <time>2024-07-18T16:45:14Z</time>
      </trkpt>
      <trkpt lat="48.03062" lon="6.7598">
        <ele>748.9</ele>
        <time>2024-07-18T16:45:26Z</time>
      </trkpt>
      <trkpt lat="48.03071" lon="6.7599">
        <ele>749.5</ele>
        <time>2024-07-18T16:45:30Z</time>
      </trkpt>
      <trkpt lat="48.03079" lon="6.76001">
        <ele>750.1</ele>
        <time>2024-07-18T16:45:34Z</time>
      </trkpt>
      <trkpt lat="48.03085" lon="6.76011">
        <ele>750.6</ele>
        <time>2024-07-18T16:45:38Z</time>
      </trkpt>
      <trkpt lat="48.0309" lon="6.76023">
        <ele>751.1</ele>
        <time>2024-07-18T16:45:43Z</time>
      </trkpt>
      <trkpt lat="48.03095" lon="6.76036">
        <ele>751.5</ele>
        <time>2024-07-18T16:45:47Z</time>
      </trkpt>
      <trkpt lat="48.03096" lon="6.76051">
        <ele>751.8</ele>
        <time>2024-07-18T16:45:51Z</time>
      </trkpt>
      <trkpt lat="48.03096" lon="6.76067">
        <ele>752.1</ele>
        <time>2024-07-18T16:45:55Z</time>
      </trkpt>
      <trkpt lat="48.03097" lon="6.76082">
        <ele>752.4</ele>
        <time>2024-07-18T16:46:00Z</time>
      </trkpt>
      <trkpt lat="48.031" lon="6.76097">
        <ele>752.7</ele>
        <time>2024-07-18T16:46:06Z</time>
      </trkpt>
      <trkpt lat="48.03104" lon="6.76112">
        <ele>753</ele>
        <time>2024-07-18T16:46:11Z</time>
      </trkpt>
      <trkpt lat="48.03111" lon="6.76123">
        <ele>753.5</ele>
        <time>2024-07-18T16:46:15Z</time>
      </trkpt>
      <trkpt lat="48.03119" lon="6.76134">
        <ele>754.1</ele>
        <time>2024-07-18T16:46:19Z</time>
      </trkpt>
      <trkpt lat="48.03118" lon="6.76148">
        <ele>754.6</ele>
        <time>2024-07-18T16:46:22Z</time>
      </trkpt>
      <trkpt lat="48.03117" lon="6.76162">
        <ele>753.4</ele>
        <time>2024-07-18T16:46:24Z</time>
      </trkpt>
      <trkpt lat="48.03119" lon="6.7618">
        <ele>752.1</ele>
        <time>2024-07-18T16:46:26Z</time>
      </trkpt>
      <trkpt lat="48.03122" lon="6.76199">
        <ele>751</ele>
        <time>2024-07-18T16:46:28Z</time>
      </trkpt>
      <trkpt lat="48.03127" lon="6.76218">
        <ele>750</ele>
        <time>2024-07-18T16:46:30Z</time>
      </trkpt>
      <trkpt lat="48.03135" lon="6.76236">
        <ele>748.8</ele>
        <time>2024-07-18T16:46:32Z</time>
      </trkpt>
      <trkpt lat="48.03147" lon="6.76252">
        <ele>747.4</ele>
        <time>2024-07-18T16:46:34Z</time>
      </trkpt>
      <trkpt lat="48.03158" lon="6.76271">
        <ele>746.2</ele>
        <time>2024-07-18T16:46:36Z</time>
      </trkpt>
      <trkpt lat="48.0317" lon="6.7629">
        <ele>744.9</ele>
        <time>2024-07-18T16:46:38Z</time>
      </trkpt>
      <trkpt lat="48.03178" lon="6.76297">
        <ele>744.2</ele>
        <time>2024-07-18T16:46:39Z</time>
      </trkpt>
      <trkpt lat="48.03185" lon="6.76305">
        <ele>743.6</ele>
        <time>2024-07-18T16:46:40Z</time>
      </trkpt>
      <trkpt lat="48.03193" lon="6.76314">
        <ele>743.1</ele>
        <time>2024-07-18T16:46:41Z</time>
      </trkpt>
      <trkpt lat="48.03207" lon="6.76329">
        <ele>742.1</ele>
        <time>2024-07-18T16:46:43Z</time>
      </trkpt>
      <trkpt lat="48.0322" lon="6.76342">
        <ele>741.1</ele>
        <time>2024-07-18T16:46:45Z</time>
      </trkpt>
      <trkpt lat="48.0322" lon="6.76363">
        <ele>740.1</ele>
        <time>2024-07-18T16:46:47Z</time>
      </trkpt>
      <trkpt lat="48.03213" lon="6.76373">
        <ele>739.3</ele>
        <time>2024-07-18T16:46:48Z</time>
      </trkpt>
      <trkpt lat="48.03205" lon="6.7638">
        <ele>738.4</ele>
        <time>2024-07-18T16:46:49Z</time>
      </trkpt>
      <trkpt lat="48.03197" lon="6.76387">
        <ele>737.5</ele>
        <time>2024-07-18T16:46:50Z</time>
      </trkpt>
      <trkpt lat="48.03189" lon="6.76395">
        <ele>736.5</ele>
        <time>2024-07-18T16:46:51Z</time>
      </trkpt>
      <trkpt lat="48.03181" lon="6.76405">
        <ele>735.4</ele>
        <time>2024-07-18T16:46:52Z</time>
      </trkpt>
      <trkpt lat="48.03173" lon="6.76426">
        <ele>733.6</ele>
        <time>2024-07-18T16:46:54Z</time>
      </trkpt>
      <trkpt lat="48.03169" lon="6.76452">
        <ele>731.8</ele>
        <time>2024-07-18T16:46:56Z</time>
      </trkpt>
      <trkpt lat="48.03167" lon="6.76465">
        <ele>730.8</ele>
        <time>2024-07-18T16:46:57Z</time>
      </trkpt>
      <trkpt lat="48.03165" lon="6.76491">
        <ele>729.1</ele>
        <time>2024-07-18T16:46:59Z</time>
      </trkpt>
      <trkpt lat="48.03162" lon="6.76506">
        <ele>728.1</ele>
        <time>2024-07-18T16:47:00Z</time>
      </trkpt>
      <trkpt lat="48.0316" lon="6.76521">
        <ele>727</ele>
        <time>2024-07-18T16:47:01Z</time>
      </trkpt>
      <trkpt lat="48.03154" lon="6.76544">
        <ele>725.3</ele>
        <time>2024-07-18T16:47:03Z</time>
      </trkpt>
      <trkpt lat="48.03146" lon="6.76562">
        <ele>723.7</ele>
        <time>2024-07-18T16:47:04Z</time>
      </trkpt>
      <trkpt lat="48.03137" lon="6.76578">
        <ele>722.3</ele>
        <time>2024-07-18T16:47:05Z</time>
      </trkpt>
      <trkpt lat="48.03128" lon="6.76595">
        <ele>720.6</ele>
        <time>2024-07-18T16:47:06Z</time>
      </trkpt>
      <trkpt lat="48.03121" lon="6.76612">
        <ele>719.1</ele>
        <time>2024-07-18T16:47:07Z</time>
      </trkpt>
      <trkpt lat="48.03113" lon="6.76634">
        <ele>717.3</ele>
        <time>2024-07-18T16:47:08Z</time>
      </trkpt>
      <trkpt lat="48.03107" lon="6.76655">
        <ele>715.7</ele>
        <time>2024-07-18T16:47:09Z</time>
      </trkpt>
      <trkpt lat="48.03101" lon="6.76674">
        <ele>714.2</ele>
        <time>2024-07-18T16:47:10Z</time>
      </trkpt>
      <trkpt lat="48.03097" lon="6.76694">
        <ele>712.6</ele>
        <time>2024-07-18T16:47:11Z</time>
      </trkpt>
      <trkpt lat="48.03097" lon="6.76712">
        <ele>711.3</ele>
        <time>2024-07-18T16:47:12Z</time>
      </trkpt>
      <trkpt lat="48.03095" lon="6.76734">
        <ele>709.7</ele>
        <time>2024-07-18T16:47:13Z</time>
      </trkpt>
      <trkpt lat="48.03098" lon="6.76756">
        <ele>708.1</ele>
        <time>2024-07-18T16:47:14Z</time>
      </trkpt>
      <trkpt lat="48.03101" lon="6.76777">
        <ele>706.5</ele>
        <time>2024-07-18T16:47:15Z</time>
      </trkpt>
      <trkpt lat="48.03103" lon="6.76799">
        <ele>704.9</ele>
        <time>2024-07-18T16:47:16Z</time>
      </trkpt>
      <trkpt lat="48.03106" lon="6.76821">
        <ele>703.3</ele>
        <time>2024-07-18T16:47:17Z</time>
      </trkpt>
      <trkpt lat="48.03107" lon="6.76843">
        <ele>701.7</ele>
        <time>2024-07-18T16:47:18Z</time>
      </trkpt>
      <trkpt lat="48.03109" lon="6.76864">
        <ele>700.1</ele>
        <time>2024-07-18T16:47:19Z</time>
      </trkpt>
      <trkpt lat="48.03111" lon="6.76886">
        <ele>698.6</ele>
        <time>2024-07-18T16:47:20Z</time>
      </trkpt>
      <trkpt lat="48.03114" lon="6.76906">
        <ele>697.3</ele>
        <time>2024-07-18T16:47:21Z</time>
      </trkpt>
      <trkpt lat="48.03116" lon="6.76927">
        <ele>696</ele>
        <time>2024-07-18T16:47:22Z</time>
      </trkpt>
      <trkpt lat="48.03117" lon="6.76949">
        <ele>694.6</ele>
        <time>2024-07-18T16:47:23Z</time>
      </trkpt>
      <trkpt lat="48.0312" lon="6.76968">
        <ele>693.3</ele>
        <time>2024-07-18T16:47:24Z</time>
      </trkpt>
      <trkpt lat="48.03122" lon="6.76986">
        <ele>692</ele>
        <time>2024-07-18T16:47:25Z</time>
      </trkpt>
      <trkpt lat="48.03126" lon="6.77003">
        <ele>690.7</ele>
        <time>2024-07-18T16:47:26Z</time>
      </trkpt>
      <trkpt lat="48.03131" lon="6.77021">
        <ele>689.3</ele>
        <time>2024-07-18T16:47:27Z</time>
      </trkpt>
      <trkpt lat="48.03136" lon="6.77038">
        <ele>687.9</ele>
        <time>2024-07-18T16:47:28Z</time>
      </trkpt>
      <trkpt lat="48.03142" lon="6.77056">
        <ele>686.4</ele>
        <time>2024-07-18T16:47:29Z</time>
      </trkpt>
      <trkpt lat="48.03148" lon="6.77073">
        <ele>685</ele>
        <time>2024-07-18T16:47:30Z</time>
      </trkpt>
      <trkpt lat="48.03154" lon="6.7709">
        <ele>683.5</ele>
        <time>2024-07-18T16:47:31Z</time>
      </trkpt>
      <trkpt lat="48.03159" lon="6.77109">
        <ele>682</ele>
        <time>2024-07-18T16:47:32Z</time>
      </trkpt>
      <trkpt lat="48.03162" lon="6.77128">
        <ele>680.6</ele>
        <time>2024-07-18T16:47:33Z</time>
      </trkpt>
      <trkpt lat="48.03165" lon="6.77146">
        <ele>679.1</ele>
        <time>2024-07-18T16:47:34Z</time>
      </trkpt>
      <trkpt lat="48.03167" lon="6.77164">
        <ele>677.8</ele>
        <time>2024-07-18T16:47:35Z</time>
      </trkpt>
      <trkpt lat="48.03168" lon="6.77181">
        <ele>676.5</ele>
        <time>2024-07-18T16:47:36Z</time>
      </trkpt>
      <trkpt lat="48.03169" lon="6.772">
        <ele>675.1</ele>
        <time>2024-07-18T16:47:37Z</time>
      </trkpt>
      <trkpt lat="48.03171" lon="6.77215">
        <ele>674</ele>
        <time>2024-07-18T16:47:38Z</time>
      </trkpt>
      <trkpt lat="48.03173" lon="6.77233">
        <ele>672.8</ele>
        <time>2024-07-18T16:47:39Z</time>
      </trkpt>
      <trkpt lat="48.03175" lon="6.77251">
        <ele>671.5</ele>
        <time>2024-07-18T16:47:40Z</time>
      </trkpt>
      <trkpt lat="48.03178" lon="6.77269">
        <ele>670.3</ele>
        <time>2024-07-18T16:47:41Z</time>
      </trkpt>
      <trkpt lat="48.0318" lon="6.77287">
        <ele>669</ele>
        <time>2024-07-18T16:47:42Z</time>
      </trkpt>
      <trkpt lat="48.03183" lon="6.77305">
        <ele>667.7</ele>
        <time>2024-07-18T16:47:43Z</time>
      </trkpt>
      <trkpt lat="48.03185" lon="6.77324">
        <ele>666.3</ele>
        <time>2024-07-18T16:47:44Z</time>
      </trkpt>
      <trkpt lat="48.03187" lon="6.77344">
        <ele>665</ele>
        <time>2024-07-18T16:47:45Z</time>
      </trkpt>
      <trkpt lat="48.03189" lon="6.77363">
        <ele>663.7</ele>
        <time>2024-07-18T16:47:46Z</time>
      </trkpt>
      <trkpt lat="48.0319" lon="6.77381">
        <ele>662.7</ele>
        <time>2024-07-18T16:47:47Z</time>
      </trkpt>
      <trkpt lat="48.03192" lon="6.77397">
        <ele>661.7</ele>
        <time>2024-07-18T16:47:48Z</time>
      </trkpt>
      <trkpt lat="48.03193" lon="6.77413">
        <ele>660.8</ele>
        <time>2024-07-18T16:47:49Z</time>
      </trkpt>
      <trkpt lat="48.03194" lon="6.77429">
        <ele>659.9</ele>
        <time>2024-07-18T16:47:50Z</time>
      </trkpt>
      <trkpt lat="48.03195" lon="6.77443">
        <ele>659.1</ele>
        <time>2024-07-18T16:47:51Z</time>
      </trkpt>
      <trkpt lat="48.03198" lon="6.77467">
        <ele>657.8</ele>
        <time>2024-07-18T16:47:53Z</time>
      </trkpt>
      <trkpt lat="48.03199" lon="6.77485">
        <ele>656.8</ele>
        <time>2024-07-18T16:47:55Z</time>
      </trkpt>
      <trkpt lat="48.03198" lon="6.77503">
        <ele>655.8</ele>
        <time>2024-07-18T16:47:57Z</time>
      </trkpt>
      <trkpt lat="48.03193" lon="6.77522">
        <ele>654.6</ele>
        <time>2024-07-18T16:47:59Z</time>
      </trkpt>
      <trkpt lat="48.0319" lon="6.77545">
        <ele>653.3</ele>
        <time>2024-07-18T16:48:01Z</time>
      </trkpt>
      <trkpt lat="48.0319" lon="6.77569">
        <ele>652.1</ele>
        <time>2024-07-18T16:48:03Z</time>
      </trkpt>
      <trkpt lat="48.03193" lon="6.77595">
        <ele>650.9</ele>
        <time>2024-07-18T16:48:05Z</time>
      </trkpt>
      <trkpt lat="48.03195" lon="6.77608">
        <ele>650.3</ele>
        <time>2024-07-18T16:48:06Z</time>
      </trkpt>
      <trkpt lat="48.03196" lon="6.77622">
        <ele>650</ele>
        <time>2024-07-18T16:48:07Z</time>
      </trkpt>
      <trkpt lat="48.03198" lon="6.77637">
        <ele>650</ele>
        <time>2024-07-18T16:48:08Z</time>
      </trkpt>
      <trkpt lat="48.03198" lon="6.77652">
        <ele>649.1</ele>
        <time>2024-07-18T16:48:09Z</time>
      </trkpt>
      <trkpt lat="48.03198" lon="6.77668">
        <ele>648.1</ele>
        <time>2024-07-18T16:48:10Z</time>
      </trkpt>
      <trkpt lat="48.03196" lon="6.77684">
        <ele>647.2</ele>
        <time>2024-07-18T16:48:11Z</time>
      </trkpt>
      <trkpt lat="48.03194" lon="6.77699">
        <ele>646.2</ele>
        <time>2024-07-18T16:48:12Z</time>
      </trkpt>
      <trkpt lat="48.03191" lon="6.77715">
        <ele>645.2</ele>
        <time>2024-07-18T16:48:13Z</time>
      </trkpt>
      <trkpt lat="48.03189" lon="6.77731">
        <ele>644.2</ele>
        <time>2024-07-18T16:48:14Z</time>
      </trkpt>
      <trkpt lat="48.03187" lon="6.77747">
        <ele>643.2</ele>
        <time>2024-07-18T16:48:15Z</time>
      </trkpt>
      <trkpt lat="48.03185" lon="6.77763">
        <ele>642.2</ele>
        <time>2024-07-18T16:48:16Z</time>
      </trkpt>
      <trkpt lat="48.03183" lon="6.77779">
        <ele>641.2</ele>
        <time>2024-07-18T16:48:17Z</time>
      </trkpt>
      <trkpt lat="48.03179" lon="6.77795">
        <ele>640.3</ele>
        <time>2024-07-18T16:48:18Z</time>
      </trkpt>
      <trkpt lat="48.03173" lon="6.7781">
        <ele>639.7</ele>
        <time>2024-07-18T16:48:19Z</time>
      </trkpt>
      <trkpt lat="48.03167" lon="6.77824">
        <ele>639.1</ele>
        <time>2024-07-18T16:48:20Z</time>
      </trkpt>
      <trkpt lat="48.03161" lon="6.77838">
        <ele>638.6</ele>
        <time>2024-07-18T16:48:21Z</time>
      </trkpt>
      <trkpt lat="48.03153" lon="6.77852">
        <ele>638</ele>
        <time>2024-07-18T16:48:22Z</time>
      </trkpt>
      <trkpt lat="48.03147" lon="6.77865">
        <ele>637.4</ele>
        <time>2024-07-18T16:48:23Z</time>
      </trkpt>
      <trkpt lat="48.03143" lon="6.77878">
        <ele>636.8</ele>
        <time>2024-07-18T16:48:24Z</time>
      </trkpt>
      <trkpt lat="48.03141" lon="6.77892">
        <ele>636.1</ele>
        <time>2024-07-18T16:48:25Z</time>
      </trkpt>
      <trkpt lat="48.03141" lon="6.77906">
        <ele>635.5</ele>
        <time>2024-07-18T16:48:26Z</time>
      </trkpt>
      <trkpt lat="48.03142" lon="6.77921">
        <ele>634.9</ele>
        <time>2024-07-18T16:48:27Z</time>
      </trkpt>
      <trkpt lat="48.03143" lon="6.77936">
        <ele>634.2</ele>
        <time>2024-07-18T16:48:28Z</time>
      </trkpt>
      <trkpt lat="48.03143" lon="6.77951">
        <ele>633.6</ele>
        <time>2024-07-18T16:48:29Z</time>
      </trkpt>
      <trkpt lat="48.03143" lon="6.77966">
        <ele>633</ele>
        <time>2024-07-18T16:48:30Z</time>
      </trkpt>
      <trkpt lat="48.03142" lon="6.77982">
        <ele>632.4</ele>
        <time>2024-07-18T16:48:31Z</time>
      </trkpt>
      <trkpt lat="48.03142" lon="6.77997">
        <ele>631.8</ele>
        <time>2024-07-18T16:48:32Z</time>
      </trkpt>
      <trkpt lat="48.03142" lon="6.78012">
        <ele>631.3</ele>
        <time>2024-07-18T16:48:33Z</time>
      </trkpt>
      <trkpt lat="48.03142" lon="6.78026">
        <ele>630.9</ele>
        <time>2024-07-18T16:48:34Z</time>
      </trkpt>
      <trkpt lat="48.03143" lon="6.78041">
        <ele>630.4</ele>
        <time>2024-07-18T16:48:35Z</time>
      </trkpt>
      <trkpt lat="48.03143" lon="6.78055">
        <ele>629.9</ele>
        <time>2024-07-18T16:48:36Z</time>
      </trkpt>
      <trkpt lat="48.03145" lon="6.7808">
        <ele>629</ele>
        <time>2024-07-18T16:48:38Z</time>
      </trkpt>
      <trkpt lat="48.03148" lon="6.78102">
        <ele>628.2</ele>
        <time>2024-07-18T16:48:40Z</time>
      </trkpt>
      <trkpt lat="48.03154" lon="6.78123">
        <ele>627.3</ele>
        <time>2024-07-18T16:48:42Z</time>
      </trkpt>
      <trkpt lat="48.03165" lon="6.78139">
        <ele>626.4</ele>
        <time>2024-07-18T16:48:44Z</time>
      </trkpt>
      <trkpt lat="48.03179" lon="6.78152">
        <ele>625.5</ele>
        <time>2024-07-18T16:48:46Z</time>
      </trkpt>
      <trkpt lat="48.03192" lon="6.78163">
        <ele>628</ele>
        <time>2024-07-18T16:48:48Z</time>
      </trkpt>
      <trkpt lat="48.032" lon="6.78174">
        <ele>629.8</ele>
        <time>2024-07-18T16:48:50Z</time>
      </trkpt>
      <trkpt lat="48.03198" lon="6.78189">
        <ele>631.5</ele>
        <time>2024-07-18T16:48:54Z</time>
      </trkpt>
      <trkpt lat="48.03194" lon="6.78201">
        <ele>633</ele>
        <time>2024-07-18T16:48:58Z</time>
      </trkpt>
      <trkpt lat="48.03192" lon="6.78216">
        <ele>634.3</ele>
        <time>2024-07-18T16:49:03Z</time>
      </trkpt>
      <trkpt lat="48.03198" lon="6.78204">
        <ele>633</ele>
        <time>2024-07-18T16:49:17Z</time>
      </trkpt>
      <trkpt lat="48.032" lon="6.78185">
        <ele>631.1</ele>
        <time>2024-07-18T16:49:20Z</time>
      </trkpt>
      <trkpt lat="48.032" lon="6.7817">
        <ele>629.6</ele>
        <time>2024-07-18T16:49:22Z</time>
      </trkpt>
      <trkpt lat="48.03198" lon="6.78156">
        <ele>628.1</ele>
        <time>2024-07-18T16:49:24Z</time>
      </trkpt>
      <trkpt lat="48.03188" lon="6.78151">
        <ele>626.6</ele>
        <time>2024-07-18T16:49:26Z</time>
      </trkpt>
      <trkpt lat="48.03178" lon="6.78163">
        <ele>624.7</ele>
        <time>2024-07-18T16:49:29Z</time>
      </trkpt>
      <trkpt lat="48.03177" lon="6.78178">
        <ele>624</ele>
        <time>2024-07-18T16:49:31Z</time>
      </trkpt>
      <trkpt lat="48.03176" lon="6.78196">
        <ele>623.2</ele>
        <time>2024-07-18T16:49:33Z</time>
      </trkpt>
      <trkpt lat="48.03176" lon="6.78214">
        <ele>622.4</ele>
        <time>2024-07-18T16:49:35Z</time>
      </trkpt>
      <trkpt lat="48.03176" lon="6.78235">
        <ele>621.4</ele>
        <time>2024-07-18T16:49:37Z</time>
      </trkpt>
      <trkpt lat="48.03176" lon="6.78258">
        <ele>620.4</ele>
        <time>2024-07-18T16:49:39Z</time>
      </trkpt>
      <trkpt lat="48.03177" lon="6.78281">
        <ele>619.4</ele>
        <time>2024-07-18T16:49:41Z</time>
      </trkpt>
      <trkpt lat="48.0318" lon="6.78306">
        <ele>618.3</ele>
        <time>2024-07-18T16:49:43Z</time>
      </trkpt>
      <trkpt lat="48.03183" lon="6.7833">
        <ele>617.1</ele>
        <time>2024-07-18T16:49:45Z</time>
      </trkpt>
      <trkpt lat="48.03186" lon="6.78355">
        <ele>616</ele>
        <time>2024-07-18T16:49:47Z</time>
      </trkpt>
      <trkpt lat="48.03187" lon="6.78382">
        <ele>615</ele>
        <time>2024-07-18T16:49:49Z</time>
      </trkpt>
      <trkpt lat="48.03188" lon="6.78395">
        <ele>614.4</ele>
        <time>2024-07-18T16:49:50Z</time>
      </trkpt>
      <trkpt lat="48.03188" lon="6.78409">
        <ele>613.9</ele>
        <time>2024-07-18T16:49:51Z</time>
      </trkpt>
      <trkpt lat="48.03188" lon="6.78424">
        <ele>613.4</ele>
        <time>2024-07-18T16:49:52Z</time>
      </trkpt>
      <trkpt lat="48.03189" lon="6.78438">
        <ele>612.9</ele>
        <time>2024-07-18T16:49:53Z</time>
      </trkpt>
      <trkpt lat="48.03191" lon="6.78452">
        <ele>612.3</ele>
        <time>2024-07-18T16:49:54Z</time>
      </trkpt>
      <trkpt lat="48.03193" lon="6.78466">
        <ele>611.6</ele>
        <time>2024-07-18T16:49:55Z</time>
      </trkpt>
      <trkpt lat="48.03196" lon="6.78481">
        <ele>611</ele>
        <time>2024-07-18T16:49:56Z</time>
      </trkpt>
      <trkpt lat="48.032" lon="6.78495">
        <ele>610.4</ele>
        <time>2024-07-18T16:49:57Z</time>
      </trkpt>
      <trkpt lat="48.03203" lon="6.78509">
        <ele>609.7</ele>
        <time>2024-07-18T16:49:58Z</time>
      </trkpt>
      <trkpt lat="48.03207" lon="6.78524">
        <ele>609</ele>
        <time>2024-07-18T16:49:59Z</time>
      </trkpt>
      <trkpt lat="48.03211" lon="6.78538">
        <ele>608.4</ele>
        <time>2024-07-18T16:50:00Z</time>
      </trkpt>
      <trkpt lat="48.03214" lon="6.78552">
        <ele>607.7</ele>
        <time>2024-07-18T16:50:01Z</time>
      </trkpt>
      <trkpt lat="48.03218" lon="6.78566">
        <ele>607</ele>
        <time>2024-07-18T16:50:02Z</time>
      </trkpt>
      <trkpt lat="48.03222" lon="6.7858">
        <ele>606.4</ele>
        <time>2024-07-18T16:50:03Z</time>
      </trkpt>
      <trkpt lat="48.03226" lon="6.78594">
        <ele>605.7</ele>
        <time>2024-07-18T16:50:04Z</time>
      </trkpt>
      <trkpt lat="48.03229" lon="6.7861">
        <ele>605</ele>
        <time>2024-07-18T16:50:05Z</time>
      </trkpt>
      <trkpt lat="48.03233" lon="6.78625">
        <ele>604.4</ele>
        <time>2024-07-18T16:50:06Z</time>
      </trkpt>
      <trkpt lat="48.03236" lon="6.78639">
        <ele>603.8</ele>
        <time>2024-07-18T16:50:07Z</time>
      </trkpt>
      <trkpt lat="48.03239" lon="6.78652">
        <ele>603.2</ele>
        <time>2024-07-18T16:50:08Z</time>
      </trkpt>
      <trkpt lat="48.03244" lon="6.78673">
        <ele>602.4</ele>
        <time>2024-07-18T16:50:10Z</time>
      </trkpt>
      <trkpt lat="48.03248" lon="6.78688">
        <ele>601.7</ele>
        <time>2024-07-18T16:50:12Z</time>
      </trkpt>
      <trkpt lat="48.03252" lon="6.78704">
        <ele>600.9</ele>
        <time>2024-07-18T16:50:15Z</time>
      </trkpt>
      <trkpt lat="48.03256" lon="6.78719">
        <ele>600.1</ele>
        <time>2024-07-18T16:50:18Z</time>
      </trkpt>
      <trkpt lat="48.03261" lon="6.78738">
        <ele>599.2</ele>
        <time>2024-07-18T16:50:21Z</time>
      </trkpt>
      <trkpt lat="48.03265" lon="6.78753">
        <ele>598.4</ele>
        <time>2024-07-18T16:50:23Z</time>
      </trkpt>
      <trkpt lat="48.0327" lon="6.7877">
        <ele>597.5</ele>
        <time>2024-07-18T16:50:25Z</time>
      </trkpt>
      <trkpt lat="48.03274" lon="6.7879">
        <ele>596.6</ele>
        <time>2024-07-18T16:50:27Z</time>
      </trkpt>
      <trkpt lat="48.0328" lon="6.7881">
        <ele>595.6</ele>
        <time>2024-07-18T16:50:29Z</time>
      </trkpt>
      <trkpt lat="48.03286" lon="6.78832">
        <ele>594.8</ele>
        <time>2024-07-18T16:50:31Z</time>
      </trkpt>
      <trkpt lat="48.03292" lon="6.78854">
        <ele>594.2</ele>
        <time>2024-07-18T16:50:33Z</time>
      </trkpt>
      <trkpt lat="48.03297" lon="6.78876">
        <ele>593.7</ele>
        <time>2024-07-18T16:50:35Z</time>
      </trkpt>
      <trkpt lat="48.03302" lon="6.789">
        <ele>593.4</ele>
        <time>2024-07-18T16:50:37Z</time>
      </trkpt>
      <trkpt lat="48.03307" lon="6.78922">
        <ele>593.2</ele>
        <time>2024-07-18T16:50:39Z</time>
      </trkpt>
      <trkpt lat="48.03309" lon="6.78939">
        <ele>593.1</ele>
        <time>2024-07-18T16:50:41Z</time>
      </trkpt>
      <trkpt lat="48.03311" lon="6.78956">
        <ele>592.9</ele>
        <time>2024-07-18T16:50:44Z</time>
      </trkpt>
      <trkpt lat="48.03307" lon="6.78969">
        <ele>592.7</ele>
        <time>2024-07-18T16:50:50Z</time>
      </trkpt>
      <trkpt lat="48.03302" lon="6.78981">
        <ele>592.8</ele>
        <time>2024-07-18T16:50:54Z</time>
      </trkpt>
      <trkpt lat="48.033" lon="6.78995">
        <ele>592.8</ele>
        <time>2024-07-18T16:50:57Z</time>
      </trkpt>
      <trkpt lat="48.03298" lon="6.79009">
        <ele>592.9</ele>
        <time>2024-07-18T16:51:00Z</time>
      </trkpt>
      <trkpt lat="48.03299" lon="6.79026">
        <ele>593</ele>
        <time>2024-07-18T16:51:04Z</time>
      </trkpt>
      <trkpt lat="48.03298" lon="6.7904">
        <ele>593.2</ele>
        <time>2024-07-18T16:51:07Z</time>
      </trkpt>
      <trkpt lat="48.03297" lon="6.79054">
        <ele>593.4</ele>
        <time>2024-07-18T16:51:10Z</time>
      </trkpt>
      <trkpt lat="48.03296" lon="6.79069">
        <ele>593.7</ele>
        <time>2024-07-18T16:51:13Z</time>
      </trkpt>
      <trkpt lat="48.03295" lon="6.79085">
        <ele>594</ele>
        <time>2024-07-18T16:51:16Z</time>
      </trkpt>
      <trkpt lat="48.03295" lon="6.79102">
        <ele>594.3</ele>
        <time>2024-07-18T16:51:19Z</time>
      </trkpt>
      <trkpt lat="48.03297" lon="6.7912">
        <ele>594.5</ele>
        <time>2024-07-18T16:51:22Z</time>
      </trkpt>
      <trkpt lat="48.033" lon="6.79133">
        <ele>594.6</ele>
        <time>2024-07-18T16:51:24Z</time>
      </trkpt>
      <trkpt lat="48.03305" lon="6.79145">
        <ele>594.7</ele>
        <time>2024-07-18T16:51:26Z</time>
      </trkpt>
      <trkpt lat="48.03311" lon="6.79158">
        <ele>594.5</ele>
        <time>2024-07-18T16:51:28Z</time>
      </trkpt>
      <trkpt lat="48.03316" lon="6.7917">
        <ele>594.2</ele>
        <time>2024-07-18T16:51:30Z</time>
      </trkpt>
      <trkpt lat="48.03322" lon="6.79181">
        <ele>594.1</ele>
        <time>2024-07-18T16:51:32Z</time>
      </trkpt>
      <trkpt lat="48.03331" lon="6.79194">
        <ele>593.9</ele>
        <time>2024-07-18T16:51:35Z</time>
      </trkpt>
      <trkpt lat="48.03339" lon="6.79207">
        <ele>593.8</ele>
        <time>2024-07-18T16:51:38Z</time>
      </trkpt>
      <trkpt lat="48.03348" lon="6.79219">
        <ele>593.8</ele>
        <time>2024-07-18T16:51:41Z</time>
      </trkpt>
      <trkpt lat="48.03357" lon="6.79229">
        <ele>593.8</ele>
        <time>2024-07-18T16:51:44Z</time>
      </trkpt>
      <trkpt lat="48.03365" lon="6.79241">
        <ele>593.9</ele>
        <time>2024-07-18T16:51:47Z</time>
      </trkpt>
      <trkpt lat="48.03372" lon="6.79257">
        <ele>594.1</ele>
        <time>2024-07-18T16:51:50Z</time>
      </trkpt>
      <trkpt lat="48.03376" lon="6.7927">
        <ele>594.4</ele>
        <time>2024-07-18T16:51:53Z</time>
      </trkpt>
      <trkpt lat="48.03382" lon="6.79288">
        <ele>594.8</ele>
        <time>2024-07-18T16:51:56Z</time>
      </trkpt>
      <trkpt lat="48.03384" lon="6.79305">
        <ele>595.1</ele>
        <time>2024-07-18T16:51:59Z</time>
      </trkpt>
      <trkpt lat="48.03383" lon="6.79323">
        <ele>595.5</ele>
        <time>2024-07-18T16:52:02Z</time>
      </trkpt>
      <trkpt lat="48.03382" lon="6.7934">
        <ele>595.9</ele>
        <time>2024-07-18T16:52:05Z</time>
      </trkpt>
      <trkpt lat="48.03377" lon="6.79356">
        <ele>596.3</ele>
        <time>2024-07-18T16:52:08Z</time>
      </trkpt>
      <trkpt lat="48.03368" lon="6.79367">
        <ele>596.5</ele>
        <time>2024-07-18T16:52:11Z</time>
      </trkpt>
      <trkpt lat="48.03358" lon="6.79372">
        <ele>596.8</ele>
        <time>2024-07-18T16:52:14Z</time>
      </trkpt>
      <trkpt lat="48.03349" lon="6.79373">
        <ele>597.3</ele>
        <time>2024-07-18T16:52:17Z</time>
      </trkpt>
      <trkpt lat="48.0334" lon="6.79369">
        <ele>597.8</ele>
        <time>2024-07-18T16:52:21Z</time>
      </trkpt>
      <trkpt lat="48.03331" lon="6.79361">
        <ele>598.4</ele>
        <time>2024-07-18T16:52:25Z</time>
      </trkpt>
      <trkpt lat="48.03323" lon="6.79356">
        <ele>599</ele>
        <time>2024-07-18T16:52:29Z</time>
      </trkpt>
      <trkpt lat="48.03313" lon="6.79354">
        <ele>599.7</ele>
        <time>2024-07-18T16:52:34Z</time>
      </trkpt>
      <trkpt lat="48.03304" lon="6.79356">
        <ele>600.4</ele>
        <time>2024-07-18T16:52:40Z</time>
      </trkpt>
      <trkpt lat="48.03295" lon="6.79358">
        <ele>601</ele>
        <time>2024-07-18T16:52:45Z</time>
      </trkpt>
      <trkpt lat="48.03283" lon="6.79361">
        <ele>601.6</ele>
        <time>2024-07-18T16:52:50Z</time>
      </trkpt>
      <trkpt lat="48.03273" lon="6.79366">
        <ele>602.1</ele>
        <time>2024-07-18T16:52:53Z</time>
      </trkpt>
      <trkpt lat="48.03263" lon="6.7937">
        <ele>602.7</ele>
        <time>2024-07-18T16:52:56Z</time>
      </trkpt>
      <trkpt lat="48.03252" lon="6.79372">
        <ele>603.3</ele>
        <time>2024-07-18T16:53:00Z</time>
      </trkpt>
      <trkpt lat="48.03242" lon="6.7937">
        <ele>603.9</ele>
        <time>2024-07-18T16:53:04Z</time>
      </trkpt>
      <trkpt lat="48.03233" lon="6.79365">
        <ele>604.4</ele>
        <time>2024-07-18T16:53:09Z</time>
      </trkpt>
      <trkpt lat="48.03224" lon="6.79357">
        <ele>605</ele>
        <time>2024-07-18T16:53:14Z</time>
      </trkpt>
      <trkpt lat="48.03216" lon="6.79345">
        <ele>605.7</ele>
        <time>2024-07-18T16:53:19Z</time>
      </trkpt>
      <trkpt lat="48.0321" lon="6.79331">
        <ele>606.3</ele>
        <time>2024-07-18T16:53:24Z</time>
      </trkpt>
      <trkpt lat="48.03209" lon="6.79316">
        <ele>606.8</ele>
        <time>2024-07-18T16:53:29Z</time>
      </trkpt>
      <trkpt lat="48.03208" lon="6.79303">
        <ele>607.4</ele>
        <time>2024-07-18T16:53:34Z</time>
      </trkpt>
      <trkpt lat="48.03208" lon="6.79288">
        <ele>607.9</ele>
        <time>2024-07-18T16:53:39Z</time>
      </trkpt>
      <trkpt lat="48.0321" lon="6.79272">
        <ele>608.6</ele>
        <time>2024-07-18T16:53:44Z</time>
      </trkpt>
      <trkpt lat="48.03214" lon="6.7926">
        <ele>609.2</ele>
        <time>2024-07-18T16:53:49Z</time>
      </trkpt>
      <trkpt lat="48.03216" lon="6.79246">
        <ele>609.8</ele>
        <time>2024-07-18T16:53:54Z</time>
      </trkpt>
      <trkpt lat="48.03211" lon="6.79233">
        <ele>610.5</ele>
        <time>2024-07-18T16:53:59Z</time>
      </trkpt>
      <trkpt lat="48.03204" lon="6.79223">
        <ele>611.2</ele>
        <time>2024-07-18T16:54:05Z</time>
      </trkpt>
      <trkpt lat="48.03195" lon="6.79217">
        <ele>611.8</ele>
        <time>2024-07-18T16:54:11Z</time>
      </trkpt>
      <trkpt lat="48.03185" lon="6.79216">
        <ele>612.5</ele>
        <time>2024-07-18T16:54:16Z</time>
      </trkpt>
      <trkpt lat="48.03175" lon="6.79217">
        <ele>613.1</ele>
        <time>2024-07-18T16:54:21Z</time>
      </trkpt>
      <trkpt lat="48.03165" lon="6.79217">
        <ele>613.8</ele>
        <time>2024-07-18T16:54:27Z</time>
      </trkpt>
      <trkpt lat="48.03156" lon="6.79223">
        <ele>614.5</ele>
        <time>2024-07-18T16:54:32Z</time>
      </trkpt>
      <trkpt lat="48.03147" lon="6.79224">
        <ele>615.1</ele>
        <time>2024-07-18T16:54:37Z</time>
      </trkpt>
      <trkpt lat="48.03137" lon="6.79226">
        <ele>615.7</ele>
        <time>2024-07-18T16:54:42Z</time>
      </trkpt>
      <trkpt lat="48.03127" lon="6.79227">
        <ele>616.4</ele>
        <time>2024-07-18T16:54:47Z</time>
      </trkpt>
      <trkpt lat="48.03118" lon="6.79229">
        <ele>617.1</ele>
        <time>2024-07-18T16:54:52Z</time>
      </trkpt>
      <trkpt lat="48.03109" lon="6.79231">
        <ele>617.8</ele>
        <time>2024-07-18T16:54:56Z</time>
      </trkpt>
      <trkpt lat="48.03099" lon="6.7923">
        <ele>618.5</ele>
        <time>2024-07-18T16:55:01Z</time>
      </trkpt>
      <trkpt lat="48.03089" lon="6.79229">
        <ele>619.3</ele>
        <time>2024-07-18T16:55:06Z</time>
      </trkpt>
      <trkpt lat="48.03079" lon="6.79224">
        <ele>620.1</ele>
        <time>2024-07-18T16:55:10Z</time>
      </trkpt>
      <trkpt lat="48.0307" lon="6.79217">
        <ele>620.8</ele>
        <time>2024-07-18T16:55:14Z</time>
      </trkpt>
      <trkpt lat="48.03063" lon="6.79208">
        <ele>621.4</ele>
        <time>2024-07-18T16:55:19Z</time>
      </trkpt>
      <trkpt lat="48.0306" lon="6.79195">
        <ele>622</ele>
        <time>2024-07-18T16:55:24Z</time>
      </trkpt>
      <trkpt lat="48.0306" lon="6.7918">
        <ele>622.6</ele>
        <time>2024-07-18T16:55:30Z</time>
      </trkpt>
      <trkpt lat="48.03058" lon="6.79165">
        <ele>623.1</ele>
        <time>2024-07-18T16:55:36Z</time>
      </trkpt>
      <trkpt lat="48.03054" lon="6.79151">
        <ele>623.5</ele>
        <time>2024-07-18T16:55:41Z</time>
      </trkpt>
      <trkpt lat="48.03045" lon="6.79147">
        <ele>623.9</ele>
        <time>2024-07-18T16:55:46Z</time>
      </trkpt>
      <trkpt lat="48.0304" lon="6.79159">
        <ele>624.4</ele>
        <time>2024-07-18T16:55:51Z</time>
      </trkpt>
      <trkpt lat="48.03041" lon="6.79174">
        <ele>624.8</ele>
        <time>2024-07-18T16:55:56Z</time>
      </trkpt>
      <trkpt lat="48.03044" lon="6.79187">
        <ele>625.1</ele>
        <time>2024-07-18T16:56:00Z</time>
      </trkpt>
      <trkpt lat="48.03046" lon="6.79201">
        <ele>625.4</ele>
        <time>2024-07-18T16:56:03Z</time>
      </trkpt>
      <trkpt lat="48.03047" lon="6.79216">
        <ele>625.7</ele>
        <time>2024-07-18T16:56:08Z</time>
      </trkpt>
      <trkpt lat="48.03051" lon="6.79228">
        <ele>625.9</ele>
        <time>2024-07-18T16:56:15Z</time>
      </trkpt>
      <trkpt lat="48.03059" lon="6.79236">
        <ele>626.1</ele>
        <time>2024-07-18T16:56:21Z</time>
      </trkpt>
      <trkpt lat="48.0307" lon="6.79242">
        <ele>626.4</ele>
        <time>2024-07-18T16:56:26Z</time>
      </trkpt>
      <trkpt lat="48.0308" lon="6.79245">
        <ele>626.7</ele>
        <time>2024-07-18T16:56:30Z</time>
      </trkpt>
      <trkpt lat="48.03091" lon="6.79248">
        <ele>627</ele>
        <time>2024-07-18T16:56:34Z</time>
      </trkpt>
      <trkpt lat="48.03101" lon="6.79255">
        <ele>627.3</ele>
        <time>2024-07-18T16:56:37Z</time>
      </trkpt>
      <trkpt lat="48.0311" lon="6.79263">
        <ele>627.7</ele>
        <time>2024-07-18T16:56:40Z</time>
      </trkpt>
      <trkpt lat="48.0312" lon="6.7927">
        <ele>628.1</ele>
        <time>2024-07-18T16:56:43Z</time>
      </trkpt>
      <trkpt lat="48.0313" lon="6.7928">
        <ele>628.7</ele>
        <time>2024-07-18T16:56:47Z</time>
      </trkpt>
      <trkpt lat="48.03136" lon="6.79292">
        <ele>629.2</ele>
        <time>2024-07-18T16:56:50Z</time>
      </trkpt>
      <trkpt lat="48.03141" lon="6.79304">
        <ele>629.7</ele>
        <time>2024-07-18T16:56:54Z</time>
      </trkpt>
      <trkpt lat="48.03146" lon="6.79319">
        <ele>630.1</ele>
        <time>2024-07-18T16:56:59Z</time>
      </trkpt>
      <trkpt lat="48.03148" lon="6.79332">
        <ele>630.5</ele>
        <time>2024-07-18T16:57:03Z</time>
      </trkpt>
      <trkpt lat="48.03149" lon="6.79347">
        <ele>630.9</ele>
        <time>2024-07-18T16:57:07Z</time>
      </trkpt>
      <trkpt lat="48.03153" lon="6.79362">
        <ele>631.4</ele>
        <time>2024-07-18T16:57:11Z</time>
      </trkpt>
      <trkpt lat="48.03158" lon="6.79378">
        <ele>631.7</ele>
        <time>2024-07-18T16:57:14Z</time>
      </trkpt>
      <trkpt lat="48.03167" lon="6.79388">
        <ele>632</ele>
        <time>2024-07-18T16:57:17Z</time>
      </trkpt>
      <trkpt lat="48.03177" lon="6.794">
        <ele>632.4</ele>
        <time>2024-07-18T16:57:21Z</time>
      </trkpt>
      <trkpt lat="48.03184" lon="6.79412">
        <ele>632.8</ele>
        <time>2024-07-18T16:57:24Z</time>
      </trkpt>
      <trkpt lat="48.0319" lon="6.79426">
        <ele>633.1</ele>
        <time>2024-07-18T16:57:28Z</time>
      </trkpt>
      <trkpt lat="48.03197" lon="6.79435">
        <ele>633.4</ele>
        <time>2024-07-18T16:57:31Z</time>
      </trkpt>
      <trkpt lat="48.03204" lon="6.79448">
        <ele>633.6</ele>
        <time>2024-07-18T16:57:34Z</time>
      </trkpt>
      <trkpt lat="48.03211" lon="6.79456">
        <ele>633.9</ele>
        <time>2024-07-18T16:57:37Z</time>
      </trkpt>
      <trkpt lat="48.0322" lon="6.79464">
        <ele>634.1</ele>
        <time>2024-07-18T16:57:39Z</time>
      </trkpt>
      <trkpt lat="48.03229" lon="6.79471">
        <ele>634.4</ele>
        <time>2024-07-18T16:57:42Z</time>
      </trkpt>
      <trkpt lat="48.03238" lon="6.79481">
        <ele>634.6</ele>
        <time>2024-07-18T16:57:45Z</time>
      </trkpt>
      <trkpt lat="48.03246" lon="6.79492">
        <ele>634.9</ele>
        <time>2024-07-18T16:57:48Z</time>
      </trkpt>
      <trkpt lat="48.03259" lon="6.795">
        <ele>635.3</ele>
        <time>2024-07-18T16:57:51Z</time>
      </trkpt>
      <trkpt lat="48.0327" lon="6.79509">
        <ele>635.6</ele>
        <time>2024-07-18T16:57:54Z</time>
      </trkpt>
      <trkpt lat="48.03276" lon="6.7952">
        <ele>635.8</ele>
        <time>2024-07-18T16:57:58Z</time>
      </trkpt>
      <trkpt lat="48.03279" lon="6.79534">
        <ele>636</ele>
        <time>2024-07-18T16:58:02Z</time>
      </trkpt>
      <trkpt lat="48.03283" lon="6.79548">
        <ele>636.1</ele>
        <time>2024-07-18T16:58:06Z</time>
      </trkpt>
      <trkpt lat="48.03287" lon="6.7956">
        <ele>636.3</ele>
        <time>2024-07-18T16:58:10Z</time>
      </trkpt>
      <trkpt lat="48.03292" lon="6.79572">
        <ele>636.5</ele>
        <time>2024-07-18T16:58:13Z</time>
      </trkpt>
      <trkpt lat="48.03293" lon="6.79588">
        <ele>636.5</ele>
        <time>2024-07-18T16:58:18Z</time>
      </trkpt>
      <trkpt lat="48.03291" lon="6.79602">
        <ele>636.3</ele>
        <time>2024-07-18T16:58:21Z</time>
      </trkpt>
      <trkpt lat="48.03291" lon="6.79617">
        <ele>636.1</ele>
        <time>2024-07-18T16:58:25Z</time>
      </trkpt>
      <trkpt lat="48.03289" lon="6.79633">
        <ele>635.8</ele>
        <time>2024-07-18T16:58:29Z</time>
      </trkpt>
      <trkpt lat="48.03288" lon="6.79647">
        <ele>635.5</ele>
        <time>2024-07-18T16:58:33Z</time>
      </trkpt>
      <trkpt lat="48.03294" lon="6.79663">
        <ele>635.2</ele>
        <time>2024-07-18T16:58:38Z</time>
      </trkpt>
      <trkpt lat="48.03297" lon="6.79679">
        <ele>634.9</ele>
        <time>2024-07-18T16:58:43Z</time>
      </trkpt>
      <trkpt lat="48.03298" lon="6.79695">
        <ele>634.6</ele>
        <time>2024-07-18T16:58:46Z</time>
      </trkpt>
      <trkpt lat="48.03299" lon="6.79711">
        <ele>634.4</ele>
        <time>2024-07-18T16:58:50Z</time>
      </trkpt>
      <trkpt lat="48.03301" lon="6.79728">
        <ele>634.2</ele>
        <time>2024-07-18T16:58:53Z</time>
      </trkpt>
      <trkpt lat="48.03303" lon="6.79742">
        <ele>634.6</ele>
        <time>2024-07-18T16:58:57Z</time>
      </trkpt>
      <trkpt lat="48.03305" lon="6.79756">
        <ele>634.9</ele>
        <time>2024-07-18T16:59:01Z</time>
      </trkpt>
      <trkpt lat="48.03309" lon="6.7977">
        <ele>635.2</ele>
        <time>2024-07-18T16:59:05Z</time>
      </trkpt>
      <trkpt lat="48.03311" lon="6.79784">
        <ele>635.4</ele>
        <time>2024-07-18T16:59:08Z</time>
      </trkpt>
      <trkpt lat="48.03313" lon="6.79798">
        <ele>635.7</ele>
        <time>2024-07-18T16:59:11Z</time>
      </trkpt>
      <trkpt lat="48.03315" lon="6.79812">
        <ele>636</ele>
        <time>2024-07-18T16:59:14Z</time>
      </trkpt>
      <trkpt lat="48.03319" lon="6.79831">
        <ele>636.3</ele>
        <time>2024-07-18T16:59:18Z</time>
      </trkpt>
      <trkpt lat="48.03323" lon="6.79845">
        <ele>636.6</ele>
        <time>2024-07-18T16:59:21Z</time>
      </trkpt>
      <trkpt lat="48.03324" lon="6.79859">
        <ele>636.8</ele>
        <time>2024-07-18T16:59:24Z</time>
      </trkpt>
      <trkpt lat="48.03328" lon="6.79872">
        <ele>637</ele>
        <time>2024-07-18T16:59:27Z</time>
      </trkpt>
      <trkpt lat="48.03332" lon="6.79887">
        <ele>637.2</ele>
        <time>2024-07-18T16:59:31Z</time>
      </trkpt>
      <trkpt lat="48.03336" lon="6.79902">
        <ele>637.4</ele>
        <time>2024-07-18T16:59:35Z</time>
      </trkpt>
      <trkpt lat="48.03339" lon="6.79917">
        <ele>637.6</ele>
        <time>2024-07-18T16:59:38Z</time>
      </trkpt>
      <trkpt lat="48.03343" lon="6.7993">
        <ele>637.7</ele>
        <time>2024-07-18T16:59:40Z</time>
      </trkpt>
      <trkpt lat="48.03347" lon="6.7995">
        <ele>638</ele>
        <time>2024-07-18T16:59:43Z</time>
      </trkpt>
      <trkpt lat="48.03349" lon="6.79967">
        <ele>638.1</ele>
        <time>2024-07-18T16:59:47Z</time>
      </trkpt>
      <trkpt lat="48.03351" lon="6.79982">
        <ele>638.2</ele>
        <time>2024-07-18T16:59:51Z</time>
      </trkpt>
      <trkpt lat="48.03356" lon="6.79995">
        <ele>638.3</ele>
        <time>2024-07-18T16:59:54Z</time>
      </trkpt>
      <trkpt lat="48.03362" lon="6.80009">
        <ele>638.4</ele>
        <time>2024-07-18T16:59:56Z</time>
      </trkpt>
      <trkpt lat="48.03367" lon="6.80021">
        <ele>638.6</ele>
        <time>2024-07-18T16:59:58Z</time>
      </trkpt>
      <trkpt lat="48.03376" lon="6.80032">
        <ele>638.8</ele>
        <time>2024-07-18T17:00:02Z</time>
      </trkpt>
      <trkpt lat="48.0338" lon="6.80044">
        <ele>638.9</ele>
        <time>2024-07-18T17:00:06Z</time>
      </trkpt>
      <trkpt lat="48.03386" lon="6.80059">
        <ele>639.1</ele>
        <time>2024-07-18T17:00:10Z</time>
      </trkpt>
      <trkpt lat="48.03392" lon="6.80069">
        <ele>639.2</ele>
        <time>2024-07-18T17:00:12Z</time>
      </trkpt>
      <trkpt lat="48.03399" lon="6.80084">
        <ele>639.4</ele>
        <time>2024-07-18T17:00:15Z</time>
      </trkpt>
      <trkpt lat="48.03401" lon="6.801">
        <ele>639.5</ele>
        <time>2024-07-18T17:00:17Z</time>
      </trkpt>
      <trkpt lat="48.03404" lon="6.80116">
        <ele>639.6</ele>
        <time>2024-07-18T17:00:20Z</time>
      </trkpt>
      <trkpt lat="48.03407" lon="6.80132">
        <ele>639.7</ele>
        <time>2024-07-18T17:00:22Z</time>
      </trkpt>
      <trkpt lat="48.03409" lon="6.80146">
        <ele>639.8</ele>
        <time>2024-07-18T17:00:24Z</time>
      </trkpt>
      <trkpt lat="48.03409" lon="6.80159">
        <ele>639.9</ele>
        <time>2024-07-18T17:00:27Z</time>
      </trkpt>
      <trkpt lat="48.03414" lon="6.80173">
        <ele>640</ele>
        <time>2024-07-18T17:00:31Z</time>
      </trkpt>
      <trkpt lat="48.0342" lon="6.80187">
        <ele>640.2</ele>
        <time>2024-07-18T17:00:35Z</time>
      </trkpt>
      <trkpt lat="48.03423" lon="6.802">
        <ele>640.3</ele>
        <time>2024-07-18T17:00:39Z</time>
      </trkpt>
      <trkpt lat="48.03425" lon="6.80214">
        <ele>640.4</ele>
        <time>2024-07-18T17:00:42Z</time>
      </trkpt>
      <trkpt lat="48.03431" lon="6.80228">
        <ele>640.6</ele>
        <time>2024-07-18T17:00:45Z</time>
      </trkpt>
      <trkpt lat="48.03438" lon="6.80243">
        <ele>640.8</ele>
        <time>2024-07-18T17:00:47Z</time>
      </trkpt>
      <trkpt lat="48.03443" lon="6.80254">
        <ele>641</ele>
        <time>2024-07-18T17:00:49Z</time>
      </trkpt>
      <trkpt lat="48.03447" lon="6.80266">
        <ele>641.2</ele>
        <time>2024-07-18T17:00:51Z</time>
      </trkpt>
      <trkpt lat="48.03452" lon="6.80279">
        <ele>641.5</ele>
        <time>2024-07-18T17:00:54Z</time>
      </trkpt>
      <trkpt lat="48.03456" lon="6.80293">
        <ele>641.8</ele>
        <time>2024-07-18T17:00:57Z</time>
      </trkpt>
      <trkpt lat="48.0346" lon="6.80307">
        <ele>642.2</ele>
        <time>2024-07-18T17:01:00Z</time>
      </trkpt>
      <trkpt lat="48.03461" lon="6.80322">
        <ele>642.6</ele>
        <time>2024-07-18T17:01:04Z</time>
      </trkpt>
      <trkpt lat="48.03466" lon="6.80334">
        <ele>643.1</ele>
        <time>2024-07-18T17:01:08Z</time>
      </trkpt>
      <trkpt lat="48.0347" lon="6.80347">
        <ele>643.6</ele>
        <time>2024-07-18T17:01:17Z</time>
      </trkpt>
      <trkpt lat="48.03471" lon="6.80361">
        <ele>644.2</ele>
        <time>2024-07-18T17:01:25Z</time>
      </trkpt>
      <trkpt lat="48.0347" lon="6.80374">
        <ele>644.8</ele>
        <time>2024-07-18T17:01:36Z</time>
      </trkpt>
      <trkpt lat="48.03469" lon="6.80388">
        <ele>645.3</ele>
        <time>2024-07-18T17:01:45Z</time>
      </trkpt>
      <trkpt lat="48.0347" lon="6.80403">
        <ele>646</ele>
        <time>2024-07-18T17:01:53Z</time>
      </trkpt>
      <trkpt lat="48.03471" lon="6.80416">
        <ele>646.8</ele>
        <time>2024-07-18T17:02:03Z</time>
      </trkpt>
      <trkpt lat="48.03474" lon="6.80431">
        <ele>647.7</ele>
        <time>2024-07-18T17:02:11Z</time>
      </trkpt>
      <trkpt lat="48.03473" lon="6.80445">
        <ele>648.6</ele>
        <time>2024-07-18T17:02:18Z</time>
      </trkpt>
      <trkpt lat="48.0347" lon="6.80466">
        <ele>650.1</ele>
        <time>2024-07-18T17:02:27Z</time>
      </trkpt>
      <trkpt lat="48.0347" lon="6.80481">
        <ele>651.2</ele>
        <time>2024-07-18T17:02:37Z</time>
      </trkpt>
      <trkpt lat="48.03466" lon="6.80497">
        <ele>652.5</ele>
        <time>2024-07-18T17:02:44Z</time>
      </trkpt>
      <trkpt lat="48.03464" lon="6.80512">
        <ele>653.8</ele>
        <time>2024-07-18T17:02:49Z</time>
      </trkpt>
      <trkpt lat="48.03466" lon="6.80525">
        <ele>654.8</ele>
        <time>2024-07-18T17:02:56Z</time>
      </trkpt>
      <trkpt lat="48.03468" lon="6.80539">
        <ele>655.9</ele>
        <time>2024-07-18T17:03:05Z</time>
      </trkpt>
      <trkpt lat="48.0347" lon="6.80553">
        <ele>657</ele>
        <time>2024-07-18T17:03:14Z</time>
      </trkpt>
      <trkpt lat="48.03476" lon="6.80564">
        <ele>657.9</ele>
        <time>2024-07-18T17:03:23Z</time>
      </trkpt>
      <trkpt lat="48.03481" lon="6.80579">
        <ele>658.9</ele>
        <time>2024-07-18T17:03:30Z</time>
      </trkpt>
      <trkpt lat="48.03485" lon="6.80593">
        <ele>659.9</ele>
        <time>2024-07-18T17:03:35Z</time>
      </trkpt>
      <trkpt lat="48.03486" lon="6.80606">
        <ele>660.8</ele>
        <time>2024-07-18T17:03:42Z</time>
      </trkpt>
      <trkpt lat="48.03485" lon="6.8062">
        <ele>661.8</ele>
        <time>2024-07-18T17:03:48Z</time>
      </trkpt>
      <trkpt lat="48.03481" lon="6.80632">
        <ele>662.6</ele>
        <time>2024-07-18T17:03:54Z</time>
      </trkpt>
      <trkpt lat="48.0348" lon="6.80633">
        <ele>662.7</ele>
        <time>2024-07-18T17:04:03Z</time>
      </trkpt>
      <trkpt lat="48.0348" lon="6.80633">
        <ele>662.7</ele>
        <time>2024-07-18T17:04:04Z</time>
      </trkpt>
      <trkpt lat="48.0348" lon="6.80638">
        <ele>663</ele>
        <time>2024-07-18T17:04:31Z</time>
      </trkpt>
      <trkpt lat="48.0348" lon="6.80641">
        <ele>663.2</ele>
        <time>2024-07-18T17:04:32Z</time>
      </trkpt>
      <trkpt lat="48.03478" lon="6.80654">
        <ele>664</ele>
        <time>2024-07-18T17:04:40Z</time>
      </trkpt>
      <trkpt lat="48.03481" lon="6.80669">
        <ele>665</ele>
        <time>2024-07-18T17:04:49Z</time>
      </trkpt>
      <trkpt lat="48.03478" lon="6.80682">
        <ele>666</ele>
        <time>2024-07-18T17:04:57Z</time>
      </trkpt>
      <trkpt lat="48.0348" lon="6.80696">
        <ele>667.2</ele>
        <time>2024-07-18T17:05:05Z</time>
      </trkpt>
      <trkpt lat="48.03482" lon="6.80703">
        <ele>667.8</ele>
        <time>2024-07-18T17:05:14Z</time>
      </trkpt>
      <trkpt lat="48.03483" lon="6.80703">
        <ele>667.9</ele>
        <time>2024-07-18T17:05:15Z</time>
      </trkpt>
      <trkpt lat="48.03483" lon="6.80707">
        <ele>668.2</ele>
        <time>2024-07-18T17:05:19Z</time>
      </trkpt>
      <trkpt lat="48.03483" lon="6.80708">
        <ele>668.3</ele>
        <time>2024-07-18T17:05:20Z</time>
      </trkpt>
      <trkpt lat="48.03483" lon="6.80722">
        <ele>669.6</ele>
        <time>2024-07-18T17:05:27Z</time>
      </trkpt>
      <trkpt lat="48.03486" lon="6.80735">
        <ele>670.7</ele>
        <time>2024-07-18T17:05:38Z</time>
      </trkpt>
      <trkpt lat="48.03484" lon="6.80748">
        <ele>672</ele>
        <time>2024-07-18T17:05:46Z</time>
      </trkpt>
      <trkpt lat="48.03484" lon="6.80763">
        <ele>673.3</ele>
        <time>2024-07-18T17:05:57Z</time>
      </trkpt>
      <trkpt lat="48.03485" lon="6.80776">
        <ele>674.6</ele>
        <time>2024-07-18T17:06:16Z</time>
      </trkpt>
      <trkpt lat="48.03487" lon="6.80791">
        <ele>675.9</ele>
        <time>2024-07-18T17:06:28Z</time>
      </trkpt>
      <trkpt lat="48.03488" lon="6.80805">
        <ele>677.1</ele>
        <time>2024-07-18T17:06:37Z</time>
      </trkpt>
      <trkpt lat="48.03493" lon="6.80817">
        <ele>678.4</ele>
        <time>2024-07-18T17:06:45Z</time>
      </trkpt>
      <trkpt lat="48.03494" lon="6.80832">
        <ele>679.4</ele>
        <time>2024-07-18T17:06:54Z</time>
      </trkpt>
      <trkpt lat="48.035" lon="6.80843">
        <ele>680.2</ele>
        <time>2024-07-18T17:07:05Z</time>
      </trkpt>
      <trkpt lat="48.035" lon="6.80843">
        <ele>680.2</ele>
        <time>2024-07-18T17:07:10Z</time>
      </trkpt>
      <trkpt lat="48.035" lon="6.80843">
        <ele>680.2</ele>
        <time>2024-07-18T17:07:11Z</time>
      </trkpt>
      <trkpt lat="48.035" lon="6.80842">
        <ele>680.3</ele>
        <time>2024-07-18T17:07:12Z</time>
      </trkpt>
      <trkpt lat="48.03501" lon="6.80841">
        <ele>680.4</ele>
        <time>2024-07-18T17:07:15Z</time>
      </trkpt>
      <trkpt lat="48.03501" lon="6.80842">
        <ele>680.5</ele>
        <time>2024-07-18T17:07:16Z</time>
      </trkpt>
      <trkpt lat="48.03501" lon="6.80842">
        <ele>680.5</ele>
        <time>2024-07-18T17:07:17Z</time>
      </trkpt>
      <trkpt lat="48.03505" lon="6.80855">
        <ele>681.9</ele>
        <time>2024-07-18T17:07:27Z</time>
      </trkpt>
      <trkpt lat="48.03506" lon="6.80869">
        <ele>683.4</ele>
        <time>2024-07-18T17:07:35Z</time>
      </trkpt>
      <trkpt lat="48.03509" lon="6.80883">
        <ele>684.6</ele>
        <time>2024-07-18T17:07:44Z</time>
      </trkpt>
      <trkpt lat="48.03513" lon="6.80896">
        <ele>685.7</ele>
        <time>2024-07-18T17:07:53Z</time>
      </trkpt>
      <trkpt lat="48.03515" lon="6.80906">
        <ele>686.6</ele>
        <time>2024-07-18T17:08:04Z</time>
      </trkpt>
      <trkpt lat="48.03515" lon="6.80906">
        <ele>686.6</ele>
        <time>2024-07-18T17:08:05Z</time>
      </trkpt>
      <trkpt lat="48.03517" lon="6.80906">
        <ele>686.8</ele>
        <time>2024-07-18T17:08:38Z</time>
      </trkpt>
      <trkpt lat="48.03517" lon="6.80907">
        <ele>686.9</ele>
        <time>2024-07-18T17:08:39Z</time>
      </trkpt>
      <trkpt lat="48.03518" lon="6.80908">
        <ele>687</ele>
        <time>2024-07-18T17:08:40Z</time>
      </trkpt>
      <trkpt lat="48.0352" lon="6.80921">
        <ele>688.2</ele>
        <time>2024-07-18T17:08:50Z</time>
      </trkpt>
      <trkpt lat="48.03523" lon="6.80935">
        <ele>689.4</ele>
        <time>2024-07-18T17:09:00Z</time>
      </trkpt>
      <trkpt lat="48.03526" lon="6.80948">
        <ele>690.5</ele>
        <time>2024-07-18T17:09:06Z</time>
      </trkpt>
      <trkpt lat="48.03526" lon="6.80962">
        <ele>691.6</ele>
        <time>2024-07-18T17:09:14Z</time>
      </trkpt>
      <trkpt lat="48.03528" lon="6.80975">
        <ele>692.7</ele>
        <time>2024-07-18T17:09:23Z</time>
      </trkpt>
      <trkpt lat="48.03533" lon="6.80987">
        <ele>693.9</ele>
        <time>2024-07-18T17:09:31Z</time>
      </trkpt>
      <trkpt lat="48.03538" lon="6.80999">
        <ele>695</ele>
        <time>2024-07-18T17:09:39Z</time>
      </trkpt>
      <trkpt lat="48.03543" lon="6.81012">
        <ele>696</ele>
        <time>2024-07-18T17:09:47Z</time>
      </trkpt>
      <trkpt lat="48.03546" lon="6.81024">
        <ele>696.9</ele>
        <time>2024-07-18T17:09:56Z</time>
      </trkpt>
      <trkpt lat="48.03548" lon="6.81038">
        <ele>697.8</ele>
        <time>2024-07-18T17:10:06Z</time>
      </trkpt>
      <trkpt lat="48.03555" lon="6.8105">
        <ele>698.9</ele>
        <time>2024-07-18T17:10:14Z</time>
      </trkpt>
      <trkpt lat="48.03557" lon="6.81064">
        <ele>700</ele>
        <time>2024-07-18T17:10:24Z</time>
      </trkpt>
      <trkpt lat="48.03557" lon="6.81079">
        <ele>701</ele>
        <time>2024-07-18T17:10:34Z</time>
      </trkpt>
      <trkpt lat="48.03557" lon="6.81088">
        <ele>701.7</ele>
        <time>2024-07-18T17:10:44Z</time>
      </trkpt>
      <trkpt lat="48.03557" lon="6.81088">
        <ele>701.7</ele>
        <time>2024-07-18T17:10:45Z</time>
      </trkpt>
      <trkpt lat="48.03554" lon="6.81092">
        <ele>702.2</ele>
        <time>2024-07-18T17:10:51Z</time>
      </trkpt>
      <trkpt lat="48.03553" lon="6.81093">
        <ele>702.3</ele>
        <time>2024-07-18T17:10:52Z</time>
      </trkpt>
      <trkpt lat="48.03553" lon="6.81095">
        <ele>702.4</ele>
        <time>2024-07-18T17:10:53Z</time>
      </trkpt>
      <trkpt lat="48.03551" lon="6.81109">
        <ele>703.4</ele>
        <time>2024-07-18T17:11:01Z</time>
      </trkpt>
      <trkpt lat="48.0355" lon="6.81123">
        <ele>704.5</ele>
        <time>2024-07-18T17:11:10Z</time>
      </trkpt>
      <trkpt lat="48.0355" lon="6.81137">
        <ele>705.4</ele>
        <time>2024-07-18T17:11:19Z</time>
      </trkpt>
      <trkpt lat="48.03549" lon="6.81151">
        <ele>706.4</ele>
        <time>2024-07-18T17:11:28Z</time>
      </trkpt>
      <trkpt lat="48.03545" lon="6.81164">
        <ele>707.5</ele>
        <time>2024-07-18T17:11:45Z</time>
      </trkpt>
      <trkpt lat="48.03546" lon="6.81179">
        <ele>708.6</ele>
        <time>2024-07-18T17:11:54Z</time>
      </trkpt>
      <trkpt lat="48.03545" lon="6.81194">
        <ele>709.7</ele>
        <time>2024-07-18T17:12:04Z</time>
      </trkpt>
      <trkpt lat="48.03545" lon="6.81209">
        <ele>710.8</ele>
        <time>2024-07-18T17:12:12Z</time>
      </trkpt>
      <trkpt lat="48.03549" lon="6.81222">
        <ele>711.8</ele>
        <time>2024-07-18T17:12:25Z</time>
      </trkpt>
      <trkpt lat="48.03549" lon="6.81222">
        <ele>711.8</ele>
        <time>2024-07-18T17:12:26Z</time>
      </trkpt>
      <trkpt lat="48.03549" lon="6.81222">
        <ele>711.8</ele>
        <time>2024-07-18T17:12:27Z</time>
      </trkpt>
      <trkpt lat="48.03549" lon="6.81222">
        <ele>711.8</ele>
        <time>2024-07-18T17:12:28Z</time>
      </trkpt>
      <trkpt lat="48.03549" lon="6.81222">
        <ele>711.8</ele>
        <time>2024-07-18T17:12:29Z</time>
      </trkpt>
      <trkpt lat="48.03549" lon="6.81222">
        <ele>711.8</ele>
        <time>2024-07-18T17:12:30Z</time>
      </trkpt>
      <trkpt lat="48.03552" lon="6.81221">
        <ele>712.2</ele>
        <time>2024-07-18T17:12:35Z</time>
      </trkpt>
      <trkpt lat="48.03552" lon="6.8122">
        <ele>712.2</ele>
        <time>2024-07-18T17:12:36Z</time>
      </trkpt>
      <trkpt lat="48.03553" lon="6.81221">
        <ele>712.3</ele>
        <time>2024-07-18T17:12:37Z</time>
      </trkpt>
      <trkpt lat="48.03553" lon="6.81222">
        <ele>712.3</ele>
        <time>2024-07-18T17:12:38Z</time>
      </trkpt>
      <trkpt lat="48.03553" lon="6.81224">
        <ele>712.5</ele>
        <time>2024-07-18T17:12:39Z</time>
      </trkpt>
      <trkpt lat="48.03553" lon="6.81225">
        <ele>712.6</ele>
        <time>2024-07-18T17:12:40Z</time>
      </trkpt>
      <trkpt lat="48.03552" lon="6.81239">
        <ele>713.6</ele>
        <time>2024-07-18T17:12:49Z</time>
      </trkpt>
      <trkpt lat="48.03552" lon="6.81252">
        <ele>714.6</ele>
        <time>2024-07-18T17:12:57Z</time>
      </trkpt>
      <trkpt lat="48.03551" lon="6.81267">
        <ele>715.8</ele>
        <time>2024-07-18T17:13:04Z</time>
      </trkpt>
      <trkpt lat="48.0355" lon="6.81282">
        <ele>716.9</ele>
        <time>2024-07-18T17:13:13Z</time>
      </trkpt>
      <trkpt lat="48.03549" lon="6.81295">
        <ele>717.9</ele>
        <time>2024-07-18T17:13:23Z</time>
      </trkpt>
      <trkpt lat="48.0355" lon="6.81309">
        <ele>718.9</ele>
        <time>2024-07-18T17:13:35Z</time>
      </trkpt>
      <trkpt lat="48.0355" lon="6.81317">
        <ele>719.5</ele>
        <time>2024-07-18T17:13:45Z</time>
      </trkpt>
      <trkpt lat="48.0355" lon="6.81317">
        <ele>719.5</ele>
        <time>2024-07-18T17:13:46Z</time>
      </trkpt>
      <trkpt lat="48.0355" lon="6.81317">
        <ele>719.5</ele>
        <time>2024-07-18T17:13:47Z</time>
      </trkpt>
      <trkpt lat="48.03551" lon="6.81319">
        <ele>719.7</ele>
        <time>2024-07-18T17:13:50Z</time>
      </trkpt>
      <trkpt lat="48.03551" lon="6.8132">
        <ele>719.7</ele>
        <time>2024-07-18T17:13:51Z</time>
      </trkpt>
      <trkpt lat="48.03551" lon="6.81322">
        <ele>719.8</ele>
        <time>2024-07-18T17:13:52Z</time>
      </trkpt>
      <trkpt lat="48.03552" lon="6.81336">
        <ele>720.8</ele>
        <time>2024-07-18T17:14:03Z</time>
      </trkpt>
      <trkpt lat="48.03554" lon="6.8135">
        <ele>721.9</ele>
        <time>2024-07-18T17:14:13Z</time>
      </trkpt>
      <trkpt lat="48.0355" lon="6.81364">
        <ele>722.9</ele>
        <time>2024-07-18T17:14:23Z</time>
      </trkpt>
      <trkpt lat="48.03548" lon="6.81376">
        <ele>723.9</ele>
        <time>2024-07-18T17:14:34Z</time>
      </trkpt>
      <trkpt lat="48.03547" lon="6.8139">
        <ele>724.9</ele>
        <time>2024-07-18T17:14:46Z</time>
      </trkpt>
      <trkpt lat="48.0355" lon="6.81405">
        <ele>726</ele>
        <time>2024-07-18T17:14:57Z</time>
      </trkpt>
      <trkpt lat="48.03553" lon="6.81418">
        <ele>727</ele>
        <time>2024-07-18T17:15:06Z</time>
      </trkpt>
      <trkpt lat="48.03557" lon="6.81431">
        <ele>728</ele>
        <time>2024-07-18T17:15:14Z</time>
      </trkpt>
      <trkpt lat="48.03557" lon="6.81445">
        <ele>728.9</ele>
        <time>2024-07-18T17:15:23Z</time>
      </trkpt>
      <trkpt lat="48.0356" lon="6.81459">
        <ele>729.9</ele>
        <time>2024-07-18T17:15:32Z</time>
      </trkpt>
      <trkpt lat="48.03561" lon="6.81474">
        <ele>730.8</ele>
        <time>2024-07-18T17:15:40Z</time>
      </trkpt>
      <trkpt lat="48.03563" lon="6.81488">
        <ele>731.7</ele>
        <time>2024-07-18T17:15:49Z</time>
      </trkpt>
      <trkpt lat="48.03563" lon="6.81502">
        <ele>732.6</ele>
        <time>2024-07-18T17:15:57Z</time>
      </trkpt>
      <trkpt lat="48.03565" lon="6.81516">
        <ele>733.3</ele>
        <time>2024-07-18T17:16:07Z</time>
      </trkpt>
      <trkpt lat="48.03567" lon="6.8153">
        <ele>733.9</ele>
        <time>2024-07-18T17:16:15Z</time>
      </trkpt>
      <trkpt lat="48.03567" lon="6.81544">
        <ele>734.6</ele>
        <time>2024-07-18T17:16:22Z</time>
      </trkpt>
      <trkpt lat="48.03565" lon="6.81558">
        <ele>735.1</ele>
        <time>2024-07-18T17:16:28Z</time>
      </trkpt>
      <trkpt lat="48.03567" lon="6.81572">
        <ele>735.7</ele>
        <time>2024-07-18T17:16:36Z</time>
      </trkpt>
      <trkpt lat="48.03564" lon="6.81586">
        <ele>736.4</ele>
        <time>2024-07-18T17:16:45Z</time>
      </trkpt>
      <trkpt lat="48.03564" lon="6.81601">
        <ele>737</ele>
        <time>2024-07-18T17:16:54Z</time>
      </trkpt>
      <trkpt lat="48.03563" lon="6.81615">
        <ele>737.7</ele>
        <time>2024-07-18T17:17:04Z</time>
      </trkpt>
      <trkpt lat="48.03563" lon="6.81629">
        <ele>738.4</ele>
        <time>2024-07-18T17:17:12Z</time>
      </trkpt>
      <trkpt lat="48.03564" lon="6.81643">
        <ele>739.2</ele>
        <time>2024-07-18T17:17:20Z</time>
      </trkpt>
      <trkpt lat="48.03564" lon="6.81644">
        <ele>739.3</ele>
        <time>2024-07-18T17:17:28Z</time>
      </trkpt>
      <trkpt lat="48.03564" lon="6.81644">
        <ele>739.3</ele>
        <time>2024-07-18T17:17:29Z</time>
      </trkpt>
      <trkpt lat="48.03564" lon="6.81644">
        <ele>739.4</ele>
        <time>2024-07-18T17:18:09Z</time>
      </trkpt>
      <trkpt lat="48.03564" lon="6.81644">
        <ele>739.4</ele>
        <time>2024-07-18T17:18:10Z</time>
      </trkpt>
      <trkpt lat="48.03564" lon="6.81644">
        <ele>739.4</ele>
        <time>2024-07-18T17:18:11Z</time>
      </trkpt>
      <trkpt lat="48.03564" lon="6.81644">
        <ele>739.4</ele>
        <time>2024-07-18T17:18:12Z</time>
      </trkpt>
      <trkpt lat="48.03564" lon="6.81645">
        <ele>739.4</ele>
        <time>2024-07-18T17:18:13Z</time>
      </trkpt>
      <trkpt lat="48.03564" lon="6.81645">
        <ele>739.4</ele>
        <time>2024-07-18T17:18:14Z</time>
      </trkpt>
      <trkpt lat="48.03564" lon="6.81645">
        <ele>739.4</ele>
        <time>2024-07-18T17:18:15Z</time>
      </trkpt>
      <trkpt lat="48.03564" lon="6.81645">
        <ele>739.4</ele>
        <time>2024-07-18T17:18:16Z</time>
      </trkpt>
      <trkpt lat="48.03564" lon="6.81645">
        <ele>739.4</ele>
        <time>2024-07-18T17:18:17Z</time>
      </trkpt>
      <trkpt lat="48.03562" lon="6.81645">
        <ele>739.6</ele>
        <time>2024-07-18T17:19:01Z</time>
      </trkpt>
      <trkpt lat="48.03562" lon="6.81644">
        <ele>739.6</ele>
        <time>2024-07-18T17:19:02Z</time>
      </trkpt>
      <trkpt lat="48.03562" lon="6.81644">
        <ele>739.7</ele>
        <time>2024-07-18T17:19:03Z</time>
      </trkpt>
      <trkpt lat="48.03562" lon="6.81643">
        <ele>739.7</ele>
        <time>2024-07-18T17:19:06Z</time>
      </trkpt>
      <trkpt lat="48.03562" lon="6.81643">
        <ele>739.7</ele>
        <time>2024-07-18T17:19:07Z</time>
      </trkpt>
      <trkpt lat="48.03563" lon="6.81646">
        <ele>739.9</ele>
        <time>2024-07-18T17:20:37Z</time>
      </trkpt>
      <trkpt lat="48.03563" lon="6.81646">
        <ele>739.9</ele>
        <time>2024-07-18T17:20:38Z</time>
      </trkpt>
      <trkpt lat="48.03563" lon="6.81646">
        <ele>739.9</ele>
        <time>2024-07-18T17:20:41Z</time>
      </trkpt>
      <trkpt lat="48.03563" lon="6.81646">
        <ele>739.9</ele>
        <time>2024-07-18T17:20:42Z</time>
      </trkpt>
      <trkpt lat="48.03563" lon="6.81647">
        <ele>739.9</ele>
        <time>2024-07-18T17:20:46Z</time>
      </trkpt>
      <trkpt lat="48.03563" lon="6.81647">
        <ele>740</ele>
        <time>2024-07-18T17:20:47Z</time>
      </trkpt>
      <trkpt lat="48.03563" lon="6.81649">
        <ele>740.1</ele>
        <time>2024-07-18T17:20:48Z</time>
      </trkpt>
      <trkpt lat="48.03562" lon="6.81663">
        <ele>740.9</ele>
        <time>2024-07-18T17:20:55Z</time>
      </trkpt>
      <trkpt lat="48.03566" lon="6.81675">
        <ele>741.6</ele>
        <time>2024-07-18T17:21:02Z</time>
      </trkpt>
      <trkpt lat="48.03569" lon="6.81689">
        <ele>742.4</ele>
        <time>2024-07-18T17:21:09Z</time>
      </trkpt>
      <trkpt lat="48.0357" lon="6.81704">
        <ele>743.1</ele>
        <time>2024-07-18T17:21:17Z</time>
      </trkpt>
      <trkpt lat="48.03572" lon="6.81719">
        <ele>743.7</ele>
        <time>2024-07-18T17:21:25Z</time>
      </trkpt>
      <trkpt lat="48.03571" lon="6.81733">
        <ele>744.4</ele>
        <time>2024-07-18T17:21:33Z</time>
      </trkpt>
      <trkpt lat="48.03568" lon="6.81746">
        <ele>744.9</ele>
        <time>2024-07-18T17:21:39Z</time>
      </trkpt>
      <trkpt lat="48.03566" lon="6.8176">
        <ele>745.5</ele>
        <time>2024-07-18T17:21:46Z</time>
      </trkpt>
      <trkpt lat="48.03567" lon="6.81773">
        <ele>746.2</ele>
        <time>2024-07-18T17:22:02Z</time>
      </trkpt>
      <trkpt lat="48.03572" lon="6.81785">
        <ele>746.9</ele>
        <time>2024-07-18T17:22:11Z</time>
      </trkpt>
      <trkpt lat="48.03577" lon="6.81797">
        <ele>747.7</ele>
        <time>2024-07-18T17:22:21Z</time>
      </trkpt>
      <trkpt lat="48.03581" lon="6.8181">
        <ele>748.6</ele>
        <time>2024-07-18T17:22:30Z</time>
      </trkpt>
      <trkpt lat="48.03585" lon="6.81822">
        <ele>749.4</ele>
        <time>2024-07-18T17:22:39Z</time>
      </trkpt>
      <trkpt lat="48.03589" lon="6.81836">
        <ele>750.1</ele>
        <time>2024-07-18T17:22:48Z</time>
      </trkpt>
      <trkpt lat="48.0359" lon="6.81838">
        <ele>750.3</ele>
        <time>2024-07-18T17:22:59Z</time>
      </trkpt>
      <trkpt lat="48.0359" lon="6.81838">
        <ele>750.3</ele>
        <time>2024-07-18T17:23:00Z</time>
      </trkpt>
      <trkpt lat="48.03589" lon="6.81838">
        <ele>750.3</ele>
        <time>2024-07-18T17:23:04Z</time>
      </trkpt>
      <trkpt lat="48.03589" lon="6.81838">
        <ele>750.3</ele>
        <time>2024-07-18T17:23:05Z</time>
      </trkpt>
      <trkpt lat="48.03586" lon="6.81841">
        <ele>750.7</ele>
        <time>2024-07-18T17:23:14Z</time>
      </trkpt>
      <trkpt lat="48.03585" lon="6.81841">
        <ele>750.7</ele>
        <time>2024-07-18T17:23:15Z</time>
      </trkpt>
      <trkpt lat="48.03585" lon="6.81841">
        <ele>750.8</ele>
        <time>2024-07-18T17:23:16Z</time>
      </trkpt>
      <trkpt lat="48.03585" lon="6.81841">
        <ele>750.8</ele>
        <time>2024-07-18T17:23:17Z</time>
      </trkpt>
      <trkpt lat="48.03585" lon="6.81841">
        <ele>750.8</ele>
        <time>2024-07-18T17:23:18Z</time>
      </trkpt>
      <trkpt lat="48.03585" lon="6.81841">
        <ele>750.8</ele>
        <time>2024-07-18T17:23:19Z</time>
      </trkpt>
      <trkpt lat="48.03584" lon="6.81842">
        <ele>750.8</ele>
        <time>2024-07-18T17:23:20Z</time>
      </trkpt>
      <trkpt lat="48.03583" lon="6.81842">
        <ele>750.9</ele>
        <time>2024-07-18T17:23:21Z</time>
      </trkpt>
      <trkpt lat="48.03583" lon="6.81843">
        <ele>750.9</ele>
        <time>2024-07-18T17:23:22Z</time>
      </trkpt>
      <trkpt lat="48.03589" lon="6.81854">
        <ele>751.6</ele>
        <time>2024-07-18T17:23:30Z</time>
      </trkpt>
      <trkpt lat="48.03596" lon="6.81864">
        <ele>752.5</ele>
        <time>2024-07-18T17:23:35Z</time>
      </trkpt>
      <trkpt lat="48.03604" lon="6.81871">
        <ele>753.4</ele>
        <time>2024-07-18T17:23:38Z</time>
      </trkpt>
      <trkpt lat="48.03605" lon="6.81887">
        <ele>754.3</ele>
        <time>2024-07-18T17:23:42Z</time>
      </trkpt>
      <trkpt lat="48.03606" lon="6.81904">
        <ele>755.2</ele>
        <time>2024-07-18T17:23:46Z</time>
      </trkpt>
      <trkpt lat="48.03608" lon="6.81917">
        <ele>755.8</ele>
        <time>2024-07-18T17:23:50Z</time>
      </trkpt>
      <trkpt lat="48.03613" lon="6.81929">
        <ele>756.3</ele>
        <time>2024-07-18T17:23:55Z</time>
      </trkpt>
      <trkpt lat="48.03618" lon="6.8194">
        <ele>756.7</ele>
        <time>2024-07-18T17:24:00Z</time>
      </trkpt>
      <trkpt lat="48.03624" lon="6.81953">
        <ele>757.2</ele>
        <time>2024-07-18T17:24:05Z</time>
      </trkpt>
      <trkpt lat="48.03631" lon="6.81963">
        <ele>757.5</ele>
        <time>2024-07-18T17:24:10Z</time>
      </trkpt>
      <trkpt lat="48.03635" lon="6.81976">
        <ele>757.9</ele>
        <time>2024-07-18T17:24:15Z</time>
      </trkpt>
      <trkpt lat="48.03642" lon="6.81987">
        <ele>758.4</ele>
        <time>2024-07-18T17:24:19Z</time>
      </trkpt>
      <trkpt lat="48.0365" lon="6.81996">
        <ele>758.9</ele>
        <time>2024-07-18T17:24:22Z</time>
      </trkpt>
      <trkpt lat="48.03653" lon="6.82009">
        <ele>759.4</ele>
        <time>2024-07-18T17:24:28Z</time>
      </trkpt>
      <trkpt lat="48.03651" lon="6.82022">
        <ele>759.8</ele>
        <time>2024-07-18T17:24:36Z</time>
      </trkpt>
      <trkpt lat="48.03649" lon="6.82037">
        <ele>760.3</ele>
        <time>2024-07-18T17:24:45Z</time>
      </trkpt>
      <trkpt lat="48.03648" lon="6.82052">
        <ele>760.7</ele>
        <time>2024-07-18T17:24:52Z</time>
      </trkpt>
      <trkpt lat="48.03648" lon="6.82065">
        <ele>761</ele>
        <time>2024-07-18T17:24:58Z</time>
      </trkpt>
      <trkpt lat="48.03651" lon="6.82079">
        <ele>761.4</ele>
        <time>2024-07-18T17:25:06Z</time>
      </trkpt>
      <trkpt lat="48.03652" lon="6.82092">
        <ele>761.8</ele>
        <time>2024-07-18T17:25:14Z</time>
      </trkpt>
      <trkpt lat="48.03652" lon="6.82106">
        <ele>762.3</ele>
        <time>2024-07-18T17:25:29Z</time>
      </trkpt>
      <trkpt lat="48.03654" lon="6.82119">
        <ele>763</ele>
        <time>2024-07-18T17:25:36Z</time>
      </trkpt>
      <trkpt lat="48.03655" lon="6.82133">
        <ele>763.7</ele>
        <time>2024-07-18T17:25:41Z</time>
      </trkpt>
      <trkpt lat="48.03659" lon="6.82146">
        <ele>764.3</ele>
        <time>2024-07-18T17:25:46Z</time>
      </trkpt>
      <trkpt lat="48.03664" lon="6.82158">
        <ele>764.9</ele>
        <time>2024-07-18T17:25:52Z</time>
      </trkpt>
      <trkpt lat="48.03669" lon="6.82167">
        <ele>765.2</ele>
        <time>2024-07-18T17:26:01Z</time>
      </trkpt>
      <trkpt lat="48.03669" lon="6.82167">
        <ele>765.2</ele>
        <time>2024-07-18T17:26:02Z</time>
      </trkpt>
      <trkpt lat="48.03669" lon="6.82167">
        <ele>765.2</ele>
        <time>2024-07-18T17:26:03Z</time>
      </trkpt>
      <trkpt lat="48.03668" lon="6.82168">
        <ele>765.3</ele>
        <time>2024-07-18T17:26:04Z</time>
      </trkpt>
      <trkpt lat="48.03668" lon="6.82169">
        <ele>765.3</ele>
        <time>2024-07-18T17:26:05Z</time>
      </trkpt>
      <trkpt lat="48.03671" lon="6.82182">
        <ele>765.6</ele>
        <time>2024-07-18T17:26:17Z</time>
      </trkpt>
      <trkpt lat="48.03671" lon="6.82196">
        <ele>765.9</ele>
        <time>2024-07-18T17:26:27Z</time>
      </trkpt>
      <trkpt lat="48.0367" lon="6.8221">
        <ele>766.2</ele>
        <time>2024-07-18T17:26:36Z</time>
      </trkpt>
      <trkpt lat="48.03674" lon="6.82223">
        <ele>766.4</ele>
        <time>2024-07-18T17:26:45Z</time>
      </trkpt>
      <trkpt lat="48.03678" lon="6.82235">
        <ele>766.6</ele>
        <time>2024-07-18T17:26:56Z</time>
      </trkpt>
      <trkpt lat="48.03678" lon="6.82241">
        <ele>766.8</ele>
        <time>2024-07-18T17:27:05Z</time>
      </trkpt>
      <trkpt lat="48.03678" lon="6.82241">
        <ele>766.8</ele>
        <time>2024-07-18T17:27:06Z</time>
      </trkpt>
      <trkpt lat="48.03679" lon="6.8224">
        <ele>766.8</ele>
        <time>2024-07-18T17:27:07Z</time>
      </trkpt>
      <trkpt lat="48.03679" lon="6.8224">
        <ele>766.8</ele>
        <time>2024-07-18T17:27:08Z</time>
      </trkpt>
      <trkpt lat="48.03679" lon="6.82239">
        <ele>766.8</ele>
        <time>2024-07-18T17:27:09Z</time>
      </trkpt>
      <trkpt lat="48.03679" lon="6.82239">
        <ele>766.9</ele>
        <time>2024-07-18T17:27:10Z</time>
      </trkpt>
      <trkpt lat="48.03679" lon="6.82239">
        <ele>766.9</ele>
        <time>2024-07-18T17:27:11Z</time>
      </trkpt>
      <trkpt lat="48.03679" lon="6.82239">
        <ele>766.9</ele>
        <time>2024-07-18T17:27:12Z</time>
      </trkpt>
      <trkpt lat="48.0368" lon="6.82238">
        <ele>766.9</ele>
        <time>2024-07-18T17:27:16Z</time>
      </trkpt>
      <trkpt lat="48.0368" lon="6.82238">
        <ele>766.9</ele>
        <time>2024-07-18T17:27:17Z</time>
      </trkpt>
      <trkpt lat="48.0368" lon="6.82238">
        <ele>766.9</ele>
        <time>2024-07-18T17:27:18Z</time>
      </trkpt>
      <trkpt lat="48.0368" lon="6.82238">
        <ele>766.9</ele>
        <time>2024-07-18T17:27:19Z</time>
      </trkpt>
      <trkpt lat="48.0368" lon="6.82238">
        <ele>766.9</ele>
        <time>2024-07-18T17:27:20Z</time>
      </trkpt>
      <trkpt lat="48.03682" lon="6.82236">
        <ele>767</ele>
        <time>2024-07-18T17:27:25Z</time>
      </trkpt>
      <trkpt lat="48.03682" lon="6.82235">
        <ele>767</ele>
        <time>2024-07-18T17:27:26Z</time>
      </trkpt>
      <trkpt lat="48.03682" lon="6.82234">
        <ele>767.1</ele>
        <time>2024-07-18T17:27:27Z</time>
      </trkpt>
      <trkpt lat="48.03683" lon="6.82235">
        <ele>767.1</ele>
        <time>2024-07-18T17:27:43Z</time>
      </trkpt>
      <trkpt lat="48.03683" lon="6.82235">
        <ele>767.1</ele>
        <time>2024-07-18T17:27:44Z</time>
      </trkpt>
      <trkpt lat="48.03683" lon="6.82234">
        <ele>767.2</ele>
        <time>2024-07-18T17:27:58Z</time>
      </trkpt>
      <trkpt lat="48.03683" lon="6.82234">
        <ele>767.2</ele>
        <time>2024-07-18T17:27:59Z</time>
      </trkpt>
      <trkpt lat="48.03683" lon="6.82234">
        <ele>767.2</ele>
        <time>2024-07-18T17:28:00Z</time>
      </trkpt>
      <trkpt lat="48.03683" lon="6.82234">
        <ele>767.2</ele>
        <time>2024-07-18T17:28:01Z</time>
      </trkpt>
      <trkpt lat="48.03683" lon="6.82234">
        <ele>767.2</ele>
        <time>2024-07-18T17:28:02Z</time>
      </trkpt>
      <trkpt lat="48.03683" lon="6.82234">
        <ele>767.2</ele>
        <time>2024-07-18T17:28:03Z</time>
      </trkpt>
      <trkpt lat="48.03682" lon="6.82231">
        <ele>767.3</ele>
        <time>2024-07-18T17:30:20Z</time>
      </trkpt>
      <trkpt lat="48.03682" lon="6.82231">
        <ele>767.3</ele>
        <time>2024-07-18T17:30:21Z</time>
      </trkpt>
      <trkpt lat="48.03682" lon="6.82232">
        <ele>767.4</ele>
        <time>2024-07-18T17:30:22Z</time>
      </trkpt>
      <trkpt lat="48.03681" lon="6.82232">
        <ele>767.4</ele>
        <time>2024-07-18T17:30:23Z</time>
      </trkpt>
      <trkpt lat="48.03681" lon="6.82232">
        <ele>767.4</ele>
        <time>2024-07-18T17:30:24Z</time>
      </trkpt>
      <trkpt lat="48.03681" lon="6.82233">
        <ele>767.4</ele>
        <time>2024-07-18T17:30:31Z</time>
      </trkpt>
      <trkpt lat="48.03681" lon="6.82233">
        <ele>767.5</ele>
        <time>2024-07-18T17:30:32Z</time>
      </trkpt>
      <trkpt lat="48.03681" lon="6.82233">
        <ele>767.5</ele>
        <time>2024-07-18T17:30:33Z</time>
      </trkpt>
      <trkpt lat="48.03681" lon="6.82233">
        <ele>767.5</ele>
        <time>2024-07-18T17:30:34Z</time>
      </trkpt>
      <trkpt lat="48.03681" lon="6.82233">
        <ele>767.5</ele>
        <time>2024-07-18T17:30:35Z</time>
      </trkpt>
      <trkpt lat="48.03674" lon="6.82224">
        <ele>768.3</ele>
        <time>2024-07-18T17:31:42Z</time>
      </trkpt>
      <trkpt lat="48.03683" lon="6.82228">
        <ele>769.3</ele>
        <time>2024-07-18T17:33:27Z</time>
      </trkpt>
      <trkpt lat="48.03674" lon="6.82227">
        <ele>770.2</ele>
        <time>2024-07-18T17:36:41Z</time>
      </trkpt>
      <trkpt lat="48.03684" lon="6.82231">
        <ele>771.3</ele>
        <time>2024-07-18T17:37:03Z</time>
      </trkpt>
      <trkpt lat="48.0368" lon="6.82218">
        <ele>772.2</ele>
        <time>2024-07-18T17:38:50Z</time>
      </trkpt>
      <trkpt lat="48.03682" lon="6.8222">
        <ele>772.3</ele>
        <time>2024-07-18T17:40:34Z</time>
      </trkpt>
      <trkpt lat="48.03682" lon="6.8222">
        <ele>772.4</ele>
        <time>2024-07-18T17:40:35Z</time>
      </trkpt>
      <trkpt lat="48.03681" lon="6.8222">
        <ele>772.5</ele>
        <time>2024-07-18T17:40:36Z</time>
      </trkpt>
      <trkpt lat="48.03681" lon="6.8222">
        <ele>772.5</ele>
        <time>2024-07-18T17:40:37Z</time>
      </trkpt>
      <trkpt lat="48.03676" lon="6.82221">
        <ele>773.1</ele>
        <time>2024-07-18T17:41:01Z</time>
      </trkpt>
      <trkpt lat="48.03676" lon="6.82221">
        <ele>773.1</ele>
        <time>2024-07-18T17:41:02Z</time>
      </trkpt>
      <trkpt lat="48.03676" lon="6.82222">
        <ele>773.2</ele>
        <time>2024-07-18T17:41:03Z</time>
      </trkpt>
      <trkpt lat="48.03678" lon="6.82229">
        <ele>773.8</ele>
        <time>2024-07-18T17:41:13Z</time>
      </trkpt>
      <trkpt lat="48.03678" lon="6.82229">
        <ele>773.8</ele>
        <time>2024-07-18T17:41:14Z</time>
      </trkpt>
      <trkpt lat="48.03678" lon="6.82229">
        <ele>773.8</ele>
        <time>2024-07-18T17:41:15Z</time>
      </trkpt>
      <trkpt lat="48.03678" lon="6.82229">
        <ele>773.8</ele>
        <time>2024-07-18T17:41:16Z</time>
      </trkpt>
      <trkpt lat="48.03679" lon="6.8223">
        <ele>773.9</ele>
        <time>2024-07-18T17:41:17Z</time>
      </trkpt>
      <trkpt lat="48.0368" lon="6.8223">
        <ele>774</ele>
        <time>2024-07-18T17:41:18Z</time>
      </trkpt>
      <trkpt lat="48.03681" lon="6.82244">
        <ele>775.3</ele>
        <time>2024-07-18T17:41:36Z</time>
      </trkpt>
      <trkpt lat="48.03682" lon="6.82258">
        <ele>776.9</ele>
        <time>2024-07-18T17:41:47Z</time>
      </trkpt>
      <trkpt lat="48.03682" lon="6.82272">
        <ele>778.5</ele>
        <time>2024-07-18T17:41:57Z</time>
      </trkpt>
      <trkpt lat="48.03678" lon="6.82285">
        <ele>780.3</ele>
        <time>2024-07-18T17:42:08Z</time>
      </trkpt>
      <trkpt lat="48.03679" lon="6.82299">
        <ele>782</ele>
        <time>2024-07-18T17:42:28Z</time>
      </trkpt>
      <trkpt lat="48.03676" lon="6.82307">
        <ele>783.1</ele>
        <time>2024-07-18T17:42:40Z</time>
      </trkpt>
      <trkpt lat="48.03676" lon="6.82307">
        <ele>783.1</ele>
        <time>2024-07-18T17:42:41Z</time>
      </trkpt>
      <trkpt lat="48.03676" lon="6.82307">
        <ele>783.1</ele>
        <time>2024-07-18T17:42:42Z</time>
      </trkpt>
      <trkpt lat="48.03675" lon="6.8231">
        <ele>783.4</ele>
        <time>2024-07-18T17:42:48Z</time>
      </trkpt>
      <trkpt lat="48.03675" lon="6.82311">
        <ele>783.7</ele>
        <time>2024-07-18T17:42:49Z</time>
      </trkpt>
      <trkpt lat="48.03676" lon="6.82326">
        <ele>785.4</ele>
        <time>2024-07-18T17:43:00Z</time>
      </trkpt>
      <trkpt lat="48.03671" lon="6.82338">
        <ele>787</ele>
        <time>2024-07-18T17:43:08Z</time>
      </trkpt>
      <trkpt lat="48.03666" lon="6.8235">
        <ele>788.6</ele>
        <time>2024-07-18T17:43:28Z</time>
      </trkpt>
      <trkpt lat="48.0366" lon="6.82359">
        <ele>790</ele>
        <time>2024-07-18T17:43:40Z</time>
      </trkpt>
      <trkpt lat="48.03659" lon="6.82373">
        <ele>791.4</ele>
        <time>2024-07-18T17:43:55Z</time>
      </trkpt>
      <trkpt lat="48.03659" lon="6.82387">
        <ele>792.7</ele>
        <time>2024-07-18T17:44:11Z</time>
      </trkpt>
      <trkpt lat="48.03653" lon="6.82399">
        <ele>793.9</ele>
        <time>2024-07-18T17:44:21Z</time>
      </trkpt>
      <trkpt lat="48.03649" lon="6.82411">
        <ele>795.1</ele>
        <time>2024-07-18T17:44:31Z</time>
      </trkpt>
      <trkpt lat="48.03646" lon="6.82424">
        <ele>796.2</ele>
        <time>2024-07-18T17:44:41Z</time>
      </trkpt>
      <trkpt lat="48.0364" lon="6.82435">
        <ele>797.2</ele>
        <time>2024-07-18T17:44:50Z</time>
      </trkpt>
      <trkpt lat="48.03634" lon="6.82446">
        <ele>798.3</ele>
        <time>2024-07-18T17:45:00Z</time>
      </trkpt>
      <trkpt lat="48.03637" lon="6.82451">
        <ele>798.8</ele>
        <time>2024-07-18T17:45:20Z</time>
      </trkpt>
      <trkpt lat="48.03638" lon="6.8245">
        <ele>799</ele>
        <time>2024-07-18T17:45:21Z</time>
      </trkpt>
      <trkpt lat="48.03638" lon="6.8245">
        <ele>799.1</ele>
        <time>2024-07-18T17:45:22Z</time>
      </trkpt>
      <trkpt lat="48.03636" lon="6.8245">
        <ele>799.3</ele>
        <time>2024-07-18T17:45:23Z</time>
      </trkpt>
      <trkpt lat="48.03635" lon="6.82451">
        <ele>799.5</ele>
        <time>2024-07-18T17:45:24Z</time>
      </trkpt>
      <trkpt lat="48.0363" lon="6.82462">
        <ele>800.9</ele>
        <time>2024-07-18T17:45:35Z</time>
      </trkpt>
      <trkpt lat="48.0362" lon="6.82467">
        <ele>802.6</ele>
        <time>2024-07-18T17:45:46Z</time>
      </trkpt>
      <trkpt lat="48.03613" lon="6.82477">
        <ele>804.3</ele>
        <time>2024-07-18T17:45:54Z</time>
      </trkpt>
      <trkpt lat="48.03605" lon="6.82484">
        <ele>806</ele>
        <time>2024-07-18T17:46:05Z</time>
      </trkpt>
      <trkpt lat="48.036" lon="6.82496">
        <ele>807.5</ele>
        <time>2024-07-18T17:46:26Z</time>
      </trkpt>
      <trkpt lat="48.03593" lon="6.82503">
        <ele>808.6</ele>
        <time>2024-07-18T17:46:41Z</time>
      </trkpt>
      <trkpt lat="48.03592" lon="6.82503">
        <ele>808.8</ele>
        <time>2024-07-18T17:46:42Z</time>
      </trkpt>
      <trkpt lat="48.0359" lon="6.82504">
        <ele>808.9</ele>
        <time>2024-07-18T17:46:46Z</time>
      </trkpt>
      <trkpt lat="48.0359" lon="6.82505">
        <ele>809</ele>
        <time>2024-07-18T17:46:47Z</time>
      </trkpt>
      <trkpt lat="48.03589" lon="6.82506">
        <ele>809</ele>
        <time>2024-07-18T17:46:48Z</time>
      </trkpt>
      <trkpt lat="48.0359" lon="6.82506">
        <ele>809.1</ele>
        <time>2024-07-18T17:46:51Z</time>
      </trkpt>
      <trkpt lat="48.03589" lon="6.82506">
        <ele>809.1</ele>
        <time>2024-07-18T17:46:52Z</time>
      </trkpt>
      <trkpt lat="48.0359" lon="6.82509">
        <ele>809.3</ele>
        <time>2024-07-18T17:46:56Z</time>
      </trkpt>
      <trkpt lat="48.03591" lon="6.8251">
        <ele>809.3</ele>
        <time>2024-07-18T17:46:57Z</time>
      </trkpt>
      <trkpt lat="48.03591" lon="6.82511">
        <ele>809.3</ele>
        <time>2024-07-18T17:46:58Z</time>
      </trkpt>
      <trkpt lat="48.03591" lon="6.82512">
        <ele>809.4</ele>
        <time>2024-07-18T17:47:01Z</time>
      </trkpt>
      <trkpt lat="48.03591" lon="6.82512">
        <ele>809.4</ele>
        <time>2024-07-18T17:47:02Z</time>
      </trkpt>
      <trkpt lat="48.03591" lon="6.82512">
        <ele>809.4</ele>
        <time>2024-07-18T17:47:03Z</time>
      </trkpt>
      <trkpt lat="48.03589" lon="6.8252">
        <ele>809.7</ele>
        <time>2024-07-18T17:47:23Z</time>
      </trkpt>
      <trkpt lat="48.0359" lon="6.8252">
        <ele>809.7</ele>
        <time>2024-07-18T17:47:24Z</time>
      </trkpt>
      <trkpt lat="48.03591" lon="6.82534">
        <ele>808.9</ele>
        <time>2024-07-18T17:47:34Z</time>
      </trkpt>
      <trkpt lat="48.03591" lon="6.82555">
        <ele>807.7</ele>
        <time>2024-07-18T17:47:37Z</time>
      </trkpt>
      <trkpt lat="48.03591" lon="6.82574">
        <ele>806.6</ele>
        <time>2024-07-18T17:47:39Z</time>
      </trkpt>
      <trkpt lat="48.03593" lon="6.82594">
        <ele>805.6</ele>
        <time>2024-07-18T17:47:41Z</time>
      </trkpt>
      <trkpt lat="48.03595" lon="6.82612">
        <ele>804.9</ele>
        <time>2024-07-18T17:47:43Z</time>
      </trkpt>
      <trkpt lat="48.03596" lon="6.82629">
        <ele>804.2</ele>
        <time>2024-07-18T17:47:45Z</time>
      </trkpt>
      <trkpt lat="48.03598" lon="6.82644">
        <ele>803.6</ele>
        <time>2024-07-18T17:47:47Z</time>
      </trkpt>
      <trkpt lat="48.03602" lon="6.82663">
        <ele>802.7</ele>
        <time>2024-07-18T17:47:50Z</time>
      </trkpt>
      <trkpt lat="48.03602" lon="6.82678">
        <ele>802</ele>
        <time>2024-07-18T17:47:52Z</time>
      </trkpt>
      <trkpt lat="48.03603" lon="6.82696">
        <ele>801.6</ele>
        <time>2024-07-18T17:47:54Z</time>
      </trkpt>
      <trkpt lat="48.03604" lon="6.82712">
        <ele>801.5</ele>
        <time>2024-07-18T17:47:56Z</time>
      </trkpt>
      <trkpt lat="48.0361" lon="6.82727">
        <ele>801.5</ele>
        <time>2024-07-18T17:47:59Z</time>
      </trkpt>
      <trkpt lat="48.0361" lon="6.82741">
        <ele>801.4</ele>
        <time>2024-07-18T17:48:02Z</time>
      </trkpt>
      <trkpt lat="48.03617" lon="6.82756">
        <ele>801.1</ele>
        <time>2024-07-18T17:48:06Z</time>
      </trkpt>
      <trkpt lat="48.03622" lon="6.82773">
        <ele>800.6</ele>
        <time>2024-07-18T17:48:10Z</time>
      </trkpt>
      <trkpt lat="48.03626" lon="6.8279">
        <ele>800.4</ele>
        <time>2024-07-18T17:48:13Z</time>
      </trkpt>
      <trkpt lat="48.03627" lon="6.82808">
        <ele>800.4</ele>
        <time>2024-07-18T17:48:16Z</time>
      </trkpt>
      <trkpt lat="48.03628" lon="6.82823">
        <ele>800.5</ele>
        <time>2024-07-18T17:48:20Z</time>
      </trkpt>
      <trkpt lat="48.03629" lon="6.82837">
        <ele>800.6</ele>
        <time>2024-07-18T17:48:24Z</time>
      </trkpt>
      <trkpt lat="48.0363" lon="6.82853">
        <ele>800.6</ele>
        <time>2024-07-18T17:48:28Z</time>
      </trkpt>
      <trkpt lat="48.03629" lon="6.82867">
        <ele>800.5</ele>
        <time>2024-07-18T17:48:32Z</time>
      </trkpt>
      <trkpt lat="48.03631" lon="6.82883">
        <ele>800.9</ele>
        <time>2024-07-18T17:48:35Z</time>
      </trkpt>
      <trkpt lat="48.03635" lon="6.82897">
        <ele>801.5</ele>
        <time>2024-07-18T17:48:39Z</time>
      </trkpt>
      <trkpt lat="48.03641" lon="6.82908">
        <ele>802.1</ele>
        <time>2024-07-18T17:48:43Z</time>
      </trkpt>
      <trkpt lat="48.03645" lon="6.82921">
        <ele>802.6</ele>
        <time>2024-07-18T17:48:47Z</time>
      </trkpt>
      <trkpt lat="48.03652" lon="6.82935">
        <ele>803.1</ele>
        <time>2024-07-18T17:48:51Z</time>
      </trkpt>
      <trkpt lat="48.03658" lon="6.82946">
        <ele>803.5</ele>
        <time>2024-07-18T17:48:55Z</time>
      </trkpt>
      <trkpt lat="48.03666" lon="6.82955">
        <ele>803.8</ele>
        <time>2024-07-18T17:49:07Z</time>
      </trkpt>
      <trkpt lat="48.03672" lon="6.82967">
        <ele>804.1</ele>
        <time>2024-07-18T17:49:15Z</time>
      </trkpt>
      <trkpt lat="48.03678" lon="6.82978">
        <ele>804.4</ele>
        <time>2024-07-18T17:49:23Z</time>
      </trkpt>
      <trkpt lat="48.03682" lon="6.8299">
        <ele>804.8</ele>
        <time>2024-07-18T17:49:31Z</time>
      </trkpt>
      <trkpt lat="48.03684" lon="6.82996">
        <ele>805.1</ele>
        <time>2024-07-18T17:49:43Z</time>
      </trkpt>
      <trkpt lat="48.03684" lon="6.82996">
        <ele>805.1</ele>
        <time>2024-07-18T17:49:44Z</time>
      </trkpt>
      <trkpt lat="48.03684" lon="6.82997">
        <ele>805.2</ele>
        <time>2024-07-18T17:49:45Z</time>
      </trkpt>
      <trkpt lat="48.03684" lon="6.82998">
        <ele>805.2</ele>
        <time>2024-07-18T17:49:46Z</time>
      </trkpt>
      <trkpt lat="48.03684" lon="6.82999">
        <ele>805.3</ele>
        <time>2024-07-18T17:49:47Z</time>
      </trkpt>
      <trkpt lat="48.03685" lon="6.83012">
        <ele>806.1</ele>
        <time>2024-07-18T17:49:56Z</time>
      </trkpt>
      <trkpt lat="48.03688" lon="6.83025">
        <ele>807.1</ele>
        <time>2024-07-18T17:50:05Z</time>
      </trkpt>
      <trkpt lat="48.03687" lon="6.8304">
        <ele>808.2</ele>
        <time>2024-07-18T17:50:16Z</time>
      </trkpt>
      <trkpt lat="48.03687" lon="6.83054">
        <ele>809</ele>
        <time>2024-07-18T17:50:23Z</time>
      </trkpt>
      <trkpt lat="48.03686" lon="6.83068">
        <ele>809.7</ele>
        <time>2024-07-18T17:50:32Z</time>
      </trkpt>
      <trkpt lat="48.03681" lon="6.8308">
        <ele>810.4</ele>
        <time>2024-07-18T17:50:42Z</time>
      </trkpt>
      <trkpt lat="48.0368" lon="6.83093">
        <ele>811.1</ele>
        <time>2024-07-18T17:50:51Z</time>
      </trkpt>
      <trkpt lat="48.03679" lon="6.83107">
        <ele>811.7</ele>
        <time>2024-07-18T17:50:59Z</time>
      </trkpt>
      <trkpt lat="48.0368" lon="6.83121">
        <ele>812.1</ele>
        <time>2024-07-18T17:51:07Z</time>
      </trkpt>
      <trkpt lat="48.03682" lon="6.83135">
        <ele>812.3</ele>
        <time>2024-07-18T17:51:16Z</time>
      </trkpt>
      <trkpt lat="48.03687" lon="6.83146">
        <ele>812.7</ele>
        <time>2024-07-18T17:51:24Z</time>
      </trkpt>
      <trkpt lat="48.03694" lon="6.83156">
        <ele>813.1</ele>
        <time>2024-07-18T17:51:32Z</time>
      </trkpt>
      <trkpt lat="48.03702" lon="6.83166">
        <ele>813.8</ele>
        <time>2024-07-18T17:51:41Z</time>
      </trkpt>
      <trkpt lat="48.03711" lon="6.83172">
        <ele>814.5</ele>
        <time>2024-07-18T17:51:48Z</time>
      </trkpt>
      <trkpt lat="48.03721" lon="6.83174">
        <ele>815.3</ele>
        <time>2024-07-18T17:51:59Z</time>
      </trkpt>
      <trkpt lat="48.0373" lon="6.83178">
        <ele>815.8</ele>
        <time>2024-07-18T17:52:09Z</time>
      </trkpt>
      <trkpt lat="48.03739" lon="6.83181">
        <ele>816</ele>
        <time>2024-07-18T17:52:16Z</time>
      </trkpt>
      <trkpt lat="48.03747" lon="6.83187">
        <ele>816.1</ele>
        <time>2024-07-18T17:52:22Z</time>
      </trkpt>
      <trkpt lat="48.03756" lon="6.83185">
        <ele>816</ele>
        <time>2024-07-18T17:52:30Z</time>
      </trkpt>
      <trkpt lat="48.03766" lon="6.83187">
        <ele>815.9</ele>
        <time>2024-07-18T17:52:47Z</time>
      </trkpt>
      <trkpt lat="48.03774" lon="6.83194">
        <ele>815.9</ele>
        <time>2024-07-18T17:52:52Z</time>
      </trkpt>
      <trkpt lat="48.03784" lon="6.83197">
        <ele>816</ele>
        <time>2024-07-18T17:52:58Z</time>
      </trkpt>
      <trkpt lat="48.03794" lon="6.832">
        <ele>816.2</ele>
        <time>2024-07-18T17:53:03Z</time>
      </trkpt>
      <trkpt lat="48.03803" lon="6.83201">
        <ele>816.4</ele>
        <time>2024-07-18T17:53:06Z</time>
      </trkpt>
      <trkpt lat="48.03814" lon="6.83205">
        <ele>816.5</ele>
        <time>2024-07-18T17:53:09Z</time>
      </trkpt>
      <trkpt lat="48.03826" lon="6.83211">
        <ele>816.5</ele>
        <time>2024-07-18T17:53:12Z</time>
      </trkpt>
      <trkpt lat="48.03835" lon="6.83218">
        <ele>816.6</ele>
        <time>2024-07-18T17:53:16Z</time>
      </trkpt>
      <trkpt lat="48.03841" lon="6.83229">
        <ele>816.7</ele>
        <time>2024-07-18T17:53:22Z</time>
      </trkpt>
      <trkpt lat="48.03849" lon="6.83234">
        <ele>816.9</ele>
        <time>2024-07-18T17:53:29Z</time>
      </trkpt>
      <trkpt lat="48.03858" lon="6.83239">
        <ele>817.1</ele>
        <time>2024-07-18T17:53:32Z</time>
      </trkpt>
      <trkpt lat="48.03869" lon="6.83241">
        <ele>817.1</ele>
        <time>2024-07-18T17:53:35Z</time>
      </trkpt>
      <trkpt lat="48.03881" lon="6.83243">
        <ele>817.1</ele>
        <time>2024-07-18T17:53:38Z</time>
      </trkpt>
      <trkpt lat="48.03892" lon="6.83244">
        <ele>817.2</ele>
        <time>2024-07-18T17:53:41Z</time>
      </trkpt>
      <trkpt lat="48.03903" lon="6.83245">
        <ele>817.4</ele>
        <time>2024-07-18T17:53:44Z</time>
      </trkpt>
      <trkpt lat="48.03913" lon="6.83249">
        <ele>817.7</ele>
        <time>2024-07-18T17:53:47Z</time>
      </trkpt>
      <trkpt lat="48.03923" lon="6.83256">
        <ele>818.2</ele>
        <time>2024-07-18T17:53:52Z</time>
      </trkpt>
      <trkpt lat="48.03932" lon="6.83263">
        <ele>818.8</ele>
        <time>2024-07-18T17:53:56Z</time>
      </trkpt>
      <trkpt lat="48.03941" lon="6.8327">
        <ele>819.4</ele>
        <time>2024-07-18T17:54:01Z</time>
      </trkpt>
      <trkpt lat="48.03949" lon="6.83278">
        <ele>819.9</ele>
        <time>2024-07-18T17:54:06Z</time>
      </trkpt>
      <trkpt lat="48.03956" lon="6.83287">
        <ele>820.4</ele>
        <time>2024-07-18T17:54:12Z</time>
      </trkpt>
      <trkpt lat="48.03965" lon="6.83293">
        <ele>820.8</ele>
        <time>2024-07-18T17:54:20Z</time>
      </trkpt>
      <trkpt lat="48.03975" lon="6.83294">
        <ele>821.2</ele>
        <time>2024-07-18T17:54:25Z</time>
      </trkpt>
      <trkpt lat="48.03984" lon="6.83295">
        <ele>821.6</ele>
        <time>2024-07-18T17:54:29Z</time>
      </trkpt>
      <trkpt lat="48.03994" lon="6.83298">
        <ele>822</ele>
        <time>2024-07-18T17:54:38Z</time>
      </trkpt>
      <trkpt lat="48.04004" lon="6.83299">
        <ele>822.4</ele>
        <time>2024-07-18T17:54:43Z</time>
      </trkpt>
      <trkpt lat="48.04013" lon="6.83304">
        <ele>822.8</ele>
        <time>2024-07-18T17:54:50Z</time>
      </trkpt>
      <trkpt lat="48.04022" lon="6.8331">
        <ele>823.1</ele>
        <time>2024-07-18T17:54:56Z</time>
      </trkpt>
      <trkpt lat="48.0403" lon="6.83318">
        <ele>823.3</ele>
        <time>2024-07-18T17:55:03Z</time>
      </trkpt>
      <trkpt lat="48.04039" lon="6.83325">
        <ele>823.4</ele>
        <time>2024-07-18T17:55:10Z</time>
      </trkpt>
      <trkpt lat="48.04049" lon="6.83325">
        <ele>823.6</ele>
        <time>2024-07-18T17:55:18Z</time>
      </trkpt>
      <trkpt lat="48.0406" lon="6.8333">
        <ele>823.7</ele>
        <time>2024-07-18T17:55:22Z</time>
      </trkpt>
      <trkpt lat="48.04068" lon="6.83334">
        <ele>823.6</ele>
        <time>2024-07-18T17:55:27Z</time>
      </trkpt>
      <trkpt lat="48.0408" lon="6.83335">
        <ele>823.2</ele>
        <time>2024-07-18T17:55:30Z</time>
      </trkpt>
      <trkpt lat="48.04089" lon="6.83336">
        <ele>823</ele>
        <time>2024-07-18T17:55:32Z</time>
      </trkpt>
      <trkpt lat="48.04099" lon="6.83335">
        <ele>822.8</ele>
        <time>2024-07-18T17:55:34Z</time>
      </trkpt>
      <trkpt lat="48.04109" lon="6.83333">
        <ele>822.6</ele>
        <time>2024-07-18T17:55:37Z</time>
      </trkpt>
      <trkpt lat="48.04117" lon="6.83326">
        <ele>822.5</ele>
        <time>2024-07-18T17:55:41Z</time>
      </trkpt>
      <trkpt lat="48.04125" lon="6.83317">
        <ele>822.5</ele>
        <time>2024-07-18T17:55:45Z</time>
      </trkpt>
      <trkpt lat="48.04136" lon="6.83308">
        <ele>822.8</ele>
        <time>2024-07-18T17:55:49Z</time>
      </trkpt>
      <trkpt lat="48.04146" lon="6.83309">
        <ele>823.4</ele>
        <time>2024-07-18T17:55:54Z</time>
      </trkpt>
      <trkpt lat="48.04155" lon="6.83318">
        <ele>824.2</ele>
        <time>2024-07-18T17:55:59Z</time>
      </trkpt>
      <trkpt lat="48.04162" lon="6.83328">
        <ele>824.7</ele>
        <time>2024-07-18T17:56:05Z</time>
      </trkpt>
      <trkpt lat="48.04167" lon="6.8334">
        <ele>825.1</ele>
        <time>2024-07-18T17:56:09Z</time>
      </trkpt>
      <trkpt lat="48.04172" lon="6.83353">
        <ele>825.6</ele>
        <time>2024-07-18T17:56:13Z</time>
      </trkpt>
      <trkpt lat="48.04178" lon="6.83366">
        <ele>826.2</ele>
        <time>2024-07-18T17:56:17Z</time>
      </trkpt>
      <trkpt lat="48.04182" lon="6.83378">
        <ele>826.6</ele>
        <time>2024-07-18T17:56:20Z</time>
      </trkpt>
      <trkpt lat="48.04189" lon="6.83392">
        <ele>827.2</ele>
        <time>2024-07-18T17:56:24Z</time>
      </trkpt>
      <trkpt lat="48.04196" lon="6.83403">
        <ele>827.8</ele>
        <time>2024-07-18T17:56:28Z</time>
      </trkpt>
      <trkpt lat="48.04203" lon="6.83413">
        <ele>828.2</ele>
        <time>2024-07-18T17:56:32Z</time>
      </trkpt>
      <trkpt lat="48.0421" lon="6.83424">
        <ele>828.8</ele>
        <time>2024-07-18T17:56:36Z</time>
      </trkpt>
      <trkpt lat="48.04218" lon="6.83432">
        <ele>829.2</ele>
        <time>2024-07-18T17:56:40Z</time>
      </trkpt>
      <trkpt lat="48.04225" lon="6.83442">
        <ele>829.7</ele>
        <time>2024-07-18T17:56:44Z</time>
      </trkpt>
      <trkpt lat="48.04232" lon="6.8345">
        <ele>830.2</ele>
        <time>2024-07-18T17:56:48Z</time>
      </trkpt>
      <trkpt lat="48.04241" lon="6.83459">
        <ele>830.7</ele>
        <time>2024-07-18T17:56:53Z</time>
      </trkpt>
      <trkpt lat="48.04248" lon="6.83468">
        <ele>831.1</ele>
        <time>2024-07-18T17:56:57Z</time>
      </trkpt>
      <trkpt lat="48.04257" lon="6.83476">
        <ele>831.5</ele>
        <time>2024-07-18T17:57:01Z</time>
      </trkpt>
      <trkpt lat="48.04267" lon="6.83486">
        <ele>831.9</ele>
        <time>2024-07-18T17:57:06Z</time>
      </trkpt>
      <trkpt lat="48.04276" lon="6.83496">
        <ele>832.2</ele>
        <time>2024-07-18T17:57:11Z</time>
      </trkpt>
      <trkpt lat="48.04284" lon="6.83505">
        <ele>832.5</ele>
        <time>2024-07-18T17:57:15Z</time>
      </trkpt>
      <trkpt lat="48.04293" lon="6.83514">
        <ele>832.7</ele>
        <time>2024-07-18T17:57:19Z</time>
      </trkpt>
      <trkpt lat="48.04302" lon="6.83523">
        <ele>833</ele>
        <time>2024-07-18T17:57:23Z</time>
      </trkpt>
      <trkpt lat="48.04308" lon="6.83533">
        <ele>833.2</ele>
        <time>2024-07-18T17:57:27Z</time>
      </trkpt>
      <trkpt lat="48.04317" lon="6.8354">
        <ele>833.5</ele>
        <time>2024-07-18T17:57:31Z</time>
      </trkpt>
      <trkpt lat="48.04326" lon="6.83549">
        <ele>833.7</ele>
        <time>2024-07-18T17:57:35Z</time>
      </trkpt>
      <trkpt lat="48.04333" lon="6.83558">
        <ele>833.9</ele>
        <time>2024-07-18T17:57:39Z</time>
      </trkpt>
      <trkpt lat="48.0434" lon="6.83566">
        <ele>834</ele>
        <time>2024-07-18T17:57:43Z</time>
      </trkpt>
      <trkpt lat="48.04349" lon="6.83575">
        <ele>834.1</ele>
        <time>2024-07-18T17:57:47Z</time>
      </trkpt>
      <trkpt lat="48.04356" lon="6.83586">
        <ele>834.1</ele>
        <time>2024-07-18T17:57:51Z</time>
      </trkpt>
      <trkpt lat="48.04363" lon="6.83597">
        <ele>834</ele>
        <time>2024-07-18T17:57:54Z</time>
      </trkpt>
      <trkpt lat="48.04369" lon="6.83611">
        <ele>833.9</ele>
        <time>2024-07-18T17:57:58Z</time>
      </trkpt>
      <trkpt lat="48.04373" lon="6.83624">
        <ele>833.8</ele>
        <time>2024-07-18T17:58:01Z</time>
      </trkpt>
      <trkpt lat="48.04378" lon="6.83636">
        <ele>833.8</ele>
        <time>2024-07-18T17:58:04Z</time>
      </trkpt>
      <trkpt lat="48.04383" lon="6.83652">
        <ele>833.7</ele>
        <time>2024-07-18T17:58:08Z</time>
      </trkpt>
      <trkpt lat="48.04388" lon="6.83667">
        <ele>833.7</ele>
        <time>2024-07-18T17:58:12Z</time>
      </trkpt>
      <trkpt lat="48.04393" lon="6.83681">
        <ele>833.6</ele>
        <time>2024-07-18T17:58:16Z</time>
      </trkpt>
      <trkpt lat="48.04397" lon="6.83695">
        <ele>833.5</ele>
        <time>2024-07-18T17:58:20Z</time>
      </trkpt>
      <trkpt lat="48.04402" lon="6.83708">
        <ele>833.4</ele>
        <time>2024-07-18T17:58:24Z</time>
      </trkpt>
      <trkpt lat="48.04407" lon="6.83724">
        <ele>833.2</ele>
        <time>2024-07-18T17:58:28Z</time>
      </trkpt>
      <trkpt lat="48.04411" lon="6.83736">
        <ele>833.1</ele>
        <time>2024-07-18T17:58:31Z</time>
      </trkpt>
      <trkpt lat="48.04415" lon="6.83753">
        <ele>833</ele>
        <time>2024-07-18T17:58:34Z</time>
      </trkpt>
      <trkpt lat="48.04417" lon="6.83768">
        <ele>832.8</ele>
        <time>2024-07-18T17:58:37Z</time>
      </trkpt>
      <trkpt lat="48.04417" lon="6.83785">
        <ele>832.7</ele>
        <time>2024-07-18T17:58:40Z</time>
      </trkpt>
      <trkpt lat="48.04409" lon="6.83797">
        <ele>832.9</ele>
        <time>2024-07-18T17:58:43Z</time>
      </trkpt>
      <trkpt lat="48.04398" lon="6.83801">
        <ele>833.3</ele>
        <time>2024-07-18T17:58:46Z</time>
      </trkpt>
      <trkpt lat="48.04389" lon="6.83802">
        <ele>833.5</ele>
        <time>2024-07-18T17:58:49Z</time>
      </trkpt>
      <trkpt lat="48.04379" lon="6.83805">
        <ele>833.7</ele>
        <time>2024-07-18T17:58:53Z</time>
      </trkpt>
      <trkpt lat="48.04368" lon="6.83809">
        <ele>833.9</ele>
        <time>2024-07-18T17:58:57Z</time>
      </trkpt>
      <trkpt lat="48.04358" lon="6.8381">
        <ele>834</ele>
        <time>2024-07-18T17:59:00Z</time>
      </trkpt>
      <trkpt lat="48.04346" lon="6.83811">
        <ele>834.2</ele>
        <time>2024-07-18T17:59:03Z</time>
      </trkpt>
      <trkpt lat="48.04337" lon="6.83815">
        <ele>834.5</ele>
        <time>2024-07-18T17:59:05Z</time>
      </trkpt>
      <trkpt lat="48.04327" lon="6.83823">
        <ele>834.9</ele>
        <time>2024-07-18T17:59:07Z</time>
      </trkpt>
      <trkpt lat="48.0432" lon="6.83838">
        <ele>834.8</ele>
        <time>2024-07-18T17:59:10Z</time>
      </trkpt>
      <trkpt lat="48.04317" lon="6.83853">
        <ele>834.8</ele>
        <time>2024-07-18T17:59:12Z</time>
      </trkpt>
      <trkpt lat="48.04314" lon="6.83869">
        <ele>834.9</ele>
        <time>2024-07-18T17:59:14Z</time>
      </trkpt>
      <trkpt lat="48.04312" lon="6.83886">
        <ele>835</ele>
        <time>2024-07-18T17:59:16Z</time>
      </trkpt>
      <trkpt lat="48.04312" lon="6.83901">
        <ele>835.3</ele>
        <time>2024-07-18T17:59:18Z</time>
      </trkpt>
      <trkpt lat="48.04312" lon="6.83914">
        <ele>835.8</ele>
        <time>2024-07-18T17:59:20Z</time>
      </trkpt>
      <trkpt lat="48.04319" lon="6.83926">
        <ele>836.5</ele>
        <time>2024-07-18T17:59:23Z</time>
      </trkpt>
      <trkpt lat="48.04327" lon="6.83933">
        <ele>837.3</ele>
        <time>2024-07-18T17:59:26Z</time>
      </trkpt>
      <trkpt lat="48.04335" lon="6.8394">
        <ele>838.1</ele>
        <time>2024-07-18T17:59:29Z</time>
      </trkpt>
      <trkpt lat="48.04344" lon="6.83947">
        <ele>838.9</ele>
        <time>2024-07-18T17:59:33Z</time>
      </trkpt>
      <trkpt lat="48.04354" lon="6.83954">
        <ele>839.6</ele>
        <time>2024-07-18T17:59:39Z</time>
      </trkpt>
      <trkpt lat="48.04362" lon="6.83963">
        <ele>840.2</ele>
        <time>2024-07-18T17:59:44Z</time>
      </trkpt>
      <trkpt lat="48.04369" lon="6.83972">
        <ele>840.8</ele>
        <time>2024-07-18T17:59:49Z</time>
      </trkpt>
      <trkpt lat="48.04376" lon="6.83982">
        <ele>841.4</ele>
        <time>2024-07-18T17:59:54Z</time>
      </trkpt>
      <trkpt lat="48.04384" lon="6.83993">
        <ele>842</ele>
        <time>2024-07-18T17:59:59Z</time>
      </trkpt>
      <trkpt lat="48.0439" lon="6.84004">
        <ele>842.6</ele>
        <time>2024-07-18T18:00:04Z</time>
      </trkpt>
      <trkpt lat="48.04396" lon="6.84015">
        <ele>843.2</ele>
        <time>2024-07-18T18:00:09Z</time>
      </trkpt>
      <trkpt lat="48.04402" lon="6.84028">
        <ele>843.9</ele>
        <time>2024-07-18T18:00:15Z</time>
      </trkpt>
      <trkpt lat="48.04407" lon="6.8404">
        <ele>844.5</ele>
        <time>2024-07-18T18:00:20Z</time>
      </trkpt>
      <trkpt lat="48.04408" lon="6.84055">
        <ele>845.1</ele>
        <time>2024-07-18T18:00:26Z</time>
      </trkpt>
      <trkpt lat="48.04403" lon="6.8407">
        <ele>845.2</ele>
        <time>2024-07-18T18:00:31Z</time>
      </trkpt>
      <trkpt lat="48.04396" lon="6.84078">
        <ele>844.7</ele>
        <time>2024-07-18T18:00:34Z</time>
      </trkpt>
      <trkpt lat="48.04385" lon="6.84085">
        <ele>844</ele>
        <time>2024-07-18T18:00:37Z</time>
      </trkpt>
      <trkpt lat="48.04373" lon="6.84091">
        <ele>843.4</ele>
        <time>2024-07-18T18:00:40Z</time>
      </trkpt>
      <trkpt lat="48.04364" lon="6.84094">
        <ele>843</ele>
        <time>2024-07-18T18:00:42Z</time>
      </trkpt>
      <trkpt lat="48.04354" lon="6.84099">
        <ele>842.5</ele>
        <time>2024-07-18T18:00:44Z</time>
      </trkpt>
      <trkpt lat="48.04346" lon="6.8411">
        <ele>842</ele>
        <time>2024-07-18T18:00:46Z</time>
      </trkpt>
      <trkpt lat="48.04346" lon="6.84126">
        <ele>841.5</ele>
        <time>2024-07-18T18:00:48Z</time>
      </trkpt>
      <trkpt lat="48.04352" lon="6.84137">
        <ele>841</ele>
        <time>2024-07-18T18:00:50Z</time>
      </trkpt>
      <trkpt lat="48.0436" lon="6.84148">
        <ele>840.3</ele>
        <time>2024-07-18T18:00:52Z</time>
      </trkpt>
      <trkpt lat="48.04368" lon="6.84162">
        <ele>839.7</ele>
        <time>2024-07-18T18:00:54Z</time>
      </trkpt>
      <trkpt lat="48.04369" lon="6.84188">
        <ele>839.1</ele>
        <time>2024-07-18T18:00:56Z</time>
      </trkpt>
      <trkpt lat="48.04368" lon="6.84208">
        <ele>838.8</ele>
        <time>2024-07-18T18:00:58Z</time>
      </trkpt>
      <trkpt lat="48.04368" lon="6.84228">
        <ele>838.6</ele>
        <time>2024-07-18T18:01:00Z</time>
      </trkpt>
      <trkpt lat="48.04372" lon="6.84246">
        <ele>838.5</ele>
        <time>2024-07-18T18:01:02Z</time>
      </trkpt>
      <trkpt lat="48.04381" lon="6.84259">
        <ele>838.3</ele>
        <time>2024-07-18T18:01:04Z</time>
      </trkpt>
      <trkpt lat="48.04386" lon="6.84274">
        <ele>838.2</ele>
        <time>2024-07-18T18:01:06Z</time>
      </trkpt>
      <trkpt lat="48.04388" lon="6.84289">
        <ele>838.1</ele>
        <time>2024-07-18T18:01:08Z</time>
      </trkpt>
      <trkpt lat="48.04387" lon="6.84308">
        <ele>838</ele>
        <time>2024-07-18T18:01:11Z</time>
      </trkpt>
      <trkpt lat="48.04385" lon="6.84326">
        <ele>837.9</ele>
        <time>2024-07-18T18:01:14Z</time>
      </trkpt>
      <trkpt lat="48.04384" lon="6.84342">
        <ele>837.8</ele>
        <time>2024-07-18T18:01:16Z</time>
      </trkpt>
      <trkpt lat="48.04384" lon="6.84358">
        <ele>837.7</ele>
        <time>2024-07-18T18:01:18Z</time>
      </trkpt>
      <trkpt lat="48.04381" lon="6.84377">
        <ele>837.6</ele>
        <time>2024-07-18T18:01:21Z</time>
      </trkpt>
      <trkpt lat="48.04379" lon="6.84391">
        <ele>837.6</ele>
        <time>2024-07-18T18:01:23Z</time>
      </trkpt>
      <trkpt lat="48.04374" lon="6.84402">
        <ele>837.5</ele>
        <time>2024-07-18T18:01:25Z</time>
      </trkpt>
      <trkpt lat="48.04367" lon="6.84412">
        <ele>837.6</ele>
        <time>2024-07-18T18:01:27Z</time>
      </trkpt>
      <trkpt lat="48.04357" lon="6.84417">
        <ele>837.6</ele>
        <time>2024-07-18T18:01:29Z</time>
      </trkpt>
      <trkpt lat="48.04346" lon="6.84423">
        <ele>837.6</ele>
        <time>2024-07-18T18:01:32Z</time>
      </trkpt>
      <trkpt lat="48.04336" lon="6.84434">
        <ele>837.7</ele>
        <time>2024-07-18T18:01:36Z</time>
      </trkpt>
      <trkpt lat="48.04335" lon="6.84448">
        <ele>837.7</ele>
        <time>2024-07-18T18:01:39Z</time>
      </trkpt>
      <trkpt lat="48.04341" lon="6.84462">
        <ele>837.7</ele>
        <time>2024-07-18T18:01:43Z</time>
      </trkpt>
      <trkpt lat="48.04349" lon="6.84467">
        <ele>837.6</ele>
        <time>2024-07-18T18:01:46Z</time>
      </trkpt>
      <trkpt lat="48.04358" lon="6.84474">
        <ele>837.6</ele>
        <time>2024-07-18T18:01:48Z</time>
      </trkpt>
      <trkpt lat="48.04367" lon="6.84482">
        <ele>837.6</ele>
        <time>2024-07-18T18:01:50Z</time>
      </trkpt>
      <trkpt lat="48.04377" lon="6.84486">
        <ele>837.6</ele>
        <time>2024-07-18T18:01:52Z</time>
      </trkpt>
      <trkpt lat="48.04389" lon="6.84489">
        <ele>837.6</ele>
        <time>2024-07-18T18:01:54Z</time>
      </trkpt>
      <trkpt lat="48.04401" lon="6.84494">
        <ele>837.6</ele>
        <time>2024-07-18T18:01:57Z</time>
      </trkpt>
      <trkpt lat="48.04412" lon="6.84502">
        <ele>837.6</ele>
        <time>2024-07-18T18:01:59Z</time>
      </trkpt>
      <trkpt lat="48.04422" lon="6.84513">
        <ele>837.5</ele>
        <time>2024-07-18T18:02:02Z</time>
      </trkpt>
      <trkpt lat="48.04429" lon="6.84522">
        <ele>837.5</ele>
        <time>2024-07-18T18:02:04Z</time>
      </trkpt>
      <trkpt lat="48.04438" lon="6.84537">
        <ele>837.5</ele>
        <time>2024-07-18T18:02:07Z</time>
      </trkpt>
      <trkpt lat="48.04445" lon="6.84549">
        <ele>837.6</ele>
        <time>2024-07-18T18:02:09Z</time>
      </trkpt>
      <trkpt lat="48.0445" lon="6.84562">
        <ele>837.6</ele>
        <time>2024-07-18T18:02:11Z</time>
      </trkpt>
      <trkpt lat="48.04454" lon="6.84577">
        <ele>837.6</ele>
        <time>2024-07-18T18:02:13Z</time>
      </trkpt>
      <trkpt lat="48.04459" lon="6.84589">
        <ele>837.6</ele>
        <time>2024-07-18T18:02:15Z</time>
      </trkpt>
      <trkpt lat="48.04463" lon="6.846">
        <ele>837.5</ele>
        <time>2024-07-18T18:02:17Z</time>
      </trkpt>
      <trkpt lat="48.0447" lon="6.84612">
        <ele>837.3</ele>
        <time>2024-07-18T18:02:19Z</time>
      </trkpt>
      <trkpt lat="48.04477" lon="6.84625">
        <ele>836.9</ele>
        <time>2024-07-18T18:02:21Z</time>
      </trkpt>
      <trkpt lat="48.04486" lon="6.84637">
        <ele>836.4</ele>
        <time>2024-07-18T18:02:23Z</time>
      </trkpt>
      <trkpt lat="48.04493" lon="6.84654">
        <ele>835.8</ele>
        <time>2024-07-18T18:02:25Z</time>
      </trkpt>
      <trkpt lat="48.045" lon="6.84671">
        <ele>835.2</ele>
        <time>2024-07-18T18:02:27Z</time>
      </trkpt>
      <trkpt lat="48.0451" lon="6.84678">
        <ele>834.5</ele>
        <time>2024-07-18T18:02:29Z</time>
      </trkpt>
      <trkpt lat="48.04522" lon="6.84681">
        <ele>833.6</ele>
        <time>2024-07-18T18:02:31Z</time>
      </trkpt>
      <trkpt lat="48.04534" lon="6.84686">
        <ele>832.6</ele>
        <time>2024-07-18T18:02:33Z</time>
      </trkpt>
      <trkpt lat="48.04547" lon="6.84694">
        <ele>831.7</ele>
        <time>2024-07-18T18:02:35Z</time>
      </trkpt>
      <trkpt lat="48.04557" lon="6.84706">
        <ele>831</ele>
        <time>2024-07-18T18:02:37Z</time>
      </trkpt>
      <trkpt lat="48.04567" lon="6.8472">
        <ele>830.2</ele>
        <time>2024-07-18T18:02:39Z</time>
      </trkpt>
      <trkpt lat="48.04575" lon="6.84739">
        <ele>829.4</ele>
        <time>2024-07-18T18:02:41Z</time>
      </trkpt>
      <trkpt lat="48.04584" lon="6.84755">
        <ele>828.6</ele>
        <time>2024-07-18T18:02:43Z</time>
      </trkpt>
      <trkpt lat="48.04597" lon="6.84769">
        <ele>827.9</ele>
        <time>2024-07-18T18:02:45Z</time>
      </trkpt>
      <trkpt lat="48.0461" lon="6.84783">
        <ele>827.2</ele>
        <time>2024-07-18T18:02:47Z</time>
      </trkpt>
      <trkpt lat="48.0462" lon="6.84798">
        <ele>826.5</ele>
        <time>2024-07-18T18:02:49Z</time>
      </trkpt>
      <trkpt lat="48.04632" lon="6.8481">
        <ele>825.8</ele>
        <time>2024-07-18T18:02:51Z</time>
      </trkpt>
      <trkpt lat="48.04645" lon="6.8482">
        <ele>824.9</ele>
        <time>2024-07-18T18:02:53Z</time>
      </trkpt>
      <trkpt lat="48.04659" lon="6.84828">
        <ele>824.1</ele>
        <time>2024-07-18T18:02:55Z</time>
      </trkpt>
      <trkpt lat="48.04671" lon="6.84836">
        <ele>823.3</ele>
        <time>2024-07-18T18:02:57Z</time>
      </trkpt>
      <trkpt lat="48.04685" lon="6.84845">
        <ele>822.5</ele>
        <time>2024-07-18T18:02:59Z</time>
      </trkpt>
      <trkpt lat="48.04702" lon="6.84856">
        <ele>821.4</ele>
        <time>2024-07-18T18:03:01Z</time>
      </trkpt>
      <trkpt lat="48.04715" lon="6.84866">
        <ele>820.5</ele>
        <time>2024-07-18T18:03:03Z</time>
      </trkpt>
      <trkpt lat="48.04723" lon="6.84877">
        <ele>819.9</ele>
        <time>2024-07-18T18:03:05Z</time>
      </trkpt>
      <trkpt lat="48.04727" lon="6.84892">
        <ele>819.3</ele>
        <time>2024-07-18T18:03:07Z</time>
      </trkpt>
      <trkpt lat="48.04731" lon="6.84915">
        <ele>818.5</ele>
        <time>2024-07-18T18:03:09Z</time>
      </trkpt>
      <trkpt lat="48.04732" lon="6.84938">
        <ele>817.9</ele>
        <time>2024-07-18T18:03:11Z</time>
      </trkpt>
      <trkpt lat="48.04731" lon="6.84959">
        <ele>817.3</ele>
        <time>2024-07-18T18:03:13Z</time>
      </trkpt>
      <trkpt lat="48.04728" lon="6.84978">
        <ele>816.8</ele>
        <time>2024-07-18T18:03:15Z</time>
      </trkpt>
      <trkpt lat="48.04725" lon="6.84997">
        <ele>816.2</ele>
        <time>2024-07-18T18:03:17Z</time>
      </trkpt>
      <trkpt lat="48.04725" lon="6.85017">
        <ele>815.5</ele>
        <time>2024-07-18T18:03:19Z</time>
      </trkpt>
      <trkpt lat="48.04724" lon="6.85037">
        <ele>814.8</ele>
        <time>2024-07-18T18:03:21Z</time>
      </trkpt>
      <trkpt lat="48.04722" lon="6.85058">
        <ele>814.1</ele>
        <time>2024-07-18T18:03:23Z</time>
      </trkpt>
      <trkpt lat="48.04727" lon="6.85077">
        <ele>813.1</ele>
        <time>2024-07-18T18:03:25Z</time>
      </trkpt>
      <trkpt lat="48.04736" lon="6.85092">
        <ele>812.3</ele>
        <time>2024-07-18T18:03:27Z</time>
      </trkpt>
      <trkpt lat="48.04742" lon="6.85115">
        <ele>811.4</ele>
        <time>2024-07-18T18:03:29Z</time>
      </trkpt>
      <trkpt lat="48.04745" lon="6.85136">
        <ele>810.5</ele>
        <time>2024-07-18T18:03:31Z</time>
      </trkpt>
      <trkpt lat="48.04746" lon="6.85157">
        <ele>809.6</ele>
        <time>2024-07-18T18:03:33Z</time>
      </trkpt>
      <trkpt lat="48.04746" lon="6.8518">
        <ele>808.8</ele>
        <time>2024-07-18T18:03:35Z</time>
      </trkpt>
      <trkpt lat="48.04738" lon="6.85199">
        <ele>808.1</ele>
        <time>2024-07-18T18:03:37Z</time>
      </trkpt>
      <trkpt lat="48.04725" lon="6.85213">
        <ele>807.4</ele>
        <time>2024-07-18T18:03:39Z</time>
      </trkpt>
      <trkpt lat="48.04713" lon="6.85223">
        <ele>806.8</ele>
        <time>2024-07-18T18:03:41Z</time>
      </trkpt>
      <trkpt lat="48.04703" lon="6.85233">
        <ele>806.2</ele>
        <time>2024-07-18T18:03:43Z</time>
      </trkpt>
      <trkpt lat="48.04691" lon="6.8524">
        <ele>805.9</ele>
        <time>2024-07-18T18:03:45Z</time>
      </trkpt>
      <trkpt lat="48.04678" lon="6.85245">
        <ele>805.8</ele>
        <time>2024-07-18T18:03:48Z</time>
      </trkpt>
      <trkpt lat="48.04668" lon="6.8525">
        <ele>805.9</ele>
        <time>2024-07-18T18:03:50Z</time>
      </trkpt>
      <trkpt lat="48.04656" lon="6.85257">
        <ele>806.3</ele>
        <time>2024-07-18T18:03:52Z</time>
      </trkpt>
      <trkpt lat="48.04643" lon="6.85268">
        <ele>807</ele>
        <time>2024-07-18T18:03:55Z</time>
      </trkpt>
      <trkpt lat="48.04636" lon="6.85278">
        <ele>807.6</ele>
        <time>2024-07-18T18:03:57Z</time>
      </trkpt>
      <trkpt lat="48.04633" lon="6.85293">
        <ele>808.1</ele>
        <time>2024-07-18T18:04:02Z</time>
      </trkpt>
      <trkpt lat="48.04632" lon="6.85308">
        <ele>808.6</ele>
        <time>2024-07-18T18:04:07Z</time>
      </trkpt>
      <trkpt lat="48.04638" lon="6.85322">
        <ele>809</ele>
        <time>2024-07-18T18:04:12Z</time>
      </trkpt>
      <trkpt lat="48.04634" lon="6.85337">
        <ele>809.4</ele>
        <time>2024-07-18T18:04:18Z</time>
      </trkpt>
      <trkpt lat="48.04627" lon="6.8535">
        <ele>809.8</ele>
        <time>2024-07-18T18:04:22Z</time>
      </trkpt>
      <trkpt lat="48.04623" lon="6.85365">
        <ele>810.2</ele>
        <time>2024-07-18T18:04:26Z</time>
      </trkpt>
      <trkpt lat="48.04627" lon="6.85377">
        <ele>810.6</ele>
        <time>2024-07-18T18:04:29Z</time>
      </trkpt>
      <trkpt lat="48.04633" lon="6.8539">
        <ele>810.9</ele>
        <time>2024-07-18T18:04:33Z</time>
      </trkpt>
      <trkpt lat="48.04636" lon="6.85403">
        <ele>811.2</ele>
        <time>2024-07-18T18:04:37Z</time>
      </trkpt>
      <trkpt lat="48.04642" lon="6.85414">
        <ele>811.5</ele>
        <time>2024-07-18T18:04:42Z</time>
      </trkpt>
      <trkpt lat="48.04649" lon="6.85427">
        <ele>811.9</ele>
        <time>2024-07-18T18:04:47Z</time>
      </trkpt>
      <trkpt lat="48.04658" lon="6.85433">
        <ele>812.2</ele>
        <time>2024-07-18T18:04:51Z</time>
      </trkpt>
      <trkpt lat="48.04667" lon="6.85444">
        <ele>812.6</ele>
        <time>2024-07-18T18:04:56Z</time>
      </trkpt>
      <trkpt lat="48.0467" lon="6.85457">
        <ele>812.9</ele>
        <time>2024-07-18T18:05:01Z</time>
      </trkpt>
      <trkpt lat="48.04673" lon="6.85472">
        <ele>813.3</ele>
        <time>2024-07-18T18:05:07Z</time>
      </trkpt>
      <trkpt lat="48.04681" lon="6.85482">
        <ele>813.6</ele>
        <time>2024-07-18T18:05:11Z</time>
      </trkpt>
      <trkpt lat="48.04687" lon="6.85495">
        <ele>813.9</ele>
        <time>2024-07-18T18:05:16Z</time>
      </trkpt>
      <trkpt lat="48.04692" lon="6.85507">
        <ele>814.2</ele>
        <time>2024-07-18T18:05:20Z</time>
      </trkpt>
      <trkpt lat="48.04695" lon="6.8552">
        <ele>814.5</ele>
        <time>2024-07-18T18:05:24Z</time>
      </trkpt>
      <trkpt lat="48.047" lon="6.85533">
        <ele>814.8</ele>
        <time>2024-07-18T18:05:29Z</time>
      </trkpt>
      <trkpt lat="48.04704" lon="6.85547">
        <ele>815</ele>
        <time>2024-07-18T18:05:33Z</time>
      </trkpt>
      <trkpt lat="48.0471" lon="6.8556">
        <ele>815.3</ele>
        <time>2024-07-18T18:05:38Z</time>
      </trkpt>
      <trkpt lat="48.04716" lon="6.85572">
        <ele>815.7</ele>
        <time>2024-07-18T18:05:43Z</time>
      </trkpt>
      <trkpt lat="48.04725" lon="6.8558">
        <ele>815.9</ele>
        <time>2024-07-18T18:05:47Z</time>
      </trkpt>
      <trkpt lat="48.04734" lon="6.85589">
        <ele>816.3</ele>
        <time>2024-07-18T18:05:51Z</time>
      </trkpt>
      <trkpt lat="48.0474" lon="6.85602">
        <ele>816.6</ele>
        <time>2024-07-18T18:05:55Z</time>
      </trkpt>
      <trkpt lat="48.04748" lon="6.85615">
        <ele>817</ele>
        <time>2024-07-18T18:06:00Z</time>
      </trkpt>
      <trkpt lat="48.0475" lon="6.8563">
        <ele>817.4</ele>
        <time>2024-07-18T18:06:04Z</time>
      </trkpt>
      <trkpt lat="48.04753" lon="6.85646">
        <ele>817.8</ele>
        <time>2024-07-18T18:06:09Z</time>
      </trkpt>
      <trkpt lat="48.04759" lon="6.85657">
        <ele>818</ele>
        <time>2024-07-18T18:06:14Z</time>
      </trkpt>
      <trkpt lat="48.04767" lon="6.85668">
        <ele>818.2</ele>
        <time>2024-07-18T18:06:19Z</time>
      </trkpt>
      <trkpt lat="48.04773" lon="6.85684">
        <ele>818.5</ele>
        <time>2024-07-18T18:06:24Z</time>
      </trkpt>
      <trkpt lat="48.04775" lon="6.85698">
        <ele>818.8</ele>
        <time>2024-07-18T18:06:28Z</time>
      </trkpt>
      <trkpt lat="48.04783" lon="6.85707">
        <ele>819</ele>
        <time>2024-07-18T18:06:31Z</time>
      </trkpt>
      <trkpt lat="48.04792" lon="6.85716">
        <ele>819.3</ele>
        <time>2024-07-18T18:06:37Z</time>
      </trkpt>
      <trkpt lat="48.048" lon="6.85723">
        <ele>819.4</ele>
        <time>2024-07-18T18:06:42Z</time>
      </trkpt>
      <trkpt lat="48.0481" lon="6.85728">
        <ele>819.7</ele>
        <time>2024-07-18T18:06:45Z</time>
      </trkpt>
      <trkpt lat="48.04819" lon="6.85731">
        <ele>819.9</ele>
        <time>2024-07-18T18:06:48Z</time>
      </trkpt>
      <trkpt lat="48.04829" lon="6.85741">
        <ele>820.1</ele>
        <time>2024-07-18T18:06:52Z</time>
      </trkpt>
      <trkpt lat="48.0484" lon="6.85748">
        <ele>820.4</ele>
        <time>2024-07-18T18:06:56Z</time>
      </trkpt>
      <trkpt lat="48.04848" lon="6.85753">
        <ele>820.6</ele>
        <time>2024-07-18T18:06:58Z</time>
      </trkpt>
      <trkpt lat="48.04858" lon="6.85761">
        <ele>821</ele>
        <time>2024-07-18T18:07:01Z</time>
      </trkpt>
      <trkpt lat="48.04867" lon="6.85767">
        <ele>821.1</ele>
        <time>2024-07-18T18:07:04Z</time>
      </trkpt>
      <trkpt lat="48.04876" lon="6.85768">
        <ele>821</ele>
        <time>2024-07-18T18:07:09Z</time>
      </trkpt>
      <trkpt lat="48.04888" lon="6.85771">
        <ele>820.9</ele>
        <time>2024-07-18T18:07:13Z</time>
      </trkpt>
      <trkpt lat="48.04899" lon="6.85771">
        <ele>820.8</ele>
        <time>2024-07-18T18:07:17Z</time>
      </trkpt>
      <trkpt lat="48.0491" lon="6.85767">
        <ele>820.7</ele>
        <time>2024-07-18T18:07:21Z</time>
      </trkpt>
      <trkpt lat="48.04919" lon="6.85764">
        <ele>820.7</ele>
        <time>2024-07-18T18:07:24Z</time>
      </trkpt>
      <trkpt lat="48.0493" lon="6.8576">
        <ele>820.6</ele>
        <time>2024-07-18T18:07:27Z</time>
      </trkpt>
      <trkpt lat="48.0494" lon="6.85754">
        <ele>820.3</ele>
        <time>2024-07-18T18:07:31Z</time>
      </trkpt>
      <trkpt lat="48.04952" lon="6.85752">
        <ele>819.8</ele>
        <time>2024-07-18T18:07:34Z</time>
      </trkpt>
      <trkpt lat="48.04963" lon="6.85747">
        <ele>819.3</ele>
        <time>2024-07-18T18:07:37Z</time>
      </trkpt>
      <trkpt lat="48.04974" lon="6.85742">
        <ele>818.7</ele>
        <time>2024-07-18T18:07:41Z</time>
      </trkpt>
      <trkpt lat="48.04982" lon="6.85736">
        <ele>818.1</ele>
        <time>2024-07-18T18:07:43Z</time>
      </trkpt>
      <trkpt lat="48.04993" lon="6.85731">
        <ele>817.4</ele>
        <time>2024-07-18T18:07:45Z</time>
      </trkpt>
      <trkpt lat="48.05002" lon="6.85725">
        <ele>816.7</ele>
        <time>2024-07-18T18:07:47Z</time>
      </trkpt>
      <trkpt lat="48.05013" lon="6.85719">
        <ele>815.9</ele>
        <time>2024-07-18T18:07:49Z</time>
      </trkpt>
      <trkpt lat="48.05022" lon="6.85714">
        <ele>815.2</ele>
        <time>2024-07-18T18:07:51Z</time>
      </trkpt>
      <trkpt lat="48.0503" lon="6.85705">
        <ele>814.4</ele>
        <time>2024-07-18T18:07:54Z</time>
      </trkpt>
      <trkpt lat="48.05031" lon="6.8569">
        <ele>813.5</ele>
        <time>2024-07-18T18:07:58Z</time>
      </trkpt>
      <trkpt lat="48.05024" lon="6.85678">
        <ele>813.6</ele>
        <time>2024-07-18T18:08:01Z</time>
      </trkpt>
      <trkpt lat="48.05016" lon="6.85669">
        <ele>814.1</ele>
        <time>2024-07-18T18:08:04Z</time>
      </trkpt>
      <trkpt lat="48.05006" lon="6.85658">
        <ele>814.7</ele>
        <time>2024-07-18T18:08:08Z</time>
      </trkpt>
      <trkpt lat="48.04998" lon="6.8565">
        <ele>815.2</ele>
        <time>2024-07-18T18:08:12Z</time>
      </trkpt>
      <trkpt lat="48.0499" lon="6.85644">
        <ele>815.7</ele>
        <time>2024-07-18T18:08:17Z</time>
      </trkpt>
      <trkpt lat="48.04981" lon="6.85638">
        <ele>816.1</ele>
        <time>2024-07-18T18:08:22Z</time>
      </trkpt>
      <trkpt lat="48.04975" lon="6.85624">
        <ele>816.6</ele>
        <time>2024-07-18T18:08:31Z</time>
      </trkpt>
      <trkpt lat="48.04974" lon="6.85623">
        <ele>816.6</ele>
        <time>2024-07-18T18:08:37Z</time>
      </trkpt>
      <trkpt lat="48.04974" lon="6.85621">
        <ele>816.7</ele>
        <time>2024-07-18T18:09:00Z</time>
      </trkpt>
      <trkpt lat="48.04973" lon="6.8562">
        <ele>816.7</ele>
        <time>2024-07-18T18:09:20Z</time>
      </trkpt>
      <trkpt lat="48.04972" lon="6.85619">
        <ele>816.8</ele>
        <time>2024-07-18T18:09:21Z</time>
      </trkpt>
      <trkpt lat="48.04971" lon="6.85617">
        <ele>816.8</ele>
        <time>2024-07-18T18:09:22Z</time>
      </trkpt>
      <trkpt lat="48.0497" lon="6.85616">
        <ele>816.9</ele>
        <time>2024-07-18T18:09:23Z</time>
      </trkpt>
      <trkpt lat="48.04969" lon="6.85614">
        <ele>817</ele>
        <time>2024-07-18T18:09:24Z</time>
      </trkpt>
      <trkpt lat="48.04968" lon="6.85613">
        <ele>817</ele>
        <time>2024-07-18T18:09:40Z</time>
      </trkpt>
      <trkpt lat="48.04967" lon="6.85612">
        <ele>817.1</ele>
        <time>2024-07-18T18:09:41Z</time>
      </trkpt>
      <trkpt lat="48.04967" lon="6.8561">
        <ele>817.1</ele>
        <time>2024-07-18T18:09:41Z</time>
      </trkpt>
      <trkpt lat="48.04966" lon="6.85609">
        <ele>817.2</ele>
        <time>2024-07-18T18:09:41Z</time>
      </trkpt>
      <trkpt lat="48.04965" lon="6.85608">
        <ele>817.2</ele>
        <time>2024-07-18T18:09:41Z</time>
      </trkpt>
    </trkseg>
  </trk>
</gpx>